[[{"header":{"parameterUnit":"m.s-1","parameterCategory":1,"la1":30.6,"la2":28.766,"lo1":-90.7593,"lo2":-88.6598,"dy":0.0162,"dx":0.0183,"nx":116,"ny":114,"refTime":"2023-08-20T06:00:00:Z","depth":0,"parameterNumber":2,"parameterNumberName":"U-component_of_WINDS"},"data":[0.0,0.0,0.0,0.0,0.0,0.0,0.0,0.0,0.0,0.0,0.0,0.0,0.0,0.0,0.0,0.0,0.0,0.0,0.0,0.0,0.0,0.0,0.0,0.0,0.0,0.0,0.0,0.0,0.0,0.0,0.0,0.0,0.0,0.0,0.0,0.0,0.0,0.0,0.0,0.0,0.0,0.0,0.0,0.0,0.0,0.0,0.0,0.0,0.0,0.0,0.0,0.0,0.0,0.0,0.0,0.0,0.0,0.0,0.0,0.0,0.0,0.0,0.0,0.0,0.0,0.0,0.0,0.0,0.0,0.0,0.0,0.0,0.0,0.0,0.0,0.0,0.0,0.0,0.0,0.0,0.0,0.0,0.0,0.0,0.0,0.0,0.0,0.0,0.0,0.0,0.0,0.0,0.0,0.0,0.0,0.0,0.0,0.0,0.0,0.0,0.0,0.0,0.0,0.0,0.0,0.0,0.0,0.0,0.0,0.0,0.0,0.0,0.0,0.0,0.0,0.0,0.0,0.0,0.0,0.0,0.0,0.0,0.0,0.0,0.0,0.0,0.0,0.0,0.0,0.0,0.0,0.0,0.0,0.0,0.0,0.0,0.0,0.0,0.0,0.0,0.0,0.0,0.0,0.0,0.0,0.0,0.0,0.0,0.0,0.0,0.0,0.0,0.0,0.0,0.0,0.0,0.0,0.0,0.0,0.0,0.0,0.0,0.0,0.0,0.0,0.0,0.0,0.0,0.0,0.0,0.0,0.0,0.0,0.0,0.0,0.0,0.0,0.0,0.0,0.0,0.0,0.0,0.0,0.0,0.0,0.0,0.0,0.0,0.0,0.0,0.0,0.0,0.0,0.0,0.0,0.0,0.0,0.0,0.0,0.0,0.0,0.0,0.0,0.0,0.0,0.0,0.0,0.0,0.0,0.0,0.0,0.0,0.0,0.0,0.0,0.0,0.0,0.0,0.0,0.0,0.0,0.0,0.0,0.0,0.0,0.0,0.0,0.0,0.0,0.0,0.0,0.0,0.0,0.0,0.0,0.0,0.0,0.0,0.0,0.0,0.0,0.0,0.0,0.0,0.0,0.0,0.0,0.0,0.0,0.0,0.0,0.0,0.0,0.0,0.0,0.0,0.0,0.0,0.0,0.0,0.0,0.0,0.0,0.0,0.0,0.0,0.0,0.0,0.0,0.0,0.0,0.0,0.0,0.0,0.0,0.0,0.0,0.0,0.0,0.0,0.0,0.0,0.0,0.0,0.0,0.0,0.0,0.0,0.0,0.0,0.0,0.0,0.0,0.0,0.0,0.0,0.0,0.0,0.0,0.0,0.0,0.0,0.0,0.0,0.0,0.0,0.0,0.0,0.0,0.0,0.0,0.0,0.0,0.0,0.0,0.0,0.0,0.0,0.0,0.0,0.0,0.0,0.0,0.0,0.0,0.0,0.0,0.0,0.0,0.0,0.0,0.0,0.0,0.0,0.0,0.0,0.0,0.0,0.0,0.0,0.0,0.0,0.0,0.0,0.0,0.0,0.0,0.0,0.0,0.0,0.0,0.0,0.0,0.0,0.0,0.0,0.0,0.0,0.0,0.0,0.0,0.0,0.0,0.0,0.0,0.0,0.0,0.0,0.0,0.0,0.0,0.0,0.0,0.0,0.0,0.0,0.0,0.0,0.0,0.0,0.0,0.0,0.0,0.0,0.0,0.0,0.0,0.0,0.0,0.0,0.0,0.0,0.0,0.0,0.0,0.0,0.0,0.0,0.0,0.0,0.0,0.0,0.0,0.0,0.0,0.0,0.0,0.0,0.0,0.0,0.0,0.0,0.0,0.0,0.0,0.0,0.0,0.0,0.0,0.0,0.0,0.0,0.0,0.0,0.0,0.0,0.0,0.0,0.0,0.0,0.0,0.0,0.0,0.0,0.0,0.0,0.0,0.0,0.0,0.0,0.0,0.0,0.0,0.0,0.0,0.0,0.0,0.0,0.0,0.0,0.0,0.0,0.0,0.0,0.0,0.0,0.0,0.0,0.0,0.0,0.0,0.0,0.0,0.0,0.0,0.0,0.0,0.0,0.0,0.0,0.0,0.0,0.0,0.0,0.0,0.0,0.0,0.0,0.0,0.0,0.0,0.0,0.0,0.0,0.0,0.0,0.0,0.0,0.0,0.0,0.0,0.0,0.0,0.0,0.0,0.0,0.0,0.0,0.0,0.0,0.0,0.0,0.0,0.0,0.0,0.0,0.0,0.0,0.0,0.0,0.0,0.0,0.0,0.0,0.0,0.0,0.0,0.0,0.0,0.0,0.0,0.0,0.0,0.0,0.0,0.0,0.0,0.0,0.0,0.0,0.0,0.0,0.0,0.0,0.0,0.0,0.0,0.0,0.0,0.0,0.0,0.0,0.0,0.0,0.0,0.0,0.0,0.0,0.0,0.0,0.0,0.0,0.0,0.0,0.0,0.0,0.0,0.0,0.0,0.0,0.0,0.0,0.0,0.0,0.0,0.0,0.0,0.0,0.0,0.0,0.0,0.0,0.0,0.0,0.0,0.0,0.0,0.0,0.0,0.0,0.0,0.0,0.0,0.0,0.0,0.0,0.0,0.0,0.0,0.0,0.0,0.0,0.0,0.0,0.0,0.0,0.0,0.0,0.0,0.0,0.0,0.0,0.0,0.0,0.0,0.0,0.0,0.0,0.0,0.0,0.0,0.0,0.0,0.0,0.0,0.0,0.0,0.0,0.0,0.0,0.0,0.0,0.0,0.0,0.0,0.0,0.0,0.0,0.0,0.0,0.0,0.0,0.0,0.0,0.0,0.0,0.0,0.0,0.0,0.0,0.0,0.0,0.0,0.0,0.0,0.0,0.0,0.0,0.0,0.0,0.0,0.0,0.0,0.0,0.0,0.0,0.0,0.0,0.0,0.0,0.0,0.0,0.0,0.0,0.0,0.0,0.0,0.0,0.0,0.0,0.0,0.0,0.0,0.0,0.0,0.0,0.0,0.0,0.0,0.0,0.0,0.0,0.0,0.0,0.0,0.0,0.0,0.0,0.0,0.0,0.0,0.0,0.0,0.0,0.0,0.0,0.0,0.0,0.0,0.0,0.0,0.0,0.0,0.0,0.0,0.0,0.0,0.0,0.0,0.0,0.0,0.0,0.0,0.0,0.0,0.0,0.0,0.0,0.0,0.0,0.0,0.0,0.0,0.0,0.0,0.0,0.0,0.0,0.0,0.0,0.0,0.0,0.0,0.0,0.0,0.0,0.0,0.0,0.0,0.0,0.0,0.0,0.0,0.0,0.0,0.0,0.0,0.0,0.0,0.0,0.0,0.0,0.0,0.0,0.0,0.0,0.0,0.0,0.0,0.0,0.0,0.0,0.0,0.0,0.0,0.0,0.0,0.0,0.0,0.0,0.0,0.0,0.0,0.0,0.0,0.0,0.0,0.0,0.0,0.0,0.0,0.0,0.0,0.0,0.0,0.0,0.0,0.0,0.0,0.0,0.0,0.0,0.0,0.0,0.0,0.0,0.0,0.0,0.0,0.0,0.0,0.0,0.0,0.0,0.0,0.0,0.0,0.0,0.0,0.0,0.0,0.0,0.0,0.0,0.0,0.0,0.0,0.0,0.0,0.0,0.0,0.0,0.0,0.0,0.0,0.0,0.0,0.0,0.0,0.0,0.0,0.0,0.0,0.0,0.0,0.0,0.0,0.0,0.0,0.0,0.0,0.0,0.0,0.0,0.0,0.0,0.0,0.0,0.0,0.0,0.0,0.0,0.0,0.0,0.0,0.0,0.0,0.0,0.0,0.0,0.0,0.0,0.0,0.0,0.0,0.0,0.0,0.0,0.0,0.0,0.0,0.0,0.0,0.0,0.0,0.0,0.0,0.0,0.0,0.0,0.0,0.0,0.0,0.0,0.0,0.0,0.0,0.0,0.0,0.0,0.0,0.0,0.0,0.0,0.0,0.0,0.0,0.0,0.0,0.0,0.0,0.0,0.0,0.0,0.0,0.0,0.0,0.0,0.0,0.0,0.0,0.0,0.0,0.0,0.0,0.0,0.0,0.0,0.0,0.0,0.0,0.0,0.0,0.0,0.0,0.0,0.0,0.0,0.0,0.0,0.0,0.0,0.0,0.0,0.0,0.0,0.0,0.0,0.0,0.0,0.0,0.0,0.0,0.0,0.0,0.0,0.0,0.0,0.0,0.0,0.0,0.0,0.0,0.0,0.0,0.0,0.0,0.0,0.0,0.0,0.0,0.0,0.0,0.0,0.0,0.0,0.0,0.0,0.0,0.0,0.0,0.0,0.0,0.0,0.0,0.0,0.0,0.0,0.0,0.0,0.0,0.0,0.0,0.0,0.0,0.0,0.0,0.0,0.0,0.0,0.0,0.0,0.0,0.0,0.0,0.0,0.0,0.0,0.0,0.0,0.0,0.0,0.0,0.0,0.0,0.0,0.0,0.0,0.0,0.0,0.0,0.0,0.0,0.0,0.0,0.0,0.0,0.0,0.0,0.0,0.0,0.0,0.0,0.0,0.0,0.0,0.0,0.0,0.0,0.0,0.0,0.0,0.0,0.0,0.0,0.0,0.0,0.0,0.0,0.0,0.0,0.0,0.0,0.0,0.0,0.0,0.0,0.0,0.0,0.0,0.0,0.0,0.0,0.0,0.0,0.0,0.0,0.0,0.0,0.0,0.0,0.0,0.0,0.0,0.0,0.0,0.0,0.0,0.0,0.0,0.0,0.0,0.0,0.0,0.0,0.0,0.0,0.0,0.0,0.0,0.0,0.0,0.0,0.0,0.0,0.0,0.0,0.0,0.0,0.0,0.0,0.0,0.0,0.0,0.0,0.0,0.0,0.0,0.0,0.0,0.0,0.0,0.0,0.0,0.0,0.0,0.0,0.0,0.0,0.0,0.0,0.0,0.0,0.0,0.0,0.0,0.0,0.0,0.0,0.0,0.0,0.0,0.0,0.0,0.0,0.0,0.0,0.0,0.0,0.0,0.0,0.0,0.0,0.0,0.0,0.0,0.0,0.0,0.0,0.0,0.0,0.0,0.0,0.0,0.0,0.0,0.0,0.0,0.0,0.0,0.0,0.0,0.0,0.0,0.0,0.0,0.0,0.0,0.0,0.0,0.0,0.0,0.0,0.0,0.0,0.0,0.0,0.0,0.0,0.0,0.0,0.0,0.0,0.0,0.0,0.0,0.0,0.0,0.0,0.0,0.0,0.0,0.0,0.0,0.0,0.0,0.0,0.0,0.0,0.0,0.0,0.0,0.0,0.0,0.0,0.0,0.0,0.0,0.0,0.0,0.0,0.0,0.0,0.0,0.0,0.0,0.0,0.0,0.0,0.0,0.0,0.0,0.0,0.0,0.0,0.0,0.0,0.0,0.0,0.0,0.0,0.0,0.0,0.0,0.0,0.0,0.0,0.0,0.0,0.0,0.0,0.0,0.0,0.0,0.0,0.0,0.0,0.0,0.0,0.0,0.0,0.0,0.0,0.0,0.0,0.0,0.0,0.0,0.0,0.0,0.0,0.0,0.0,0.0,0.0,0.0,0.0,0.0,0.0,0.0,0.0,0.0,0.0,0.0,0.0,0.0,0.0,0.0,0.0,0.0,0.0,0.0,0.0,0.0,0.0,0.0,0.0,0.0,0.0,0.0,0.0,0.0,0.0,0.0,0.0,0.0,0.0,0.0,0.0,0.0,0.0,0.0,0.0,0.0,0.0,0.0,0.0,0.0,0.0,0.0,0.0,0.0,0.0,0.0,0.0,0.0,0.0,0.0,0.0,0.0,0.0,0.0,0.0,0.0,0.0,0.0,0.0,0.0,0.0,0.0,0.0,0.0,0.0,0.0,0.0,0.0,0.0,0.0,0.0,0.0,0.0,0.0,0.0,0.0,0.0,0.0,0.0,0.0,0.0,0.0,0.0,0.0,0.0,0.0,0.0,0.0,0.0,0.0,0.0,0.0,0.0,0.0,0.0,0.0,0.0,0.0,0.0,0.0,0.0,0.0,0.0,0.0,0.0,0.0,0.0,0.0,0.0,0.0,0.0,0.0,0.0,0.0,0.0,0.0,0.0,0.0,0.0,0.0,0.0,0.0,-3.4769,-3.3466,0.0,0.0,0.0,0.0,0.0,0.0,0.0,0.0,0.0,0.0,0.0,0.0,0.0,0.0,0.0,0.0,0.0,0.0,0.0,0.0,0.0,0.0,0.0,0.0,0.0,0.0,0.0,0.0,0.0,0.0,0.0,0.0,0.0,0.0,0.0,0.0,0.0,-3.5294,-3.7093,-3.7447,-3.6491,-3.3558,-3.0526,-2.766,0.0,0.0,0.0,0.0,0.0,0.0,0.0,0.0,0.0,0.0,0.0,0.0,0.0,0.0,0.0,0.0,0.0,0.0,0.0,0.0,0.0,0.0,0.0,0.0,0.0,0.0,0.0,0.0,0.0,0.0,0.0,0.0,0.0,0.0,0.0,0.0,0.0,0.0,0.0,0.0,0.0,0.0,0.0,0.0,0.0,0.0,0.0,0.0,0.0,0.0,0.0,0.0,0.0,0.0,0.0,0.0,0.0,0.0,0.0,0.0,0.0,0.0,0.0,0.0,0.0,0.0,0.0,0.0,0.0,0.0,-3.5649,-3.4999,0.0,0.0,0.0,0.0,0.0,0.0,0.0,0.0,0.0,0.0,0.0,0.0,0.0,0.0,0.0,0.0,0.0,0.0,0.0,0.0,0.0,0.0,0.0,0.0,-2.801,-2.8115,-2.8137,0.0,0.0,0.0,0.0,0.0,0.0,0.0,-2.9714,-3.2227,-3.3989,-3.4967,-3.7253,-3.7988,-3.7238,-3.6158,-3.3908,-3.0626,-2.8471,0.0,0.0,0.0,0.0,0.0,0.0,0.0,0.0,0.0,0.0,0.0,0.0,0.0,0.0,0.0,0.0,0.0,0.0,0.0,0.0,0.0,0.0,0.0,0.0,0.0,0.0,0.0,0.0,0.0,0.0,0.0,0.0,0.0,0.0,0.0,0.0,0.0,0.0,0.0,0.0,0.0,0.0,0.0,0.0,0.0,0.0,0.0,0.0,0.0,0.0,0.0,0.0,0.0,0.0,0.0,0.0,0.0,0.0,0.0,0.0,0.0,0.0,0.0,-3.5324,-3.5441,-3.5126,-3.508,-3.4935,-3.471,-3.6261,-3.6591,-3.5915,-3.4105,0.0,0.0,0.0,0.0,0.0,0.0,0.0,0.0,0.0,0.0,0.0,0.0,0.0,0.0,0.0,0.0,0.0,0.0,0.0,0.0,0.0,-2.8188,-2.8638,-2.8986,-2.9277,-2.9281,0.0,0.0,0.0,0.0,0.0,0.0,-3.0512,-3.1615,-3.2925,-3.4413,-3.7243,-3.9257,-4.0525,-3.8926,-3.7686,-3.6642,-3.2127,-3.0335,-3.0569,0.0,0.0,0.0,0.0,0.0,0.0,0.0,0.0,0.0,0.0,0.0,0.0,0.0,0.0,0.0,0.0,0.0,0.0,0.0,0.0,0.0,0.0,0.0,0.0,0.0,0.0,0.0,0.0,0.0,0.0,0.0,0.0,0.0,0.0,0.0,0.0,0.0,0.0,0.0,0.0,0.0,-3.1377,-3.2111,0.0,0.0,0.0,0.0,0.0,0.0,0.0,0.0,0.0,0.0,0.0,0.0,0.0,-3.3661,-3.4213,-3.5558,-3.6495,-3.6955,-3.6526,-3.6299,-3.6247,-3.4642,-3.3916,-3.3867,-3.4798,0.0,-3.4931,-3.3936,0.0,0.0,0.0,0.0,0.0,0.0,0.0,0.0,0.0,0.0,0.0,0.0,0.0,0.0,0.0,0.0,0.0,0.0,0.0,0.0,0.0,-2.6935,-2.7553,-2.7588,-2.8345,-2.8511,-2.7875,0.0,0.0,0.0,0.0,-2.8564,-3.0175,-3.1181,-3.3253,-3.6399,-3.8089,-3.957,-4.0718,-4.003,-3.9567,-3.9264,-3.6607,-3.4165,-3.1974,-3.0953,0.0,0.0,0.0,0.0,0.0,0.0,0.0,0.0,0.0,0.0,0.0,0.0,0.0,0.0,0.0,0.0,0.0,0.0,0.0,0.0,0.0,0.0,0.0,0.0,0.0,0.0,0.0,0.0,0.0,0.0,0.0,0.0,0.0,0.0,0.0,0.0,0.0,0.0,0.0,-2.9279,-2.9748,-3.0941,-2.9879,-2.879,0.0,0.0,0.0,0.0,0.0,0.0,0.0,0.0,0.0,-3.1471,-3.1839,-3.2584,-3.3667,-3.4402,-3.5008,-3.5663,-3.5626,-3.5506,-3.5226,-3.4674,-3.4243,-3.4052,-3.4378,-3.4555,-3.4401,-3.3135,-3.1861,-3.0628,0.0,0.0,0.0,0.0,-2.8391,-2.8341,0.0,0.0,0.0,0.0,0.0,0.0,0.0,0.0,0.0,0.0,0.0,0.0,-2.4999,-2.6218,-2.7113,-2.709,-2.7873,-2.8107,-2.7317,-2.7254,0.0,-2.6147,-2.6466,-2.7376,-2.9034,-3.0514,-3.3368,-3.7475,-3.8397,-3.9523,-4.0928,-4.1043,-4.1132,-4.1199,-4.0531,-3.7913,-3.4075,-3.35,-3.2003,-3.0094,0.0,0.0,0.0,0.0,0.0,0.0,0.0,0.0,0.0,0.0,0.0,0.0,0.0,0.0,0.0,0.0,0.0,0.0,0.0,0.0,0.0,0.0,0.0,0.0,0.0,0.0,0.0,0.0,0.0,0.0,0.0,0.0,0.0,0.0,0.0,0.0,0.0,-2.8991,-2.909,-3.0031,-2.9199,-2.8029,0.0,0.0,0.0,0.0,0.0,0.0,-2.9072,-2.9501,-3.0115,-3.087,-3.124,-3.2112,-3.338,-3.3395,-3.3776,-3.4455,-3.4195,-3.3975,-3.3643,-3.338,-3.306,-3.2835,-3.291,-3.294,-3.2905,-3.2451,-3.1494,-3.026,-2.9085,-2.8222,-2.7695,-2.812,-2.8042,-2.7802,0.0,0.0,0.0,0.0,0.0,0.0,0.0,0.0,0.0,0.0,0.0,-2.4381,-2.6468,-2.7353,-2.8169,-2.9086,-2.9226,-2.9029,-2.8654,-2.7856,-2.7201,-2.6773,-2.6906,-2.7055,-2.7137,-2.94,-3.2402,-3.6069,-3.7204,-3.9267,-4.2217,-4.259,-4.3065,-4.351,-4.3029,-4.1163,-3.8166,-3.5819,-3.418,-3.2861,-3.1367,0.0,0.0,0.0,0.0,0.0,0.0,0.0,0.0,0.0,0.0,0.0,0.0,0.0,0.0,0.0,0.0,0.0,0.0,0.0,0.0,0.0,0.0,0.0,0.0,0.0,0.0,0.0,0.0,0.0,0.0,0.0,0.0,0.0,0.0,0.0,0.0,0.0,0.0,-3.0996,-3.0887,0.0,0.0,0.0,0.0,-2.7925,-2.862,-2.9404,-3.0432,-3.125,-3.2059,-3.2789,-3.3237,-3.3686,-3.4137,-3.4152,-3.4408,-3.4952,-3.2887,-3.1949,-3.1921,-2.98,-2.8796,-2.8809,-2.9067,-2.9183,-2.9339,-3.195,-3.2582,-3.1779,-3.0515,-2.9594,-2.8923,-2.8507,-2.8627,-2.8942,0.0,0.0,0.0,0.0,0.0,0.0,0.0,0.0,-2.0373,-2.1093,-2.1832,-2.2781,-2.3885,-2.5566,-2.6759,-2.7226,-2.781,-2.8016,-2.7827,-2.6486,-2.5814,-2.5935,-2.5314,-2.6026,-2.8417,-3.067,-3.3049,-3.5496,-3.6129,-3.7321,-3.8919,-3.9049,-3.9314,-3.984,-4.0973,-4.0662,-3.9131,-3.9009,-3.7495,-3.513,-3.4562,-3.2726,0.0,0.0,0.0,0.0,0.0,0.0,0.0,0.0,0.0,0.0,0.0,0.0,0.0,0.0,0.0,0.0,0.0,0.0,0.0,0.0,0.0,0.0,0.0,0.0,0.0,0.0,0.0,0.0,0.0,0.0,0.0,0.0,0.0,0.0,0.0,0.0,0.0,-2.9326,-2.93,0.0,-2.7459,-2.7524,-2.7719,-2.7906,-2.8465,-2.9112,-2.9619,-2.9936,-3.0214,-3.0519,-3.0731,-3.0917,-3.1026,-3.1026,-3.1171,-3.128,-3.037,-2.9964,-2.995,-2.8964,-2.8474,-2.8487,-2.8576,-2.8627,-2.8679,-2.9737,-2.9872,-2.9347,-2.8492,-2.7812,-2.7283,-2.7122,-2.7068,-2.7014,0.0,0.0,0.0,0.0,0.0,0.0,0.0,0.0,-2.0331,-2.0696,-2.1457,-2.2312,-2.3149,-2.4791,-2.5992,-2.6483,-2.6948,-2.7272,-2.7236,-2.5779,-2.5152,-2.558,-2.4895,-2.5848,-2.8655,-3.0475,-3.2438,-3.4683,-3.5037,-3.595,-3.7242,-3.7243,-3.7424,-3.7922,-3.9312,-3.963,-3.934,-3.991,-3.9001,-3.7073,-3.6645,-3.5092,-3.2826,0.0,0.0,0.0,0.0,0.0,0.0,0.0,0.0,0.0,0.0,0.0,0.0,0.0,0.0,0.0,0.0,0.0,0.0,0.0,0.0,0.0,0.0,0.0,0.0,0.0,0.0,0.0,0.0,0.0,0.0,0.0,0.0,0.0,0.0,-2.6765,-2.7538,-2.7946,-2.8397,-2.8226,-2.7034,-2.7419,-2.7917,-2.8103,-2.8539,-2.8912,-2.9292,-2.9305,-2.9292,-2.9292,-2.9205,-2.9168,-2.9168,-2.9068,-2.8981,-2.8974,-2.8786,-2.8611,-2.8423,-2.8248,-2.8111,-2.8035,-2.8123,-2.8161,-2.8161,-2.8161,-2.7908,-2.7608,-2.7234,-2.6818,-2.6305,-2.6133,-2.5899,-2.5749,0.0,0.0,0.0,0.0,0.0,0.0,0.0,-1.8971,-2.0478,-2.0951,-2.1799,-2.289,-2.4271,-2.5256,-2.61,-2.6833,-2.6742,-2.6692,-2.6957,-2.5814,-2.5309,-2.5673,-2.5924,-2.656,-2.7666,-2.8545,-3.0519,-3.3594,-3.3915,-3.5239,-3.7391,-3.7391,-3.7667,-3.8095,-3.8203,-3.8461,-3.8869,-3.8433,-3.8408,-3.842,-3.7301,-3.6488,-3.5814,0.0,0.0,0.0,0.0,0.0,0.0,0.0,0.0,0.0,0.0,0.0,0.0,0.0,0.0,0.0,0.0,0.0,0.0,0.0,0.0,0.0,0.0,0.0,0.0,0.0,0.0,0.0,0.0,0.0,0.0,0.0,0.0,0.0,-2.5351,-2.6879,-2.7738,-2.712,-2.8469,-2.8921,-2.7792,-2.8265,-2.8681,-2.8681,-2.891,-2.9163,-2.9417,-2.9417,-2.9417,-2.9417,-2.9163,-2.9019,-2.9019,-2.8765,-2.85,-2.821,-2.821,-2.7932,-2.7437,-2.7437,-2.728,-2.7039,-2.7304,-2.7413,-2.7413,-2.7401,-2.7244,-2.6966,-2.698,-2.6785,-2.6413,-2.5714,-2.5446,-2.5385,0.0,0.0,0.0,0.0,0.0,0.0,0.0,-1.6666,-1.7195,-1.7816,-1.856,-1.9423,-2.0232,-2.169,-2.2647,-2.2936,-2.3041,-2.3247,-2.3423,-2.2995,-2.3454,-2.513,-2.5869,-2.6865,-2.8217,-2.9039,-3.0187,-3.1692,-3.215,-3.2703,-3.3337,-3.3337,-3.3431,-3.3605,-3.4981,-3.5725,-3.5896,-3.7281,-3.7801,-3.7782,-3.6787,-3.5526,-3.3919,0.0,0.0,0.0,0.0,0.0,0.0,0.0,0.0,0.0,0.0,0.0,0.0,0.0,0.0,0.0,0.0,0.0,0.0,0.0,0.0,0.0,0.0,0.0,0.0,0.0,0.0,0.0,0.0,0.0,0.0,0.0,-2.5156,-2.5931,-2.5958,-2.7243,-2.8234,-2.8396,-2.9396,-2.993,-2.9833,-2.9988,-3.0057,-3.0057,-2.9948,-2.9912,-2.9984,-2.9803,-2.9682,-2.9682,-2.9429,-2.9212,-2.9019,-2.8946,-2.8777,-2.85,-2.8294,-2.8029,-2.7703,-2.7703,-2.7461,-2.7039,-2.7304,-2.7317,-2.7123,-2.693,-2.681,-2.6737,-2.6669,-2.6418,-2.5993,-2.5747,-2.5482,-2.5059,0.0,0.0,0.0,0.0,0.0,0.0,0.0,-1.5408,-1.6108,-1.6664,-1.7461,-1.8238,-1.8941,-2.0226,-2.1025,-2.1119,-2.1138,-2.1192,-2.1293,-2.1368,-2.1883,-2.3138,-2.4046,-2.4983,-2.5925,-2.7522,-2.8711,-2.9416,-3.0465,-3.1064,-3.1181,-3.1051,-3.0998,-3.1093,-3.2191,-3.2744,-3.2744,-3.3952,-3.4493,-3.458,-3.4105,-3.4427,-3.491,-3.3057,-3.1734,-3.0559,-2.8812,-2.772,-2.6898,-2.5451,0.0,0.0,0.0,0.0,0.0,0.0,0.0,0.0,0.0,0.0,0.0,0.0,0.0,0.0,0.0,0.0,0.0,0.0,0.0,0.0,0.0,0.0,0.0,0.0,-2.5749,-2.6759,-2.6053,-2.7287,-2.8669,-2.9429,-2.9936,-3.0358,-3.0733,-3.0672,-3.0612,-3.0612,-3.0358,-3.0214,-3.0214,-3.0057,-2.9972,-2.9972,-2.9707,-2.9501,-2.9344,-2.9236,-2.9043,-2.8789,-2.862,-2.8343,-2.798,-2.798,-2.7691,-2.7208,-2.7353,-2.7268,-2.7015,-2.6749,-2.6568,0.0,0.0,0.0,0.0,0.0,-2.5397,-2.4963,0.0,0.0,0.0,0.0,0.0,0.0,0.0,-1.4525,-1.5722,-1.6349,-1.7033,-1.7801,-1.8654,-1.9453,-1.9952,-1.9959,-1.9765,-1.966,-1.9824,-2.0103,-2.0404,-2.0763,-2.1529,-2.2162,-2.2492,-2.4904,-2.6404,-2.6928,-2.8572,-2.9475,-2.9722,-2.9499,-2.9388,-2.9388,-2.9388,-2.9388,-2.9388,-2.9446,-2.9512,-2.9772,-2.9882,-3.2668,-3.6529,-3.3966,-3.2562,-3.1888,-3.0737,-2.9077,-2.7367,-2.6639,0.0,0.0,0.0,0.0,0.0,0.0,0.0,0.0,0.0,0.0,0.0,0.0,0.0,0.0,0.0,0.0,0.0,0.0,0.0,0.0,0.0,0.0,0.0,0.0,-2.5634,-2.7072,-2.5532,-2.6909,-2.8501,-2.9736,-3.0083,-3.0503,-3.0998,-3.0829,-3.0696,-3.0696,-3.0455,-3.0298,-3.0298,-3.0274,0.0,0.0,0.0,-2.9727,-2.9391,-2.9462,-2.9308,-2.9019,-2.9019,-2.8729,-2.821,-2.7949,-2.7581,-2.7092,-2.7116,-2.6973,-2.6687,-2.6695,-2.6484,-2.6146,-2.5892,-2.5784,-2.5759,-2.5518,-2.5252,-2.4915,0.0,0.0,0.0,0.0,0.0,0.0,0.0,-1.1291,-1.1876,-1.2755,-1.302,-1.3425,-1.433,-1.4942,-1.5301,-1.5363,-1.5492,-1.6181,-1.7565,-1.758,-1.8444,-2.0727,-2.1178,-2.1631,-2.2001,-2.3215,-2.387,-2.3961,-2.4688,-2.5173,-2.5216,-2.5267,-2.5233,-2.5233,-2.5233,-2.5233,-2.5222,-2.5129,-2.5182,-2.5307,-2.5307,-2.814,-3.2058,-3.1101,-3.0517,-3.0082,-2.9599,-2.9196,-2.8744,-2.8067,-2.7635,-2.7104,-2.5961,0.0,0.0,0.0,0.0,0.0,0.0,0.0,0.0,0.0,0.0,0.0,0.0,0.0,0.0,0.0,0.0,0.0,0.0,0.0,0.0,-2.1792,-2.2916,-2.3796,-2.3981,-2.4338,-2.5316,-2.7475,-2.9561,-3.0974,-3.1276,-3.1264,-3.124,-3.124,-3.0998,-3.0853,-3.0853,-3.0648,-2.9695,-2.791,-2.9334,-2.9201,-2.7157,-2.8831,-2.9477,-2.9019,-2.9019,0.0,-2.8115,-2.667,-2.5725,-2.5191,-2.5472,-2.5318,-2.4899,-2.6323,-2.6544,-2.588,-2.5615,-2.5518,-2.5506,-2.5458,-2.5132,-2.4745,0.0,0.0,0.0,0.0,0.0,0.0,0.0,-1.0484,-1.0773,-1.1409,-1.1677,-1.2061,-1.2655,-1.3129,-1.3337,-1.3129,-1.3284,-1.3773,-1.4794,-1.5019,-1.5843,-1.734,-1.7704,-1.8114,-1.858,-2.0034,-2.0915,-2.1308,-2.2476,-2.316,-2.3277,-2.3277,-2.317,-2.317,-2.317,-2.317,-2.317,-2.315,-2.3238,-2.3434,-2.3218,-2.4758,-2.7047,-2.7184,-2.7033,-2.6829,-2.6953,-2.7515,-2.8128,-2.7582,-2.7731,-2.7935,-2.7001,-2.6043,-2.501,0.0,0.0,0.0,0.0,0.0,0.0,0.0,0.0,0.0,0.0,0.0,0.0,0.0,0.0,-1.8012,-1.8479,0.0,-1.9993,-2.0669,-2.2084,-2.2892,-2.2239,-2.3257,-2.4423,-2.5596,-2.6859,-2.777,-2.8102,-2.8027,-2.7845,-2.7845,-2.762,-2.7491,-2.7491,-2.7373,-2.6787,-2.573,-2.6566,-2.6397,-2.5142,-2.6155,-2.653,-2.6086,-2.6067,-2.5819,-2.5378,-2.4386,-2.3718,-2.332,-2.343,-2.33,-2.3061,-2.4778,-2.5161,-2.476,-2.5493,-2.5663,-2.5433,-2.5433,-2.518,-2.4878,0.0,0.0,0.0,0.0,0.0,0.0,0.0,-0.9534,-0.9607,-1.0364,-1.0705,-1.116,-1.181,-1.2228,-1.2307,-1.2066,-1.2173,-1.2435,-1.2729,-1.3242,-1.3727,-1.4043,-1.4385,-1.4719,-1.5219,-1.6821,-1.7991,-1.8629,-2.0131,-2.0905,-2.1162,-2.0905,-2.0826,-2.0826,-2.0826,-2.0924,-2.1022,-2.0987,-2.1183,-2.1461,-2.1093,-2.1217,-2.1711,-2.2269,-2.3088,-2.3998,-2.4437,-2.5298,-2.6299,-2.5907,-2.6303,-2.6898,-2.6492,-2.5787,-2.4581,-2.2632,-2.1943,0.0,0.0,0.0,0.0,0.0,0.0,0.0,0.0,-1.8252,-1.8391,-1.885,-1.8005,-1.7325,-1.7792,-1.8426,-1.8885,-1.9378,-2.1201,-2.198,-2.0505,-2.2009,-2.3231,-2.3195,-2.3989,-2.4538,-2.4816,-2.4576,-2.4481,-2.4481,-2.4312,-2.413,-2.4168,-2.4093,-2.3852,-2.3472,-2.3666,-2.3632,-2.3176,-2.3531,-2.3521,-2.3174,-2.3068,-2.286,-2.2553,-2.1943,-2.1591,-2.1375,-2.1375,-2.1537,-2.1763,-2.3033,-2.3342,-2.3108,-2.4554,-2.4833,-2.4517,-2.4855,-2.4705,-2.4481,0.0,0.0,0.0,0.0,0.0,0.0,0.0,0.0,-0.6087,-0.8122,-0.8116,-0.8702,-1.0632,-1.1025,-1.1267,-1.1543,-1.2093,-1.2612,-1.301,-1.3444,-1.3812,-1.4409,-1.458,-1.466,-1.4761,-1.5081,-1.5252,-1.5366,-1.5531,-1.5568,-1.5581,-1.5568,-1.5555,-1.5555,-1.5555,-1.5763,-1.6259,-1.6123,-1.6457,-1.7005,-1.6481,-1.6286,-1.6347,-1.6201,-1.9142,-2.3514,-2.3552,-2.3404,-2.3157,-2.3157,-2.2936,-2.2769,-2.2858,-2.2499,-2.1911,-2.102,-2.0412,-1.9996,-1.9072,-1.7885,-1.7045,-1.7729,-1.6416,-1.5258,0.0,-1.6208,-1.599,-1.6581,-1.6529,-1.6554,-1.6769,-1.7072,-1.7293,-1.7611,-1.8132,-1.8508,-1.8462,-1.8832,-1.9178,-1.9043,-2.2388,-2.4806,-2.4825,-2.4806,-2.4797,-2.4797,-2.4778,-2.4735,-2.4924,-2.4585,-2.3503,-2.1622,-2.3206,-2.3024,-2.0864,-2.2834,-2.3569,-2.3174,-2.3068,-2.286,-2.2553,-2.0475,-1.9585,-1.9726,-1.9618,-2.0504,-2.2,-2.2058,-2.1697,-2.1248,-2.1413,-2.1351,-2.119,-2.2754,-2.3031,-2.2597,0.0,0.0,0.0,0.0,0.0,0.0,0.0,0.0,0.0,-0.6022,-0.6074,-0.6351,-0.7269,-0.7467,-0.7508,-0.7717,-0.8115,-0.8523,-0.8803,-1.0268,-1.1378,-1.1742,-1.3031,-1.3909,-1.429,-1.4343,-1.4475,-1.4783,-1.4751,-1.4684,-1.4684,-1.4598,-1.4562,-1.4562,-1.4562,-1.4662,-1.4863,-1.49,-1.5012,-1.527,-1.4969,-1.4913,-1.4994,-1.4822,-1.6239,-1.825,-1.8349,-1.8896,0.0,0.0,-2.0666,-2.1517,-2.1915,-2.1878,-2.133,-1.9523,-1.8945,-1.8647,-1.7063,-1.6144,-1.576,-1.619,-1.5737,-1.5371,-1.6137,-1.6178,-1.6178,-1.6612,-1.6836,-1.6992,-1.7114,-1.7338,-1.7561,-1.7772,-1.7914,-1.8077,-1.8321,-1.8301,-1.8287,-1.8321,-1.9789,-2.0883,-2.1008,-2.0906,-2.0906,-2.1008,-2.0906,-2.0922,-2.1111,-2.0985,-2.0439,-1.9426,-1.9976,-1.9716,-1.8701,-1.9461,-1.9814,-1.956,-1.9379,-1.9206,-1.9033,-1.7966,-1.7484,-1.7462,-1.7558,-1.7908,-1.8558,-1.951,-1.9802,-1.9664,-2.0675,-2.0325,-1.9262,-2.0731,-2.1194,-2.1134,0.0,0.0,0.0,0.0,0.0,0.0,0.0,0.0,0.0,0.0,-0.417,-0.4422,-0.4851,-0.4934,-0.4959,-0.4945,-0.5269,-0.5554,-0.5665,-0.7517,-0.8656,-0.8903,-1.041,-1.1506,-1.1989,-1.257,-1.3123,-1.3537,-1.4036,-1.4386,-1.438,-1.4214,-1.4137,-1.4131,-1.4095,-1.4177,-1.4283,-1.4283,-1.4377,-1.4476,-1.4377,-1.4319,-1.4361,-1.4065,-1.3935,-1.3834,-1.4397,-1.5289,0.0,0.0,-1.7655,-1.8955,-1.9473,-1.9651,-1.9216,-1.7547,-1.7123,-1.6903,-1.5377,-1.4905,-1.4966,-1.5425,-1.5626,-1.5864,-1.6408,-1.6659,-1.6795,-1.71,-1.7331,-1.7494,-1.7534,-1.7724,-1.7914,-1.8077,-1.8124,-1.8233,-1.8443,-1.8355,-1.8267,-1.8247,-1.8158,-1.8145,-1.8301,-1.8179,-1.8179,-1.8355,-1.8267,-1.8287,-1.8423,-1.8175,-1.8088,-1.8158,-1.7686,-1.7458,-1.7487,-1.727,-1.7121,-1.7039,-1.6883,-1.6714,-1.6517,-1.6374,-1.6293,-1.6273,-1.6381,-1.6259,-1.6066,-1.7411,-1.7858,-1.7904,-1.9199,-1.8781,-1.7499,-1.8433,-1.9068,-1.9455,0.0,0.0,0.0,0.0,0.0,0.0,0.0,0.0,0.0,0.0,0.0,0.0,0.0,-0.4735,-0.4757,-0.4815,-0.5181,-0.5465,-0.571,-0.6164,-0.6461,-0.6453,-0.673,-0.6828,-0.6828,-0.915,-1.0293,-1.0293,-1.2415,-1.3412,-1.3406,-1.3275,-1.3165,-1.316,-1.3039,-1.329,-1.369,-1.369,-1.3983,-1.4476,-1.3884,-1.3615,-1.3505,-1.2908,-1.2519,-1.2234,-1.3519,0.0,0.0,-1.3466,-1.3366,-1.3546,-1.4003,-1.4185,-1.4388,-1.474,-1.4729,-1.4653,-1.4706,-1.4593,-1.4764,-1.5931,-1.6088,-1.61,-1.7176,-1.7277,-1.7256,-1.7568,-1.7629,-1.7684,-1.7826,-1.786,-1.7914,-1.8077,-1.8213,-1.8321,-1.8321,-1.8565,-1.8586,-1.8145,-1.8091,-1.8145,-1.8301,-1.8179,-1.8213,-1.8498,-1.8511,-1.8586,-1.8742,-1.803,-1.7771,-1.8321,-1.7596,-1.738,-1.754,-1.7629,-1.748,-1.7182,-1.7039,-1.6815,-1.6517,-1.6374,-1.6463,-1.6727,-1.6734,-1.6571,-1.6293,-1.6394,-1.6128,-1.5732,-1.5725,-1.5725,-1.5704,-1.5534,-1.6398,-1.7616,0.0,0.0,0.0,0.0,0.0,0.0,0.0,0.0,0.0,0.0,0.0,0.0,0.0,0.0,0.0,0.0,-0.1702,-0.1862,-0.1949,-0.3338,-0.4255,-0.4382,-0.5843,-0.6664,-0.6766,-0.7515,-0.8612,-1.002,-1.0783,-1.1914,-1.3298,-1.3221,-1.314,-1.3069,-1.3026,-1.3067,-1.319,-1.319,-1.3284,-1.3379,-1.3095,-1.309,-1.309,-1.2568,-1.2102,-1.1732,0.0,0.0,0.0,-1.2266,-1.2493,-1.2879,-1.3508,-1.3961,-1.4269,-1.4359,-1.455,-1.474,-1.5092,-1.5321,-1.5797,-1.6605,-1.6792,-1.6922,-1.7385,-1.7534,-1.7548,-1.7758,-1.7629,-1.7514,-1.7561,-1.7568,-1.7623,-1.7772,-1.8002,-1.8233,-1.8423,-1.8552,-1.8511,-1.8267,-1.8247,-1.8267,-1.8321,-1.8091,-1.8199,-1.8796,-1.8654,-1.864,-1.8905,-1.8543,-1.8383,-1.8464,-1.8088,-1.788,-1.7792,-1.7704,-1.7494,-1.7188,-1.6842,-1.6619,-1.6517,-1.6469,-1.6449,-1.6463,-1.6558,-1.6429,-1.6151,-1.6049,-1.5859,-1.5642,-1.5642,-1.5642,-1.5635,-1.5581,-1.5841,-1.6227,0.0,0.0,0.0,0.0,0.0,0.0,0.0,0.0,0.0,0.0,0.0,0.0,0.0,0.0,0.0,0.0,0.0,0.0,0.0,-0.1128,-0.1905,-0.2151,-0.3379,-0.4127,-0.4341,-0.5189,-0.6626,-0.8639,-0.95,-1.0969,-1.3047,-1.3004,-1.2971,-1.2939,-1.2895,-1.2835,-1.2765,-1.2765,-1.2786,-1.2803,-1.2596,-1.2564,-1.258,-1.2096,-1.1721,0.0,0.0,0.0,-1.0985,-1.1446,-1.1879,-1.2373,-1.3124,-1.374,-1.4238,-1.4346,-1.4624,-1.5011,-1.5513,-1.5956,-1.629,-1.6988,-1.723,-1.7382,-1.7749,-1.7894,-1.788,-1.786,-1.7582,-1.7324,-1.727,-1.7175,-1.7182,-1.7446,-1.765,-1.7914,-1.8321,-1.8375,-1.8355,-1.8321,-1.8267,-1.8301,-1.8464,-1.8199,-1.8301,-1.8938,-1.8816,-1.8796,-1.9061,-1.8731,-1.859,-1.862,-1.8295,-1.8068,-1.7948,-1.786,-1.7629,-1.727,-1.6924,-1.6734,-1.668,-1.6571,-1.6401,-1.6157,-1.6144,-1.6031,-1.5851,-1.5698,-1.5683,-1.5791,-1.5737,-1.575,-1.5798,-1.5798,-1.5764,-1.5662,0.0,0.0,0.0,0.0,0.0,0.0,0.0,0.0,0.0,0.0,0.0,0.0,0.0,0.0,0.0,0.0,0.0,0.0,0.0,0.0328,0.0426,0.0,0.036,0.0366,-0.0092,-0.2214,-0.4372,-0.6349,-0.8534,-1.0677,-1.2651,-1.2547,-1.2553,-1.2645,-1.2542,-1.2493,-1.2493,-1.2498,-1.2558,-1.2618,-1.2275,-1.2134,-1.2085,-1.1618,0.0,0.0,0.0,-1.0655,-1.0694,-1.0924,-1.1387,-1.2029,-1.2669,-1.3514,-1.4183,-1.4482,-1.4889,-1.5371,-1.5974,-1.626,-1.6554,-1.7391,-1.7663,-1.7804,-1.8235,-1.8321,-1.8213,-1.7901,-1.7473,-1.71,-1.6951,-1.6693,-1.6646,-1.7093,-1.7202,-1.7439,-1.8036,-1.8124,-1.8199,-1.8335,-1.8233,-1.8301,-1.8728,-1.8511,-1.8531,-1.8972,-1.8993,-1.9061,-1.9203,-1.8609,-1.849,-1.8796,-1.8181,-1.7958,-1.8124,-1.7979,-1.7749,-1.7325,-1.7163,-1.7015,-1.688,-1.657,-1.6201,-1.5905,-1.5621,-1.5499,-1.5486,-1.5338,-1.5678,-1.6056,-1.5906,-1.594,-1.6062,-1.6069,-1.5974,-1.5805,0.0,0.0,0.0,0.0,0.0,0.0,0.0,0.0,0.0,0.0,0.0,0.0,0.0,0.0,0.0,0.0,0.0,0.0,-0.0075,0.0079,0.0082,0.0,0.0087,-0.0444,-0.1855,-0.233,-0.4252,-0.7722,-0.8331,-0.9692,-1.1911,-1.1971,-1.1966,-1.1911,-1.1971,-1.1949,-1.1873,-1.196,-1.1966,-1.1889,-1.171,-1.1639,-1.1607,0.0,0.0,0.0,-1.0759,-1.0766,-1.0935,-1.1171,-1.2234,-1.3494,-1.408,-1.4541,-1.4957,-1.5262,-1.5669,-1.6151,-1.6748,-1.7183,-1.7545,-1.807,-1.8235,-1.8262,-1.8355,-1.8233,-1.8036,-1.7616,-1.6998,-1.6456,-1.6191,-1.6171,-1.6341,-1.6788,-1.7331,-1.7901,-1.8518,-1.8694,-1.8776,-1.8816,-1.8782,-1.8816,-1.8918,-1.8864,-1.8905,-1.9128,-1.9047,-1.9094,-1.9359,-1.9044,-1.8936,-1.9094,-1.8639,-1.8194,-1.7853,-1.6856,-1.6382,-1.6269,-1.603,-1.5792,-1.5748,-1.5578,-1.5368,-1.5387,-1.5418,-1.5499,-1.5486,-1.5744,-1.5916,-1.5906,-1.5866,-1.5811,-1.5764,-1.5872,-1.5818,-1.5683,0.0,0.0,0.0,0.0,0.0,0.0,0.0,0.0,0.0,0.0,0.0,0.0,0.0,0.0,0.0,0.0,0.0,0.0,0.0,-0.1729,-0.1776,-0.1953,-0.1774,-0.2219,-0.3464,-0.3406,-0.4868,-0.8005,-0.7967,-0.9089,-1.1243,-1.1259,-1.1253,-1.1243,-1.1313,-1.139,-1.151,-1.1461,-1.1505,0.0,0.0,-1.1172,0.0,0.0,0.0,-1.0672,-1.078,-1.112,-1.1657,-1.2225,-1.3424,-1.4666,-1.5066,-1.5479,-1.5845,-1.6212,-1.6598,-1.6985,-1.7378,-1.7812,-1.8199,-1.8375,-1.8531,-1.8565,-1.8287,-1.8111,-1.7826,-1.7243,-1.6585,-1.6015,-1.5716,-1.573,-1.5934,-1.6381,-1.7032,-1.7704,-1.8375,-1.8708,-1.8938,-1.9061,-1.9203,-1.9291,-1.9291,-1.9217,-1.9237,-1.94,-1.9203,-1.9183,-1.9413,-1.9203,-1.9115,-1.9203,-1.883,-1.8349,-1.7638,-1.6744,-1.6193,-1.5979,-1.6045,-1.5908,-1.5463,-1.5574,-1.5308,-1.4764,-1.48,-1.4754,-1.4793,-1.5212,-1.5572,-1.5744,-1.5882,-1.5947,-1.5934,-1.5947,-1.5859,-1.5723,0.0,0.0,0.0,0.0,0.0,0.0,0.0,0.0,0.0,0.0,0.0,0.0,0.0,0.0,0.0,0.0,0.0,0.0,0.0,0.0,-0.4073,-0.4488,-0.413,-0.4255,-0.4959,-0.4993,-0.5972,-0.7993,-0.8059,-0.8908,-1.0672,-1.065,-1.0655,-1.0678,-1.0694,-1.0947,-1.1205,-1.1015,-1.1132,-1.1532,-1.0909,-1.0737,0.0,0.0,0.0,-1.0612,-1.0857,-1.1504,-1.251,-1.3484,-1.4527,-1.5518,-1.5934,-1.6341,-1.6781,-1.7216,-1.7541,-1.7806,-1.7968,-1.8301,-1.862,-1.862,-1.8708,-1.8674,-1.8199,-1.7948,-1.7589,-1.6822,-1.6185,-1.5676,-1.5377,-1.5337,-1.552,-1.6029,-1.6598,-1.727,-1.8091,-1.8552,-1.8905,-1.9217,-1.9501,-1.9664,-1.9664,-1.9535,-1.9522,-1.9644,-1.9413,-1.9325,-1.9447,-1.9291,-1.9169,-1.9115,-1.8747,-1.8247,-1.7369,-1.7025,-1.6564,-1.5979,-1.6675,-1.6413,-1.55,-1.5993,-1.5462,-1.4163,-1.399,-1.3811,-1.3813,-1.4389,-1.4963,-1.5587,-1.5964,-1.6178,-1.6266,-1.6151,-1.5988,-1.5811,0.0,0.0,0.0,0.0,0.0,0.0,0.0,0.0,0.0,0.0,-0.8056,-0.7665,0.0,0.0,0.0,0.0,0.0,0.0,0.0,0.0,0.0,-0.4309,-0.433,-0.5046,-0.6535,-0.6588,-0.7647,-0.9753,-0.973,-1.0064,-1.0767,-1.0744,-1.0744,-1.0773,-1.0886,-1.1011,-1.1023,-1.0866,-1.0839,-1.0764,-1.0429,-1.0367,-1.0476,0.0,0.0,0.0,-1.0982,-1.1664,-1.2539,-1.3709,-1.4823,-1.5799,-1.6725,-1.727,-1.7704,-1.8023,-1.8247,-1.8443,-1.8728,-1.8938,-1.9081,-1.9081,-1.9027,-1.8796,-1.8213,-1.7792,-1.7249,-1.6374,-1.5716,-1.5208,-1.4909,-1.4964,-1.5316,-1.6137,-1.6673,-1.7412,-1.8654,-1.8905,-1.9115,-1.9535,-1.9624,-1.9664,-1.9664,-1.9644,-1.9624,-1.9664,-1.961,-1.959,-1.9624,-1.9359,-1.9027,-1.8654,-1.8145,-1.7638,-1.722,-1.6727,-1.6317,-1.6089,-1.6317,-1.6009,-1.5087,-1.5063,-1.4556,-1.3763,-1.3825,0.0,-1.3929,-1.4825,-1.5263,-1.5593,-1.6078,-1.6212,-1.613,-1.6232,-1.6022,-1.5689,0.0,0.0,0.0,0.0,0.0,0.0,0.0,0.0,-0.9175,-0.8892,-0.8842,-0.8679,-0.8398,-0.8485,0.0,0.0,0.0,0.0,0.0,0.0,0.0,0.0,-0.677,-0.7291,-0.8346,-0.8454,-0.915,-1.0384,0.0,-1.0473,-1.0681,-1.0682,-1.0651,-1.0657,-1.0718,-1.0823,-1.0989,-1.0812,-1.082,-1.0996,-1.0575,-1.0498,0.0,0.0,0.0,0.0,-1.1058,-1.155,-1.2255,-1.3246,-1.4231,-1.5215,-1.7096,-1.7968,-1.8375,-1.8599,-1.8762,-1.8905,-1.8972,-1.9094,-1.9183,-1.9115,-1.8624,-1.8007,-1.7338,-1.6576,-1.5905,-1.5493,-1.4937,-1.4633,-1.4675,-1.4869,-1.516,-1.575,-1.6286,-1.7019,-1.8145,-1.8552,-1.8918,-1.9359,-1.9624,-1.9712,-1.9556,-1.961,-1.9624,-1.9556,-1.961,-1.9664,-1.9664,-1.9359,-1.8993,-1.8545,-1.8194,-1.7892,-1.742,-1.6921,-1.6628,-1.6297,-1.6484,-1.6059,-1.5093,-1.5104,-1.4602,-1.3678,-1.3624,-1.3627,-1.3958,-1.4631,-1.5163,-1.5593,-1.6105,-1.6307,-1.632,-1.6395,-1.6239,-1.5988,0.0,0.0,0.0,0.0,0.0,0.0,0.0,-0.7952,-0.8303,-0.8647,-0.9223,-0.9443,-0.9139,-0.8987,-0.8981,0.0,0.0,0.0,0.0,0.0,0.0,0.0,0.0,0.0,-0.9654,0.0,0.0,-1.073,-1.073,0.0,0.0,0.0,0.0,0.0,-1.0756,-1.0894,-1.1122,-1.0821,-1.0958,0.0,0.0,-1.0655,0.0,0.0,0.0,0.0,0.0,-1.1378,-1.1883,-1.2858,-1.3579,-1.4458,-1.6729,-1.7868,-1.8354,-1.861,-1.8784,-1.878,-1.8818,-1.8767,-1.8714,-1.8747,-1.7993,-1.7102,-1.6391,-1.5484,-1.4725,-1.4623,-1.4306,-1.4133,-1.4655,-1.4841,-1.5031,-1.5357,-1.5859,-1.6558,-1.7555,-1.8145,-1.8674,-1.9183,-1.959,-1.9732,-1.9501,-1.959,-1.961,-1.9481,-1.9556,-1.959,-1.9576,-1.9325,-1.8993,-1.8545,-1.8498,-1.8242,-1.7752,-1.7536,-1.7233,-1.6853,-1.6969,-1.6401,-1.5336,-1.5542,-1.5052,-1.3946,-1.3729,-1.3825,-1.4106,-1.4574,-1.5007,-1.5645,-1.6152,-1.6442,-1.6571,-1.6571,-1.6381,-1.6132,0.0,0.0,0.0,0.0,0.0,0.0,0.0,-0.5877,-0.7095,-0.7335,-0.8797,-0.9753,-0.9617,-0.9405,-0.9226,0.0,0.0,0.0,0.0,0.0,0.0,0.0,0.0,0.0,0.0,0.0,0.0,-1.1244,-1.1244,0.0,0.0,0.0,0.0,0.0,0.0,-1.1548,-1.1554,-1.1259,0.0,0.0,0.0,0.0,0.0,0.0,0.0,0.0,0.0,-1.127,-1.1664,-1.2799,-1.3313,-1.3783,-1.5074,-1.6135,-1.6902,-1.762,-1.7613,-1.7482,-1.8088,-1.7889,-1.7556,-1.756,-1.7086,-1.6428,-1.5751,-1.5173,-1.4694,-1.4495,-1.4313,-1.4257,-1.4675,-1.4753,-1.4903,-1.5343,-1.5683,-1.6354,-1.765,-1.8124,-1.8599,-1.9325,-1.9569,-1.9664,-1.9644,-1.9664,-1.9664,-1.9644,-1.9522,-1.9393,-1.9257,-1.9217,-1.8993,-1.8545,-1.8409,-1.8267,-1.8033,-1.7992,-1.7925,-1.7797,-1.7749,-1.7046,-1.5621,-1.6106,-1.5642,-1.4352,-1.4725,-1.4892,0.0,-1.5234,-1.5563,-1.5692,-1.6299,-1.6592,-1.6727,-1.6727,-1.633,-1.5775,0.0,0.0,0.0,0.0,0.0,0.0,-0.4281,-0.5644,-0.6869,-0.7451,-0.8939,-1.0037,-1.0374,-1.0216,-0.9796,0.0,0.0,0.0,0.0,0.0,0.0,0.0,0.0,0.0,0.0,0.0,-1.1011,-1.175,-1.175,0.0,0.0,0.0,0.0,0.0,0.0,-1.1701,-1.1626,-1.155,0.0,0.0,0.0,0.0,0.0,0.0,0.0,0.0,0.0,0.0,-1.1582,-1.1999,-1.2354,-1.2718,-1.316,-1.3744,-1.4662,-1.6255,-1.6802,-1.6908,-1.7451,-1.7538,-1.7409,-1.7391,-1.6693,-1.5854,-1.5111,-1.4168,-1.3603,-1.3881,-1.3784,-1.3916,-1.4691,-1.4801,-1.4828,-1.5099,-1.5248,-1.5669,-1.6653,-1.7046,-1.7582,-1.8511,-1.883,-1.9061,-1.9237,-1.9345,-1.9379,-1.9379,-1.9325,-1.9183,-1.8959,-1.8938,-1.8776,-1.8409,-1.8355,-1.8287,-1.8233,-1.8145,-1.8023,-1.786,-1.7684,-1.71,-1.622,-1.6218,-1.576,-1.4856,-1.4959,-1.5146,0.0,-1.5359,-1.5753,-1.6343,-1.6455,-1.6673,-1.689,-1.689,-1.6691,-1.6227,0.0,0.0,0.0,0.0,0.0,-0.4134,-0.451,-0.5899,-0.7143,-0.7817,-0.9309,-1.0531,-1.1057,-1.0808,-1.0364,-0.9736,0.0,0.0,0.0,0.0,0.0,0.0,0.0,0.0,0.0,0.0,-1.1267,-1.2128,-1.2128,-1.2149,0.0,0.0,-1.1999,-1.1743,0.0,0.0,0.0,0.0,0.0,0.0,0.0,0.0,0.0,0.0,0.0,0.0,0.0,0.0,0.0,0.0,0.0,-1.1889,-1.1928,-1.2275,-1.3024,-1.4856,-1.5663,-1.5884,-1.6403,-1.6708,-1.6674,-1.6656,-1.5988,-1.5077,-1.4389,-1.3468,-1.294,-1.3584,-1.3466,-1.3555,-1.4593,-1.458,-1.4481,-1.4593,-1.4766,-1.5154,-1.585,-1.63,-1.6806,-1.7565,-1.8012,-1.8295,-1.8523,-1.8889,-1.9128,-1.9128,-1.9061,-1.8905,-1.864,-1.8552,-1.8409,-1.8199,-1.8179,-1.8145,-1.8057,-1.7948,-1.7846,-1.7724,-1.7473,-1.7029,-1.6485,-1.6346,-1.6026,-1.5481,-1.5459,-1.5667,0.0,-1.5668,-1.6077,-1.6734,-1.6578,-1.6707,-1.6978,-1.6978,-1.6806,-1.6483,0.0,0.0,0.0,0.0,0.0,0.0,0.0,-0.6422,-0.7869,-0.8452,-1.0086,-1.1233,-1.1451,-1.1109,-1.0839,-1.1036,0.0,0.0,0.0,0.0,0.0,0.0,0.0,0.0,0.0,0.0,-1.1615,-1.2291,-1.2291,-1.2359,-1.2494,-1.2352,-1.2056,-1.1663,0.0,0.0,0.0,0.0,0.0,0.0,0.0,0.0,0.0,0.0,0.0,0.0,0.0,0.0,0.0,0.0,0.0,0.0,0.0,-1.1987,-1.2488,-1.3695,-1.4017,-1.426,-1.5189,-1.514,-1.4928,-1.5162,-1.4771,-1.4195,-1.3716,-1.3232,-1.3045,-1.3602,-1.3406,-1.3323,-1.4088,-1.4071,-1.3786,-1.3523,-1.4172,-1.4938,-1.5516,-1.625,-1.6708,-1.6726,-1.7235,-1.7619,-1.7602,-1.8503,-1.8993,-1.8993,-1.8708,-1.8477,-1.8335,-1.8036,-1.786,-1.786,-1.786,-1.7724,-1.7433,-1.7426,-1.7426,-1.7426,-1.727,-1.6876,-1.6457,-1.6835,-1.6663,-1.6124,-1.6503,-1.6644,0.0,-1.6429,-1.6483,-1.6734,-1.6578,-1.6707,-1.6978,-1.6978,-1.6663,-1.6105,0.0,0.0,0.0,0.0,0.0,0.0,0.0,-0.6609,-0.7841,-0.829,-0.9794,-1.1044,-1.1604,-1.1428,-1.1409,-1.2022,0.0,0.0,0.0,0.0,0.0,0.0,0.0,0.0,0.0,0.0,-1.1911,-1.2589,-1.2698,-1.2773,-1.2813,-1.2344,-1.207,-1.1811,-1.1397,-1.1058,0.0,0.0,0.0,0.0,0.0,0.0,-1.1047,0.0,0.0,0.0,0.0,0.0,0.0,0.0,0.0,0.0,0.0,0.0,0.0,-1.2511,-1.3068,-1.3548,-1.4128,-1.4294,-1.4363,-1.4363,-1.4211,-1.3944,-1.3461,-1.3113,-1.2974,-1.3243,-1.3115,-1.3151,-1.3727,-1.3782,-1.3774,-1.3871,-1.4053,-1.4304,-1.457,-1.5112,-1.5733,-1.6376,-1.7608,-1.8457,-1.8383,-1.8538,-1.8674,-1.8674,-1.8498,-1.8321,-1.8179,-1.7968,-1.7812,-1.7717,-1.7616,-1.7514,-1.7419,-1.7419,-1.7365,-1.7263,-1.7216,-1.7035,-1.6835,-1.69,-1.6758,-1.635,-1.6509,-1.6537,-1.6435,-1.6239,-1.6388,-1.6734,-1.6578,-1.6707,-1.6978,-1.6978,-1.6873,-1.6643,0.0,0.0,0.0,0.0,0.0,0.0,0.0,-0.8076,-0.8875,-0.9419,-1.0281,-1.1196,-1.1906,-1.1697,-1.1815,-1.2467,0.0,0.0,0.0,0.0,0.0,0.0,0.0,0.0,0.0,-1.1726,-1.2022,-1.282,-1.2915,-1.2963,-1.2963,-1.2515,-1.2074,-1.1726,-1.1488,-1.117,0.0,0.0,0.0,0.0,0.0,0.0,-1.1107,0.0,0.0,0.0,0.0,0.0,0.0,0.0,0.0,0.0,0.0,0.0,0.0,0.0,-1.239,-1.2944,-1.3444,-1.3754,-1.3939,-1.3955,-1.389,-1.3722,-1.333,-1.3121,-1.3127,-1.3091,-1.3055,-1.308,-1.3317,-1.3211,-1.3169,-1.3327,-1.3405,-1.3548,-1.378,-1.4629,-1.5619,-1.6696,-1.7622,-1.8208,-1.8498,-1.8477,-1.8443,-1.8443,-1.8213,-1.8023,-1.7935,-1.7512,-1.7358,-1.748,-1.7385,-1.7283,-1.7168,-1.7222,-1.7175,-1.7026,-1.7087,-1.7066,-1.6978,-1.6978,-1.6842,-1.6605,-1.6544,-1.6469,0.0,-1.6164,-1.6347,-1.6734,-1.6578,-1.6707,-1.6978,-1.6978,-1.6944,-1.6876,0.0,0.0,0.0,0.0,0.0,0.0,0.0,0.0,0.0,-1.1264,-1.1396,-1.1619,-1.2182,-1.2013,-1.2033,0.0,0.0,0.0,0.0,0.0,0.0,0.0,0.0,0.0,-1.2474,-1.1858,-1.2079,-1.2963,-1.2983,-1.2996,-1.301,-1.255,-1.2062,-1.1513,-1.1884,-1.164,0.0,0.0,0.0,0.0,-1.134,-1.1434,0.0,0.0,0.0,0.0,0.0,0.0,0.0,0.0,0.0,0.0,0.0,0.0,0.0,0.0,0.0,0.0,0.0,-1.3346,-1.358,-1.3792,-1.3694,-1.3488,-1.3243,-1.334,0.0,-1.3164,-1.3101,-1.306,-1.2951,-1.2533,-1.2156,-1.2194,-1.2477,-1.281,-1.3177,-1.4588,-1.6047,-1.7291,-1.7305,-1.7412,-1.8111,-1.8247,-1.8321,-1.8321,-1.7894,-1.754,-1.754,-1.6827,-1.6563,-1.7089,-1.7075,-1.6941,-1.6768,-1.691,-1.691,-1.6768,-1.691,-1.6978,-1.6978,-1.6866,-1.6772,0.0,-1.6469,-1.6394,-1.6368,-1.6191,-1.6341,-1.672,-1.6564,-1.6693,-1.6965,-1.6951,-1.6856,-1.6734,0.0,0.0,0.0,0.0,0.0,0.0,0.0,0.0,0.0,0.0,-1.1211,-1.1619,-1.1762,-1.202,-1.2223,0.0,0.0,0.0,0.0,0.0,0.0,0.0,0.0,0.0,-1.2332,-1.2417,-1.2619,-1.2963,-1.286,-1.286,-1.2881,-1.1946,-1.1476,-1.1423,-1.1311,-1.1382,0.0,0.0,0.0,0.0,-1.0958,-1.1003,0.0,0.0,0.0,0.0,-1.1543,-1.1543,0.0,0.0,0.0,0.0,0.0,0.0,0.0,0.0,-1.3049,-1.3234,-1.362,0.0,-1.2776,-1.2743,-1.2895,-1.2993,0.0,-1.3099,-1.3395,-1.3043,-1.2893,-1.2847,-1.2916,-1.2305,-1.202,-1.239,-1.2524,-1.2692,-1.2963,-1.4677,-1.6219,-1.7255,-1.8021,-1.8397,-1.8443,-1.8355,-1.8321,-1.8321,-1.7894,-1.7425,-1.6994,-1.6612,-1.6243,-1.5917,-1.6234,-1.6571,-1.6931,-1.6965,-1.6965,-1.6924,-1.6538,-1.6341,-1.6341,-1.5812,-1.5484,-1.534,-1.5195,-1.5278,-1.557,-1.5505,-1.587,-1.6558,-1.6415,-1.6544,-1.6788,-1.6673,-1.6605,-1.6578,0.0,0.0,0.0,0.0,0.0,0.0,0.0,0.0,0.0,0.0,0.0,0.0,0.0,0.0,0.0,0.0,0.0,0.0,0.0,0.0,0.0,0.0,0.0,-1.2149,-1.2379,-1.2542,-1.2687,-1.2734,-1.2712,-1.2643,-1.2524,-1.179,-1.1392,-1.1392,-1.1195,-1.1306,0.0,0.0,0.0,0.0,-1.1208,0.0,0.0,0.0,0.0,0.0,-1.1543,-1.1543,0.0,-1.1543,-1.1632,-1.191,0.0,0.0,0.0,0.0,-1.2957,-1.315,-1.3352,-1.3164,-1.2914,-1.2909,-1.2858,-1.2786,-1.271,-1.3049,-1.3349,-1.3141,-1.2997,-1.2893,-1.2847,-1.2354,-1.1998,-1.2319,-1.2368,-1.2742,-1.3767,-1.5045,-1.6432,-1.7767,-1.804,-1.8227,-1.8165,-1.7686,-1.7417,-1.7417,-1.7028,-1.6564,-1.6346,-1.5766,-1.5505,-1.5393,-1.5326,-1.5679,-1.6452,-1.6839,-1.6944,-1.6876,-1.6348,-1.6034,-1.6028,-1.5368,-1.4922,-1.4788,-1.4715,-1.4906,-1.5286,-1.5351,-1.5809,-1.6524,-1.6517,-1.6612,-1.6741,-1.6659,-1.6537,-1.6422,0.0,0.0,0.0,0.0,0.0,0.0,0.0,0.0,0.0,0.0,0.0,0.0,0.0,0.0,0.0,0.0,0.0,0.0,0.0,0.0,0.0,0.0,-1.2235,-1.2359,-1.2501,-1.2471,-1.245,-1.2514,-1.2561,-1.2402,-1.2198,-1.1789,-1.1538,-1.1455,-1.1346,-1.1334,0.0,0.0,0.0,0.0,-1.1593,0.0,0.0,0.0,0.0,0.0,0.0,0.0,0.0,-1.1543,-1.1554,-1.1587,-1.1675,0.0,0.0,0.0,0.0,0.0,-1.3134,-1.3345,-1.3435,-1.3372,-1.313,-1.2787,-1.2738,-1.301,-1.3262,-1.3222,-1.3147,-1.3026,-1.28,-1.2404,-1.2085,-1.221,-1.2286,-1.2998,-1.4843,-1.5546,-1.6366,-1.7973,-1.7657,-1.7454,-1.7621,-1.6871,-1.6316,-1.6297,-1.5918,-1.5692,-1.5584,-1.4803,-1.4551,-1.5072,-1.4657,-1.4814,-1.5638,-1.6387,-1.659,-1.6437,-1.5937,-1.5821,-1.5776,-1.5044,-1.471,-1.4583,-1.466,0.0,-1.5187,-1.5434,-1.5881,-1.653,-1.6666,-1.6727,-1.6748,-1.672,-1.6544,-1.6307,0.0,0.0,0.0,0.0,0.0,0.0,0.0,0.0,0.0,0.0,0.0,0.0,0.0,0.0,0.0,0.0,0.0,0.0,0.0,0.0,0.0,-1.1572,-1.2036,-1.2359,-1.2501,-1.2358,-1.242,-1.2514,-1.2174,-1.2039,-1.2079,-1.1743,-1.1621,-1.1732,-1.1709,-1.1842,-1.1986,0.0,0.0,-1.1248,-1.1104,0.0,0.0,0.0,0.0,0.0,0.0,0.0,0.0,-1.1543,-1.1794,-1.2136,-1.2134,0.0,0.0,0.0,0.0,0.0,-1.4437,-1.4329,-1.3951,-1.3045,-1.2994,-1.3057,-1.2289,-1.264,-1.3089,-1.2864,-1.2893,-1.2945,-1.2904,-1.2606,-1.2341,-1.246,-1.2814,-1.3465,-1.4654,-1.5267,-1.5961,-1.6751,-1.7042,-1.7006,-1.6699,-1.6606,-1.6407,-1.6316,-1.5918,-1.5476,-1.4935,-1.459,-1.4241,-1.3919,-1.4241,-1.444,-1.4633,-1.5277,-1.5536,-1.5301,-1.4895,-1.4829,-1.5019,-1.4379,-1.4092,-1.4065,0.0,-1.4594,-1.4688,-1.5233,-1.5881,-1.6524,-1.6544,-1.6632,-1.6734,-1.6605,-1.6449,-1.6293,0.0,0.0,0.0,0.0,0.0,0.0,0.0,0.0,0.0,0.0,0.0,0.0,0.0,0.0,0.0,0.0,0.0,0.0,0.0,0.0,-1.1981,-1.1603,-1.1811,-1.1933,-1.192,-1.1955,-1.2074,-1.2113,-1.2138,-1.2102,-1.2016,-1.1757,-1.15,-1.1345,-1.1345,-1.1329,-1.132,-1.107,-1.0987,-1.0998,0.0,0.0,0.0,0.0,0.0,0.0,0.0,0.0,0.0,0.0,-1.1715,-1.1894,-1.1928,0.0,0.0,0.0,0.0,0.0,-1.3648,-1.3908,-1.3891,-1.301,-1.3176,-1.3366,-1.3,-1.2897,-1.2903,-1.3074,-1.2904,-1.2825,-1.3045,-1.2903,-1.2727,-1.2977,-1.3357,-1.3918,-1.4684,-1.5197,-1.5729,-1.6385,-1.6362,-1.6163,-1.605,-1.5569,-1.5252,-1.5189,-1.5006,-1.4611,-1.4388,-1.4159,-1.3819,-1.3602,-1.3819,-1.3919,-1.3919,-1.4167,-1.4522,-1.5093,-1.4562,-1.4455,-1.4776,-1.4094,-1.403,-1.4267,0.0,-1.4676,-1.4994,-1.5417,-1.5953,-1.6537,-1.6707,-1.6707,-1.6598,-1.6368,-1.6246,-1.6164,0.0,0.0,0.0,0.0,0.0,0.0,0.0,0.0,0.0,0.0,0.0,0.0,0.0,0.0,0.0,0.0,0.0,0.0,0.0,-1.1595,-1.1601,-1.1528,-1.1415,-1.1394,-1.1482,-1.1655,-1.1724,-1.1744,-1.2124,-1.2309,-1.2194,-1.19,-1.152,-1.1085,-1.1031,-1.09,-1.0737,-1.077,-1.078,-1.0791,0.0,0.0,0.0,0.0,0.0,0.0,0.0,0.0,0.0,0.0,0.0,0.0,0.0,0.0,0.0,-1.1987,-1.2355,-1.2722,-1.2841,-1.3246,-1.3662,-1.3275,-1.3342,-1.3545,-1.3561,-1.3067,-1.2798,-1.3305,-1.3106,-1.2864,-1.3158,-1.3151,-1.3124,-1.3455,-1.3787,-1.4238,-1.4627,-1.5049,-1.5526,-1.6127,-1.5703,-1.531,-1.5356,-1.4707,-1.4347,-1.432,-1.4097,-1.3955,-1.3955,-1.3732,-1.3602,-1.3602,-1.368,-1.3669,-1.3564,-1.3543,-1.3898,-1.463,-1.4352,-1.432,-1.4635,-1.4297,-1.4343,-1.4682,-1.4813,-1.5131,-1.5351,-1.5743,-1.6168,-1.6605,-1.6876,-1.6815,-1.6544,-1.6279,-1.6164,-1.611,0.0,0.0,0.0,0.0,0.0,0.0,0.0,0.0,0.0,0.0,0.0,0.0,0.0,0.0,0.0,0.0,0.0,0.0,0.0,-1.1138,-1.1038,-1.0716,-1.0524,-1.0918,-1.1749,-1.1599,-1.1607,-1.187,-1.2239,-1.2579,-1.2814,-1.2352,-1.1938,-1.1574,-1.1346,-1.1058,-1.0742,-1.0857,-1.0905,-1.0916,-1.1041,0.0,0.0,0.0,0.0,0.0,0.0,0.0,0.0,0.0,0.0,0.0,0.0,0.0,-1.1987,-1.1987,-1.2074,-1.2383,-1.2959,-1.3191,-1.3393,-1.377,-1.3519,-1.3011,-1.2985,-1.271,-1.2672,-1.3107,-1.3118,-1.3042,-1.3132,-1.3221,-1.3466,-1.3722,-1.3966,-1.4211,-1.4434,-1.4787,-1.4984,-1.5116,-1.5116,-1.4912,-1.4803,-1.4559,-1.4445,-1.4336,-1.4097,-1.3955,-1.3955,-1.3732,-1.3602,-1.3602,-1.3912,-1.3955,-1.3433,-1.383,-1.3768,-1.3357,-1.3985,-1.4361,-1.4501,-1.5259,-1.5436,-1.5286,-1.5931,-1.589,-1.5499,-1.6303,-1.663,-1.6748,-1.6917,-1.6876,-1.6714,-1.6551,-1.6408,-1.6252,0.0,0.0,0.0,0.0,0.0,0.0,0.0,0.0,0.0,0.0,0.0,0.0,0.0,0.0,0.0,0.0,0.0,0.0,0.0,-1.0625,-1.0644,-1.0634,-1.0514,-1.071,-1.108,-1.1317,-1.1666,-1.2222,-1.2617,-1.2716,-1.2547,-1.2216,-1.1748,-1.1188,-1.1096,-1.0976,-1.0851,-1.09,-1.0965,-1.1041,-1.1161,-1.1232,0.0,0.0,0.0,0.0,0.0,0.0,0.0,0.0,-1.1623,-1.1732,-1.1623,-1.1775,-1.196,-1.1813,-1.1906,-1.2146,-1.2305,-1.2517,-1.2853,-1.3046,-1.2915,-1.2778,-1.3311,-1.3134,-1.3069,-1.3395,-1.3493,-1.3515,-1.3515,-1.3526,-1.364,-1.3955,-1.4211,-1.439,-1.4488,-1.47,-1.4841,-1.4814,-1.4744,-1.4646,-1.4477,-1.4347,-1.4249,-1.4205,-1.3988,-1.3879,-1.395,-1.4052,-1.4135,-1.4135,-1.4534,-1.4677,-1.4469,-1.4458,-1.4351,-1.4147,-1.4179,-1.4578,-1.5246,-1.5558,-1.5851,-1.605,-1.6314,-1.6341,-1.615,-1.6563,-1.6748,-1.6748,-1.6707,-1.6659,-1.6578,-1.6334,-1.6151,-1.5995,0.0,0.0,0.0,0.0,0.0,0.0,0.0,0.0,0.0,0.0,0.0,0.0,0.0,0.0,0.0,0.0,0.0,0.0,-1.0259,-1.034,-1.0438,-1.0552,-1.0639,-1.065,-1.0846,-1.1204,-1.165,-1.2183,-1.2743,-1.2808,-1.2406,-1.2085,-1.165,-1.1139,-1.1031,-1.0998,-1.1031,-1.1031,-1.1079,-1.1166,-1.1281,-1.1351,0.0,0.0,0.0,0.0,0.0,0.0,0.0,0.0,-1.1596,-1.1688,-1.1596,-1.171,-1.1862,-1.1775,-1.1835,-1.1928,-1.1884,-1.2058,-1.227,-1.2346,-1.2395,-1.2617,-1.3412,-1.3327,-1.3352,-1.3749,-1.3836,-1.3819,-1.3743,-1.3694,-1.3754,-1.4031,-1.4249,-1.4417,-1.4488,-1.4646,-1.4727,-1.4673,-1.4532,-1.4417,-1.4336,-1.4178,-1.408,-1.408,-1.3896,-1.3927,-1.4219,-1.4355,-1.4452,-1.4657,-1.5124,-1.5239,-1.5032,-1.4961,-1.4962,-1.5056,-1.4741,-1.497,-1.5647,-1.5943,-1.6161,-1.6524,-1.6571,-1.6592,-1.6605,-1.6761,-1.6795,-1.6741,-1.6632,-1.6537,-1.6422,-1.6171,-1.5988,-1.5818,0.0,0.0,0.0,0.0,0.0,0.0,0.0,0.0,0.0,0.0,0.0,0.0,0.0,0.0,0.0,0.0,0.0,0.0,-1.0384,-1.0384,-1.0438,-1.0629,-1.0634,-1.0726,-1.109,-1.1449,-1.1699,-1.1824,-1.2536,-1.2765,-1.252,-1.2042,-1.1754,-1.1618,-1.1264,-1.1166,-1.1275,-1.127,-1.127,-1.1286,-1.1406,-1.1525,-1.1645,0.0,0.0,0.0,0.0,0.0,0.0,0.0,-1.1558,-1.1498,-1.1743,-1.1737,-1.1688,-1.1917,-1.1911,-1.1846,-1.1955,-1.1819,-1.1699,-1.1933,-1.2085,-1.2368,-1.308,-1.3243,-1.345,-1.4178,-1.4124,-1.3885,-1.3651,-1.3705,-1.3819,-1.3939,-1.4053,-1.4222,-1.4461,-1.4504,-1.4548,-1.4657,-1.4461,-1.432,-1.432,-1.4097,-1.3955,-1.3955,-1.3852,-1.3995,-1.4524,-1.4515,-1.4657,-1.5283,-1.555,-1.5404,-1.4892,-1.5221,-1.5422,-1.5712,-1.5712,-1.5641,-1.5512,-1.631,-1.6666,-1.653,-1.6686,-1.6754,-1.6761,-1.6917,-1.689,-1.6748,-1.6748,-1.6564,-1.6293,-1.6137,-1.5981,-1.5791,0.0,0.0,0.0,0.0,0.0,0.0,0.0,0.0,0.0,0.0,0.0,0.0,0.0,0.0,0.0,0.0,0.0,0.0,-0.9392,-0.9621,-0.9907,-1.0017,-1.0271,-1.0563,-1.084,-1.1199,-1.1688,-1.2324,-1.2536,-1.2433,-1.2025,-1.1797,-1.158,-1.1373,-1.127,-1.1291,-1.1395,-1.1308,-1.1319,-1.1411,-1.1531,-1.1552,-1.152,0.0,0.0,0.0,0.0,0.0,0.0,0.0,0.0,0.0,-1.1667,-1.1841,-1.1993,-1.19,-1.2025,-1.2145,-1.1928,-1.2004,-1.2178,-1.2335,-1.2591,-1.2971,-1.3602,-1.3684,-1.3781,-1.4336,-1.4124,-1.3841,-1.3852,-1.3678,-1.3597,-1.3803,-1.3934,-1.4069,-1.4222,-1.432,-1.439,-1.4417,-1.4292,-1.4151,-1.4069,-1.3928,-1.3836,-1.3836,-1.4047,-1.4332,-1.4625,-1.5257,-1.571,-1.5815,-1.6163,-1.6217,-1.6012,-1.5924,-1.5978,-1.607,-1.607,-1.6312,-1.6574,-1.6765,-1.689,-1.6849,-1.689,-1.691,-1.691,-1.6842,-1.6788,-1.6727,-1.6524,-1.6388,-1.6279,-1.6015,-1.5825,-1.5669,0.0,0.0,0.0,0.0,0.0,0.0,0.0,0.0,0.0,0.0,-1.0748,-1.084,0.0,0.0,0.0,0.0,0.0,0.0,0.0,-0.9621,-0.9701,-1.0051,-1.0346,-1.059,-1.0878,-1.1232,-1.1618,-1.2031,-1.2178,-1.2053,-1.1677,-1.1743,-1.1699,-1.1563,-1.1661,-1.1716,-1.1732,-1.1607,-1.152,-1.1471,-1.1639,-1.1634,-1.1547,0.0,0.0,0.0,0.0,0.0,0.0,0.0,0.0,0.0,-1.1563,-1.1716,-1.1879,-1.183,-1.1906,-1.1993,-1.1966,-1.208,-1.2286,-1.2596,-1.2944,-1.3368,-1.3966,-1.408,-1.4151,-1.445,-1.4151,-1.3874,-1.3944,-1.3705,-1.3558,-1.3754,-1.3885,-1.3983,-1.4053,-1.4167,-1.4238,-1.4178,-1.4069,-1.3972,-1.3896,-1.3781,-1.3823,-1.4035,-1.4235,-1.4511,-1.5108,-1.5672,-1.6152,-1.6361,-1.644,-1.6524,-1.6524,-1.6232,-1.6157,-1.6307,-1.6246,-1.6422,-1.6802,-1.6802,-1.6829,-1.689,-1.689,-1.689,-1.6876,-1.672,-1.6625,-1.6558,-1.6381,-1.6273,-1.6185,-1.5879,-1.5716,-1.5601,0.0,0.0,0.0,0.0,0.0,0.0,0.0,0.0,0.0,0.0,-1.0753,-1.0905,0.0,0.0,0.0,0.0,0.0,0.0,0.0,0.0,-1.0115,-1.0792,-1.0857,-1.1015,-1.1365,-1.1699,-1.1755,-1.1515,-1.1702,-1.1672,-1.1549,-1.1808,-1.1987,-1.2031,-1.2433,-1.2466,-1.2161,-1.219,-1.193,-1.1476,-1.171,-1.1732,-1.1645,-1.1868,0.0,0.0,0.0,0.0,0.0,0.0,0.0,0.0,-1.1287,-1.1314,-1.1378,-1.1668,-1.1694,-1.1645,-1.2058,-1.2107,-1.2178,-1.277,-1.3216,-1.3651,-1.4222,-1.4434,-1.4504,-1.4488,-1.4211,-1.3955,-1.3955,-1.3765,-1.364,-1.3754,-1.3857,-1.3928,-1.3939,-1.4037,-1.4069,-1.3972,-1.3857,-1.3787,-1.3787,-1.3678,-1.3813,-1.4329,-1.4325,-1.477,-1.5795,-1.5892,-1.621,-1.6624,-1.6578,-1.6503,-1.6503,-1.6225,-1.6157,-1.6307,-1.6157,-1.6225,-1.6483,-1.6497,-1.6592,-1.6748,-1.6734,-1.6734,-1.6734,-1.6571,-1.6429,-1.6307,-1.6293,-1.6205,-1.6049,-1.5764,-1.5655,-1.5594,0.0,0.0,0.0,0.0,0.0,0.0,0.0,0.0,0.0,0.0,0.0,0.0,0.0,0.0,0.0,0.0,0.0,0.0,0.0,0.0,-1.2542,-1.4136,-1.3471,-1.3186,-1.3561,-1.3572,-1.3533,-1.3363,-1.219,-1.1509,-1.1549,-1.1732,-1.2009,-1.2365,-1.3825,-1.36,-1.2239,-1.3362,-1.2942,-1.1465,-1.1618,-1.1601,-1.1509,-1.1656,-1.1623,0.0,0.0,0.0,0.0,0.0,0.0,0.0,-0.9302,-0.9578,-1.0021,-1.1397,-1.2047,-1.2286,-1.2194,-1.2292,-1.2536,-1.3037,-1.3651,-1.4211,-1.4532,-1.4548,-1.4477,-1.4379,-1.414,-1.3955,-1.3955,-1.3765,-1.3613,-1.364,-1.3662,-1.3716,-1.3809,-1.3847,-1.3885,-1.395,-1.3857,-1.3787,-1.3787,-1.3678,-1.3774,-1.4203,-1.4689,-1.5148,-1.5661,-1.6161,-1.6469,-1.6571,-1.6429,-1.6354,-1.6354,-1.6171,-1.6157,-1.6307,-1.6157,-1.6117,-1.6178,-1.63,-1.6497,-1.6637,-1.6625,-1.6639,-1.6727,-1.6463,-1.6341,-1.63,-1.6178,-1.611,-1.6056,-1.5872,-1.5805,-1.5764,0.0,0.0,0.0,0.0,0.0,0.0,0.0,0.0,0.0,0.0,0.0,0.0,0.0,0.0,0.0,0.0,0.0,0.0,0.0,0.0,-1.345,-1.5647,-1.5333,-1.5135,-1.5481,-1.5545,-1.5421,-1.5268,-1.4482,-1.4231,-1.4469,-1.4828,-1.5242,-1.5601,-1.6448,-1.6223,-1.5141,-1.4689,-1.3841,-1.2787,-1.1945,-1.1563,-1.1471,-1.159,-1.1525,-1.1373,-1.1522,0.0,0.0,0.0,0.0,0.0,0.0,0.0,-1.0587,-1.149,-1.1949,-1.2205,-1.2248,-1.2477,-1.2873,-1.358,-1.408,-1.4445,-1.4559,-1.4548,-1.4477,-1.4347,-1.4124,-1.3939,-1.3885,-1.3727,-1.3602,-1.3602,-1.3651,-1.3694,-1.37,-1.3749,-1.3787,-1.3787,-1.3738,-1.37,-1.37,-1.3591,-1.3703,-1.4157,-1.445,-1.4867,-1.5615,-1.5914,-1.611,-1.6422,-1.6347,-1.6307,-1.6307,-1.6157,-1.6123,-1.6198,-1.6042,-1.5974,-1.5981,-1.613,-1.6327,-1.6537,-1.6456,-1.6463,-1.6524,-1.6293,-1.6198,-1.6191,-1.611,-1.6083,-1.6062,-1.5906,-1.5811,-1.5716,0.0,0.0,0.0,0.0,0.0,0.0,0.0,0.0,0.0,0.0,0.0,0.0,0.0,0.0,0.0,0.0,0.0,0.0,0.0,0.0,0.0,-1.7302,-1.7163,-1.7111,-1.723,-1.7471,-1.748,-1.723,-1.7759,-1.8252,-1.8792,-1.8559,-1.8686,-1.9086,-1.924,-1.8914,-1.8182,-1.608,-1.4868,-1.4102,-1.2365,-1.1531,-1.1433,-1.1536,-1.1438,-1.1259,-1.1357,-1.134,-1.1286,-1.103,0.0,0.0,0.0,0.0,-1.1182,-1.1453,-1.1721,-1.1895,-1.2232,-1.2645,-1.3194,-1.4097,-1.439,-1.4477,-1.4504,-1.4488,-1.4434,-1.432,-1.4124,-1.3961,-1.3863,-1.3732,-1.3635,-1.3635,-1.3722,-1.3743,-1.3624,-1.3711,-1.3743,-1.3618,-1.3586,-1.358,-1.3602,-1.3477,-1.3598,-1.433,-1.4206,-1.447,-1.5561,-1.5561,-1.5662,-1.6065,-1.6065,-1.5964,-1.5964,-1.5917,-1.5956,-1.5977,-1.5927,-1.5866,-1.5893,-1.5995,-1.6137,-1.6307,-1.6279,-1.6286,-1.63,-1.6144,-1.6083,-1.6083,-1.6083,-1.6083,-1.6069,-1.594,-1.5818,-1.5696,0.0,0.0,0.0,0.0,0.0,0.0,0.0,0.0,0.0,0.0,-1.2522,-1.2075,0.0,0.0,0.0,0.0,0.0,0.0,0.0,0.0,0.0,-2.1139,-1.9835,-1.917,-1.9442,-1.9586,-1.9586,-1.9442,-2.1326,-2.2673,-2.3519,-1.9878,-1.8525,-1.9257,-2.0341,-1.9888,-1.8252,-1.7256,-1.5815,-1.4183,-1.2266,-1.1406,-1.1297,-1.1313,-1.1237,-1.1128,-1.1145,-1.1204,-1.1013,-0.9347,-0.8875,0.0,0.0,0.0,-0.945,-1.1087,-1.1721,-1.1873,-1.2129,-1.2759,-1.3504,-1.4151,-1.4336,-1.4379,-1.4477,-1.4417,-1.4309,-1.4195,-1.414,-1.4108,-1.4097,-1.3912,-1.3765,-1.3765,-1.3776,-1.3743,-1.3624,-1.3711,-1.3743,-1.3618,-1.351,-1.3488,-1.3597,-1.3395,-1.3677,-1.4711,-1.4668,-1.5038,-1.6017,-1.5611,-1.5405,-1.5405,-1.5006,-1.4707,-1.4707,-1.5071,-1.5263,-1.5379,-1.573,-1.5927,-1.6049,-1.5934,-1.6042,-1.63,-1.6171,-1.6185,-1.63,-1.6144,-1.6083,-1.6083,-1.6083,-1.6083,-1.6083,-1.6056,-1.6042,-1.6001,0.0,0.0,0.0,0.0,0.0,0.0,0.0,0.0,0.0,0.0,0.0,-1.244,0.0,0.0,0.0,-1.0829,0.0,0.0,0.0,0.0,0.0,-2.0246,-2.0523,-2.082,-2.1261,-2.1277,-2.1348,-2.1455,-2.2349,-2.3397,-2.4463,-2.256,-2.2183,-2.3077,-2.3069,-2.2626,-2.18,-1.9553,-1.7655,-1.5883,-1.3771,-1.2454,-1.1701,-1.2656,-1.2466,-1.1857,-1.2692,-1.2276,-1.1354,-1.0349,-1.0068,-1.0117,-1.018,0.0,0.0,0.0,-1.1667,-1.1917,-1.2352,-1.2884,-1.3433,-1.3901,-1.4069,-1.4151,-1.4265,-1.4249,-1.4222,-1.4238,-1.4292,-1.4276,-1.4069,-1.3901,-1.3787,-1.3787,-1.3787,-1.3722,-1.3526,-1.3667,-1.3689,-1.3428,-1.3471,-1.352,-1.3504,-1.3406,-1.3548,-1.3962,-1.3888,-1.4155,-1.48,-1.4525,-1.5081,-1.6566,-1.5196,-1.496,-1.6131,-1.5413,-1.5224,-1.5658,-1.5875,-1.6015,-1.6083,-1.6008,-1.6056,-1.6171,-1.6022,-1.5995,-1.6049,-1.5981,-1.5954,-1.5961,-1.6049,-1.6083,-1.6083,-1.6083,-1.5974,-1.5839,0.0,0.0,0.0,0.0,0.0,0.0,0.0,0.0,0.0,0.0,0.0,0.0,0.0,0.0,0.0,0.0,-1.0742,0.0,0.0,0.0,0.0,-1.8119,-1.9551,-2.0433,-2.0776,-2.0837,-2.0948,-2.1196,-2.1749,-2.2668,-2.38,-2.4394,-2.5281,-2.6369,-2.5238,-2.4753,-2.4627,-2.1541,-1.9569,-1.8237,-1.5954,-1.4343,-1.3374,-1.4836,-1.4578,-1.365,-1.4795,-1.4274,-1.2881,-1.2748,-1.234,-1.1986,-1.2079,-1.1844,0.0,0.0,0.0,-1.1884,-1.2384,-1.2765,-1.3107,-1.3504,-1.3738,-1.3906,-1.4053,-1.4108,-1.4178,-1.4336,-1.4546,-1.4647,-1.4365,-1.4086,-1.3868,-1.3836,-1.3803,-1.3711,-1.3499,-1.3651,-1.3673,-1.3368,-1.3466,-1.3531,-1.3471,-1.3412,-1.3385,-1.3625,-1.3438,-1.3604,-1.4077,-1.3883,-1.49,-1.7195,-1.5611,-1.5727,-1.7912,-1.6928,-1.643,-1.6515,-1.6714,-1.651,-1.6029,-1.6062,-1.6062,-1.6015,-1.59,-1.5832,-1.5805,-1.5839,-1.5879,-1.592,-1.6035,-1.6103,-1.6137,-1.6096,-1.592,-1.571,0.0,0.0,0.0,0.0,0.0,0.0,0.0,0.0,0.0,0.0,0.0,0.0,0.0,-1.0704,-1.065,-1.0574,-1.065,-1.1324,-1.2882,-1.3327,0.0,-1.5926,-1.6419,0.0,-1.671,-1.6893,-1.6984,-1.6993,-1.9167,-2.0779,-2.2014,-2.4156,-2.5776,-2.6875,-2.5895,-2.5216,-2.467,-2.2284,-2.1166,-2.0925,-1.8766,-1.7513,-1.6976,-1.7819,-1.7626,-1.7091,-1.7439,-1.7093,0.0,0.0,0.0,-1.3787,-1.38,-1.2765,-1.1487,0.0,0.0,0.0,-1.1955,-1.221,-1.2515,-1.2988,-1.3368,-1.3684,-1.3912,-1.4053,-1.4205,-1.445,-1.4949,-1.5393,-1.5364,-1.4603,-1.408,-1.3966,-1.3857,-1.3743,-1.3613,-1.3705,-1.3738,-1.3602,-1.3493,-1.3471,-1.3586,-1.3385,-1.3504,-1.4146,-1.4025,-1.4206,-1.4589,-1.4166,-1.475,-1.6545,-1.5937,-1.6731,-1.9063,-2.0002,-1.9733,-1.8271,-1.8512,-1.7712,-1.5872,-1.6015,-1.6001,-1.5866,-1.5859,-1.5778,-1.5662,-1.5798,-1.594,-1.6069,-1.6076,-1.6171,-1.6279,-1.6137,-1.5981,-1.5845,0.0,0.0,0.0,0.0,0.0,0.0,0.0,0.0,0.0,0.0,0.0,0.0,0.0,-1.0982,-1.0819,-1.09,-1.0835,-1.1054,-1.1759,-1.2798,0.0,-1.4344,-1.551,-1.6237,-1.6434,-1.65,-1.659,-1.6713,-1.7528,-1.9066,-2.1221,-2.2156,-2.3602,-2.5346,-2.5152,-2.5055,-2.4958,-2.2987,-2.0926,-1.8936,-1.9402,-1.8235,-1.6506,-1.9241,-1.9535,-1.8486,-1.9469,0.0,0.0,0.0,0.0,0.0,0.0,0.0,-1.3335,-1.2086,-1.1786,-1.1793,-1.1691,-1.1879,-1.2178,-1.2433,-1.2825,-1.3189,-1.3352,-1.3919,-1.4401,-1.4655,-1.5342,-1.5954,-1.5954,-1.57,-1.5319,-1.5293,-1.5061,-1.4903,-1.4686,-1.4768,-1.4739,-1.4446,-1.4516,-1.4464,-1.4121,-1.5351,-1.6087,-1.593,-1.7044,-1.7691,-1.7944,-1.7536,-1.8106,-2.0016,-1.8721,-1.871,-1.9926,-2.0283,-2.0319,-2.0297,-1.9017,-1.8159,-1.7697,-1.6496,-1.5906,-1.5852,-1.5852,-1.5771,-1.5642,-1.5696,-1.5805,-1.5947,-1.6042,-1.6056,-1.6022,-1.6069,-1.5866,-1.5608,0.0,0.0,0.0,0.0,0.0,0.0,0.0,0.0,0.0,0.0,0.0,0.0,0.0,0.0,-1.0873,-1.0916,-1.0808,-1.0775,-1.0857,-1.1897,-1.2535,-1.2618,-1.3645,-1.4329,-1.4514,-1.4572,-1.4623,-1.4681,-1.5523,-1.6909,-1.8786,-1.9735,-2.1404,-2.3603,-2.3427,-2.4072,-2.5109,-2.3339,-2.1187,-1.9001,-1.9374,-1.8608,-1.7484,-2.0478,-2.1178,-2.0568,-2.1735,0.0,0.0,0.0,0.0,0.0,0.0,0.0,0.0,0.0,-1.198,-1.1569,-1.1352,-1.1509,-1.1808,-1.2047,-1.2352,-1.2683,-1.3042,-1.3693,-1.4365,-1.4746,-1.5723,-1.6547,-1.6678,-1.674,-1.6614,-1.6096,-1.5808,-1.5631,-1.5448,-1.546,-1.5393,-1.5124,-1.5203,-1.5147,-1.4644,-1.659,-1.758,-1.7259,-1.877,-1.9699,-1.9743,-1.9559,-2.0435,-2.2327,-2.1867,-2.183,-2.22,-2.2201,-2.219,-2.2132,-2.0722,-2.0026,-1.9728,-1.8535,-1.7592,-1.6922,-1.6973,-1.6496,-1.5642,-1.5689,-1.5798,-1.594,-1.6042,-1.6022,-1.5934,-1.5988,-1.575,-1.5459,0.0,0.0,0.0,0.0,0.0,0.0,0.0,0.0,0.0,-1.4053,0.0,0.0,0.0,0.0,0.0,-1.0596,-1.0481,-1.0411,-1.0411,-1.0509,-1.065,-1.065,0.0,0.0,-1.0742,-1.0862,-1.0862,-1.0742,-1.3054,-1.4371,-1.4787,-1.714,-1.9424,-2.1666,-2.0872,-2.2188,-2.4833,-2.3057,-2.2078,-2.1432,-1.9026,-1.8828,-2.0288,-2.1648,-2.2588,-2.3257,-2.408,-2.3461,0.0,-2.2236,0.0,0.0,0.0,0.0,0.0,0.0,0.0,-1.1154,0.0,0.0,0.0,-1.1841,-1.1966,-1.2188,-1.3004,-1.3514,-1.4025,-1.4665,-1.588,-1.6885,-1.7304,-1.7854,-1.7881,-1.6367,-1.5888,-1.5705,-1.5813,-1.569,-1.5603,-1.5597,-1.5474,-1.5394,-1.5277,-1.6853,-1.7789,-1.7789,-1.9179,-2.0024,-1.9853,-2.0158,-2.1272,-2.3273,-2.5023,-2.5924,-2.5912,-2.6097,-2.5364,-2.381,-2.3855,-2.318,-2.1811,-2.1934,-2.0966,-1.9045,-1.9142,-1.7863,-1.5759,-1.5805,-1.5947,-1.609,-1.6076,-1.6076,-1.6056,-1.5906,-1.5669,-1.5438,0.0,0.0,0.0,0.0,0.0,0.0,0.0,0.0,-1.5466,0.0,0.0,0.0,-1.0447,-1.0473,-1.0835,-1.1236,-1.1145,-1.1025,-1.1025,-1.0895,-1.0819,-1.0819,-1.0851,-1.0867,-1.0867,-1.0987,-1.0992,-1.0867,-1.1476,-1.2613,-1.4212,-1.4973,-1.665,-1.8932,-1.9052,-1.938,-1.9988,-2.0181,-1.9843,-1.9074,-1.9777,-1.8742,-1.7344,-2.2012,-2.1929,-1.9827,-2.2865,-2.2766,-2.1389,0.0,-2.2327,-2.1789,0.0,0.0,0.0,0.0,0.0,0.0,-1.2605,0.0,0.0,0.0,0.0,0.0,-1.2004,-1.2634,-1.3561,-1.462,-1.5647,-1.6687,-1.7555,-1.8066,-1.8188,-1.7749,-1.7491,-1.7266,-1.7057,-1.6913,-1.6889,-1.6783,-1.673,-1.6413,-1.5787,-1.7732,-1.879,-1.8255,-2.1473,-2.3393,-2.3193,-2.4268,-2.5258,-2.5938,-2.6133,-2.6281,-2.6372,-2.6274,-2.6085,-2.5811,-2.4417,-2.3687,-2.3582,-2.2381,-2.1503,-2.0993,-1.9865,-1.8885,-1.8105,-1.6687,-1.611,-1.6225,-1.6001,-1.592,-1.5913,-1.5866,-1.5737,-1.5594,0.0,0.0,0.0,0.0,0.0,0.0,0.0,0.0,0.0,0.0,0.0,0.0,-1.0451,-1.0615,-1.105,-1.1544,-1.146,0.0,0.0,0.0,-1.0895,-1.0846,-1.0846,-1.0867,-1.0916,-1.1041,-1.1041,-1.0922,-1.102,-1.1647,-1.2636,-1.2916,-1.4183,-1.6298,-1.6428,-1.6947,-1.773,-1.7276,-1.688,-1.6575,-1.6847,-1.6604,-1.6537,-1.9455,-2.0297,-2.0134,-2.1811,0.0,-2.1964,-2.2292,-2.2677,0.0,0.0,0.0,0.0,0.0,0.0,0.0,0.0,0.0,0.0,-1.1218,0.0,0.0,-1.1699,-1.2236,-1.3058,-1.3998,-1.512,-1.6178,-1.7136,-1.7729,-1.807,-1.8199,-1.8077,-1.7935,-1.7846,-1.765,-1.748,-1.7392,-1.7216,-1.6927,-1.6439,-1.8203,-1.9218,-1.8808,-2.1683,-2.3734,-2.4533,-2.5228,-2.6028,-2.7109,-2.6573,-2.6348,-2.646,-2.6194,-2.6303,-2.6708,-2.5498,-2.5218,-2.5701,-2.4603,-2.3747,-2.3116,-2.1308,-2.0048,-1.9222,-1.7878,-1.6885,-1.6103,-1.5927,-1.5778,-1.5669,-1.5669,-1.5574,-1.5479,0.0,0.0,0.0,-1.3744,-1.2675,-1.2215,-1.3939,-1.222,0.0,0.0,-1.0257,-1.0144,-1.0942,-1.1099,-1.1305,-1.1679,0.0,0.0,0.0,0.0,-1.0884,-1.0764,-1.077,-1.0829,-1.0938,-1.1074,-1.1074,-1.0938,-1.115,-1.1145,-1.0944,-1.1156,-1.2213,-1.3774,-1.3561,-1.4656,-1.6567,-1.4286,-1.3674,-1.4011,-1.232,-1.3634,-1.6584,-1.5716,-1.7906,-2.1363,-2.0486,-2.1254,-2.2652,-2.243,-2.2273,0.0,0.0,0.0,0.0,0.0,-1.7719,0.0,0.0,0.0,0.0,0.0,-1.1209,0.0,-1.1861,-1.2135,-1.2529,-1.3214,-1.4409,-1.5496,-1.6197,-1.7009,-1.7629,-1.788,-1.7968,-1.8036,-1.8091,-1.7846,-1.7663,-1.7629,-1.7256,-1.6985,-1.6937,-1.8144,-1.8865,-1.8842,-2.0325,-2.2176,-2.4341,-2.4005,-2.4678,-2.6641,-2.6193,-2.589,-2.5866,-2.5901,-2.623,-2.693,-2.6737,-2.6991,-2.763,-2.7461,-2.6608,-2.5246,-2.3091,-2.1344,-2.0008,-1.9256,-1.7932,-1.6237,-1.6377,-1.6298,-1.6064,-1.6036,-1.5776,-1.564,0.0,0.0,-1.2004,-1.2345,-1.2177,0.0,-1.2514,-1.1855,-1.12,-1.0751,-1.025,-1.0493,-1.1842,-1.1809,-1.1862,0.0,0.0,0.0,0.0,0.0,-1.1014,-1.0889,-1.0976,-1.1041,-1.1069,-1.1275,-1.1281,-1.1069,-1.1112,-1.1112,-1.1069,-1.1112,-1.1356,-1.1876,-1.1766,-1.1946,-1.2172,-1.1848,-1.1658,-1.1761,-1.3235,-1.3432,-1.3132,-1.5913,-1.566,-1.4084,-1.6848,-1.8063,-1.8947,-2.2084,-2.2888,-2.2649,0.0,0.0,0.0,-2.203,0.0,0.0,0.0,0.0,0.0,0.0,0.0,0.0,-1.2048,-1.1889,-1.209,-1.3244,-1.3819,-1.4488,-1.5877,-1.6536,-1.6904,-1.6836,-1.7236,-1.7684,-1.8036,-1.7935,-1.7738,-1.7494,-1.7277,-1.7005,-1.6646,-1.6886,-1.7028,-1.6909,-1.8668,-2.0738,-2.2857,-2.2597,-2.2495,-2.2482,-2.3625,-2.4085,-2.3975,-2.5354,-2.6218,-2.6375,-2.6556,-2.6604,-2.6544,-2.693,-2.6993,-2.6747,-2.3476,-2.2799,-2.3698,-2.0279,-1.8501,-1.8227,-1.9415,-1.9944,-1.9979,-1.9661,-1.8794,-1.7883,0.0,-1.1998,-1.208,-1.208,-1.2129,0.0,0.0,0.0,-1.162,-1.1445,-1.1106,-1.1263,-1.2237,-1.2109,-1.218,0.0,0.0,0.0,0.0,0.0,-1.1172,-1.0927,-1.1036,-1.1101,-1.1101,-1.1275,-1.1308,-1.1188,-1.1188,-1.1156,-1.1107,-1.1161,-1.1156,-1.1101,-1.1161,-1.1123,-1.1014,-1.1074,-1.1128,-1.1286,-1.2519,-1.2995,-1.3062,-1.411,-1.4496,-1.4578,-1.5474,-1.6681,-1.8071,-2.0188,-2.0909,0.0,0.0,-2.0682,-2.0707,0.0,-1.9032,-1.7302,0.0,0.0,0.0,-1.2898,0.0,0.0,0.0,-1.229,-1.2266,-1.3199,-1.3653,-1.4094,-1.5248,-1.5797,-1.6266,-1.6483,-1.6714,-1.7026,-1.7473,-1.7595,-1.7589,-1.7439,-1.7154,-1.6883,-1.6659,-1.6435,-1.6239,-1.6096,-1.7062,-1.8513,-2.0369,-2.0262,-2.0403,-2.0991,-2.2488,-2.3354,-2.3432,-2.5109,-2.623,-2.6616,-2.6496,-2.6423,-2.6347,-2.5701,-2.5491,-2.5559,-2.2819,-2.2354,-2.33,-2.2059,-2.1384,-2.1273,-2.1151,-2.1077,-2.1141,-2.073,-2.0161,-1.966,-1.1906,0.0,-1.2178,-1.2205,-1.2308,0.0,0.0,0.0,-1.2097,-1.2351,-1.2107,-1.2122,-1.2503,-1.2616,-1.2635,0.0,0.0,0.0,0.0,0.0,-1.1313,-1.1003,-1.1085,-1.1123,-1.1101,-1.1237,-1.1297,-1.127,-1.127,-1.1226,-1.1134,-1.1313,-1.1345,-1.1163,-1.1213,-1.1349,-1.1387,-1.1237,-1.1285,-1.1599,-1.1621,-1.2449,-1.3423,-1.2113,-1.3552,-1.6077,-1.516,-1.5992,-1.7723,-1.8365,-1.8914,-1.92,-1.8477,-1.8618,0.0,0.0,0.0,0.0,0.0,0.0,0.0,0.0,0.0,-1.2997,0.0,0.0,0.0,-1.33,-1.3559,-1.3991,-1.4578,-1.5079,-1.5615,-1.6062,-1.6137,-1.6252,-1.6585,-1.689,-1.7107,-1.7195,-1.6809,-1.6537,-1.6537,-1.6157,-1.5872,-1.5778,-1.5737,-1.638,-1.7813,-1.764,-1.8317,-2.0048,-2.1608,-2.2733,-2.3278,-2.4957,-2.6158,-2.6798,-2.6351,-2.6242,-2.6323,-2.4464,-2.3911,-2.4467,-2.2245,-2.1827,-2.2939,-2.3946,-2.4404,-2.4426,-2.2933,-2.2185,-2.2069,-2.175,-2.151,-2.1206,-1.2134,-1.215,0.0,-1.2314,-1.2433,0.0,0.0,0.0,-1.2871,-1.321,-1.2771,-1.276,-1.3577,-1.3324,-1.3205,-1.3488,0.0,0.0,-1.2574,0.0,0.0,0.0,-1.1243,-1.1204,-1.1107,-1.1319,-1.1378,-1.127,-1.127,-1.1264,-1.1253,-1.1701,-1.187,-1.1917,-1.2051,-1.2258,-1.2457,-1.221,-1.2007,-1.1916,-1.2031,-1.1976,-1.1816,-1.1795,-1.2072,-1.2724,-1.477,-1.5476,-1.5995,0.0,-1.9679,-1.9815,0.0,-1.9993,-1.9508,-2.0039,0.0,0.0,0.0,0.0,0.0,0.0,-1.4499,0.0,0.0,0.0,-1.3222,-1.3496,0.0,-1.3846,-1.4397,0.0,0.0,-1.4753,-1.5174,-1.5486,-1.5398,-1.5649,-1.5988,-1.6388,-1.6042,-1.5764,-1.5764,-1.5472,-1.5337,-1.5452,-1.5337,-1.5336,-1.5584,-1.5438,-1.6099,-1.7796,-1.9569,-2.1233,-2.3042,-2.4864,-2.5868,-2.5965,-2.5904,-2.5771,-2.5492,-2.3861,-2.423,-2.6139,-2.2505,-2.3323,-2.6935,-2.5169,-2.5429,-2.6961,-2.6249,-2.583,-2.556,-2.5302,-2.4283,-2.293,-1.0347,-1.0502,0.0,0.0,-0.9919,0.0,0.0,0.0,-1.3412,-1.3417,-1.3514,-1.3792,-1.4178,-1.3939,-1.3749,-1.3716,-1.3259,-1.2841,-1.252,0.0,0.0,0.0,0.0,0.0,-1.1417,-1.1509,-1.1498,-1.1378,-1.1308,-1.1445,-1.1707,0.0,-1.2109,-1.2378,-1.2435,-1.2564,-1.2667,-1.2637,-1.2598,-1.2543,-1.2753,-1.2705,-1.2394,-1.2008,-1.2004,-1.2311,-1.3596,-1.4168,-1.4507,0.0,-1.6819,0.0,0.0,0.0,0.0,0.0,0.0,0.0,0.0,0.0,0.0,0.0,0.0,0.0,-1.4236,0.0,-1.3827,0.0,0.0,0.0,0.0,0.0,0.0,0.0,-1.478,-1.493,-1.5045,-1.4943,-1.5153,-1.5954,-1.5723,-1.5438,-1.5269,-1.5133,-1.551,-1.658,-1.6604,-1.6972,-1.7953,-1.7969,-1.8203,-1.8902,-2.0657,-2.1977,-2.2998,-2.4713,-2.5675,-2.582,-2.5675,-2.5542,-2.536,-2.3685,-2.3545,-2.4609,-2.3342,-2.3977,-2.5794,-2.4977,-2.5004,-2.5591,-2.4054,-2.4688,-2.6411,-2.5989,-2.537,-2.4753,-0.8516,0.0,-0.7978,-0.6461,-0.7585,-0.8649,-0.875,-1.1077,-1.2747,-1.264,-1.3448,-1.4265,-1.4477,-1.4276,-1.4108,-1.4037,-1.3689,-1.3254,-1.2732,0.0,-1.2297,0.0,0.0,0.0,0.0,0.0,0.0,-1.1504,-1.1561,-1.178,-1.2079,0.0,0.0,0.0,-1.3085,-1.3268,-1.3344,-1.3451,-1.3443,-1.3434,-1.3559,-1.3505,-1.3224,-1.2545,-1.2283,-1.2486,-1.3066,-1.3459,-1.3751,-1.421,-1.5281,0.0,-1.5039,0.0,0.0,0.0,0.0,0.0,-1.5938,0.0,0.0,0.0,0.0,0.0,0.0,0.0,0.0,0.0,0.0,0.0,0.0,0.0,0.0,0.0,0.0,-1.4652,-1.4875,-1.4523,-1.4563,-1.5445,-1.5357,-1.516,-1.4984,-1.4896,-1.5631,-1.7352,-1.7388,-1.8085,-1.999,-1.9965,-2.0162,-2.0743,-2.1898,-2.2902,-2.3696,-2.4832,-2.553,-2.5723,-2.553,-2.5433,-2.536,-2.3607,-2.3249,-2.4097,-2.399,-2.4441,-2.5266,-2.479,-2.457,-2.4284,-2.1961,-2.2677,-2.5025,-2.505,-2.5027,-2.5149,-0.7137,-0.6263,-0.6199,-0.6164,-0.6226,-0.6404,-0.652,-0.8593,-1.0215,-1.0488,-1.2428,-1.3983,-1.445,-1.4276,-1.4276,-1.4619,-1.4004,-1.3591,-1.3564,0.0,-1.2422,0.0,0.0,-1.2053,0.0,0.0,0.0,0.0,-1.1955,-1.2223,-1.2434,-1.3204,0.0,0.0,-1.4226,-1.4665,-1.4943,-1.495,-1.4832,-1.4583,-1.4326,-1.4096,-1.3835,-1.3151,-1.2701,-1.2628,-1.3685,0.0,0.0,-1.5378,-1.6973,0.0,0.0,0.0,0.0,0.0,0.0,0.0,0.0,0.0,0.0,-1.8314,0.0,0.0,0.0,0.0,-1.4232,0.0,0.0,0.0,0.0,0.0,0.0,0.0,0.0,0.0,0.0,-1.436,-1.4251,-1.4719,-1.4767,-1.4814,-1.4957,-1.4699,-1.5388,-1.7328,-1.704,-1.767,-1.9971,-1.9692,-2.0527,-2.2704,-2.2675,-2.3525,-2.5275,-2.536,-2.5446,-2.5446,-2.5446,-2.5433,-2.5348,-2.344,-2.3881,-2.6042,-2.4174,-2.4868,-2.7137,-2.5266,-2.4513,-2.4273,-2.1886,-2.0891,-2.1106,-2.2543,-2.3086,-2.3348,0.0,-0.7304,-0.5435,-0.2534,-0.3243,-0.5273,-0.8204,-0.9537,-1.0958,-1.2709,-1.3801,-1.4619,-1.5266,-1.5108,-1.4983,-1.5037,-1.4673,-1.4265,-1.3863,-1.3542,0.0,0.0,0.0,-1.2651,0.0,0.0,0.0,0.0,0.0,-1.293,-1.3621,-1.3841,0.0,0.0,-1.4723,-1.4923,-1.5126,-1.533,-1.5316,-1.5125,-1.5125,-1.5178,-1.5139,-1.4232,-1.375,-1.3828,-1.4513,-1.4686,0.0,-1.7091,-1.8295,-1.8904,-1.9269,-1.978,-1.9944,-1.9044,-1.8794,0.0,0.0,0.0,-2.0463,-2.0412,0.0,0.0,0.0,0.0,0.0,0.0,0.0,0.0,0.0,0.0,0.0,0.0,0.0,0.0,0.0,-1.5119,-1.5815,-1.6099,-1.518,-1.4909,-1.6293,-1.6194,-1.6936,-1.8937,-1.9704,-2.1153,-2.3442,-2.3324,-2.3557,-2.4499,-2.4527,-2.4738,-2.5348,-2.5433,-2.5433,-2.5433,-2.5433,-2.5433,-2.5348,-2.4738,-2.5106,-2.6142,-2.5689,-2.6202,-2.7241,-2.5433,-2.4463,-2.3875,-2.0354,-1.9454,-2.0533,-2.235,-2.3106,-2.3555,-0.9707,-0.85,-0.6223,-0.1873,-0.2291,-0.4231,-0.7131,-0.9263,-1.1208,-1.299,-1.4207,-1.5108,-1.5738,-1.5641,-1.5488,-1.5418,-1.5222,-1.4814,-1.4124,-1.4053,0.0,-1.3504,-1.3548,0.0,0.0,0.0,0.0,0.0,0.0,-1.3621,-1.4464,-1.4362,-1.4599,0.0,-1.5079,-1.5147,-1.5208,-1.5622,-1.5737,-1.5662,-1.5818,-1.5964,-1.6045,-1.5315,-1.4931,-1.465,0.0,-1.5545,-1.639,-1.8277,-1.9921,-2.1188,-2.1452,-2.1878,-2.2162,-2.1168,-2.0885,-2.1137,-2.2006,-2.2294,0.0,-2.2417,-2.215,0.0,-2.0961,0.0,0.0,0.0,0.0,0.0,0.0,0.0,0.0,0.0,0.0,0.0,0.0,-1.5489,-1.6922,-1.7733,-1.6846,-1.6673,-1.7961,-1.7929,-1.8521,-2.0429,-2.1201,-2.2649,-2.4951,-2.4987,-2.4975,-2.5421,-2.5433,-2.5433,-2.5433,-2.5433,-2.5433,-2.5433,-2.5433,-2.5433,-2.5446,-2.553,-2.5808,-2.6242,-2.6616,-2.6966,-2.7121,-2.5388,-2.4366,-2.3641,-2.0134,-1.9347,-2.035,-2.1437,-2.2962,-2.4744,-1.0318,-0.9765,-0.8435,-0.4286,-0.3532,-0.3574,-0.3681,-0.7796,-1.0993,-1.1437,-1.3653,-1.5418,-1.5896,-1.5842,-1.5771,-1.5771,-1.5657,-1.5233,-1.4434,-1.4477,0.0,0.0,-1.4169,-1.4417,-1.429,0.0,0.0,0.0,0.0,-1.4304,-1.4763,-1.4953,-1.4991,-1.4984,-1.5289,-1.5337,-1.5235,-1.5839,-1.6103,-1.613,-1.6266,-1.6341,-1.6374,-1.6483,-1.6001,-1.5258,-1.5347,-1.6581,-1.8231,-1.906,-2.1804,-2.4451,-2.261,-2.3147,-2.3941,-2.1868,-2.1163,-2.1667,-2.3715,-2.4491,-2.4622,-2.4426,-2.4535,0.0,0.0,0.0,-2.1786,0.0,0.0,0.0,0.0,0.0,0.0,0.0,0.0,0.0,0.0,0.0,-1.7751,-1.9353,-1.9733,-1.9883,-2.0031,-1.9702,-2.0063,-2.1609,-2.1409,-2.2159,0.0,-2.4625,-2.4878,-2.5421,-2.5458,-2.547,-2.5458,-2.5458,-2.5458,-2.5458,-2.5458,-2.5458,-2.5482,-2.5735,-2.5989,-2.6266,-2.6785,-2.7015,-2.6869,-2.5235,-2.4313,-2.3597,-2.1472,-2.0577,-2.0422,-2.0141,-2.2885,-2.6785,-1.1929,-1.0827,-0.9447,-0.8312,-0.6777,-0.6307,-0.8197,-0.9748,-1.1577,-1.389,-1.4942,-1.57,-1.6277,-1.6065,-1.5923,-1.601,-1.5738,-1.5472,0.0,0.0,0.0,-1.4417,-1.47,-1.4816,-1.4683,-1.482,0.0,-1.5705,0.0,-1.5431,-1.5703,-1.5511,-1.5289,-1.4991,-1.5398,-1.5493,-1.5391,-1.5995,-1.6381,-1.6571,-1.6497,-1.6734,-1.7093,0.0,-1.6547,-1.6584,-1.6245,-1.6394,-1.7415,-2.0466,-2.228,-2.3346,-2.4077,-2.5368,-2.6144,-2.386,-2.4132,-2.5284,-2.5803,-2.6194,-2.6464,-2.6782,-2.6617,-2.6361,0.0,0.0,0.0,0.0,0.0,0.0,0.0,0.0,0.0,0.0,0.0,0.0,0.0,0.0,0.0,-2.1568,-2.2108,-2.2217,-2.1724,-2.1511,-2.1442,-2.1541,-2.2303,-2.322,-2.4229,-2.4516,-2.4878,-2.5421,-2.582,-2.5928,-2.5735,-2.5723,-2.5723,-2.5723,-2.5723,-2.5832,-2.6025,-2.6085,-2.6266,-2.6544,-2.6677,-2.6846,-2.6948,-2.6541,-2.6194,-2.5608,-2.3451,-2.2527,-2.2314,-2.2632,-2.4598,-2.7244,-1.1153,-1.153,-1.1414,-1.1367,-1.0553,-0.9952,-1.0491,-1.1551,-1.2927,-1.4884,-1.5559,-1.5907,-1.6206,-1.6288,-1.6277,-1.619,-1.601,0.0,-1.5516,0.0,0.0,-1.4841,-1.5152,-1.5289,-1.5156,-1.5181,0.0,-1.6131,0.0,0.0,-1.6171,-1.5811,-1.5432,-1.5079,-1.5398,-1.5452,-1.535,-1.5954,-1.6422,-1.6734,-1.6585,-1.6809,0.0,-1.6849,-1.6876,-1.7046,-1.6646,-1.7116,-1.8199,-2.0315,-2.1767,-2.2703,-2.3635,-2.5012,-2.6117,-2.4851,-2.5672,-2.7148,-2.7148,-2.7256,-2.7449,-2.7739,-2.7679,-2.7618,-2.792,-2.8021,-2.8056,0.0,0.0,0.0,0.0,0.0,0.0,0.0,0.0,0.0,0.0,0.0,0.0,0.0,-2.3444,-2.4092,-2.3545,-2.2721,-2.2211,-2.2337,-2.2949,-2.3406,0.0,-2.4407,-2.4842,-2.4914,-2.5989,-2.6327,-2.5832,-2.6291,-2.6351,-2.6001,-2.6122,-2.6194,-2.623,-2.658,-2.6761,-2.6822,-2.7051,-2.7172,-2.7196,-2.7075,-2.6798,-2.6234,-2.4863,-2.4334,-2.4447,-2.4844,-2.6048,-2.7449,-0.9361,-1.1873,-1.3586,-1.3444,-1.3934,-1.3658,-1.171,-1.3181,-1.4744,-1.5304,-1.588,-1.619,-1.6092,-1.65,-1.6668,-1.6385,-1.6315,-1.6065,-1.5543,-1.5684,-1.5603,-1.5124,-1.5575,-1.5665,-1.5516,-1.5372,0.0,0.0,0.0,0.0,-1.6199,-1.5768,-1.5493,-1.5187,-1.5364,-1.5391,-1.5337,-1.5859,-1.632,-1.668,-1.6544,-1.668,-1.6951,-1.6951,-1.6965,-1.6965,-1.6829,-1.7814,-1.9386,-1.9388,-2.0716,-2.2165,-2.1953,-2.3198,-2.4631,-2.4631,-2.6001,-2.7426,-2.7718,-2.7811,-2.7824,-2.786,-2.8029,-2.821,-2.8246,-2.8415,-2.8572,-2.8572,-2.7974,-2.744,0.0,0.0,0.0,0.0,0.0,0.0,0.0,0.0,0.0,0.0,0.0,0.0,-2.4987,-2.3611,-2.2911,-2.3387,-2.3285,-2.3193,0.0,0.0,-2.4686,-2.4299,-2.6037,-2.6665,-2.5989,-2.687,-2.7015,-2.6435,-2.6568,-2.6568,-2.6447,-2.7123,-2.7292,-2.7111,-2.757,-2.7618,-2.7353,-2.7087,-2.6742,-2.6221,-2.5785,-2.582,-2.6266,-2.6616,-2.7051,-2.7546,-0.9047,-1.1935,-1.3684,-1.3461,-1.4004,-1.4484,-1.4507,-1.513,-1.5782,-1.6206,-1.6597,-1.688,-1.6962,-1.6712,-1.6587,-1.6722,-1.6456,0.0,0.0,0.0,0.0,-1.5499,-1.5954,-1.602,-1.5785,-1.6426,-1.6466,0.0,0.0,0.0,-1.5593,-1.577,-1.5588,-1.5194,-1.5472,-1.5723,-1.5934,-1.6035,-1.6198,-1.6381,-1.6354,-1.6524,-1.6788,-1.6788,-1.687,-1.6978,-1.6951,-1.7126,-1.7682,-1.9206,-1.9897,-2.0166,-1.9992,-2.1067,-2.2413,-2.2413,-2.3806,-2.5622,-2.7332,-2.7811,-2.786,-2.8077,-2.8174,-2.827,-2.85,-2.8403,-2.8282,-2.8282,-2.7971,-2.7694,-2.7473,0.0,0.0,0.0,0.0,0.0,0.0,0.0,0.0,0.0,0.0,-2.4842,-2.4939,-2.4951,-2.4576,-2.3748,-2.3731,-2.3514,0.0,0.0,-2.4661,0.0,-2.5953,-2.6749,0.0,0.0,-2.7027,-2.7522,-2.693,-2.6954,-2.7534,-2.7449,-2.7389,-2.7365,-2.7449,-2.7341,-2.7075,-2.7157,-2.6906,-2.6438,-2.6561,-2.6497,-2.6303,-2.7027,-2.7486,-2.7824,-0.7997,-1.1609,-1.4319,-1.4162,-1.4735,-1.5409,-1.5603,-1.619,-1.6527,-1.6402,-1.6684,-1.6864,-1.6739,-1.6853,-1.688,-1.6739,-1.657,-1.6445,-1.6385,-1.6206,-1.6065,-1.5951,-1.5889,0.0,-1.579,-1.593,-1.5801,-1.5652,0.0,0.0,-1.5082,-1.5103,-1.4938,-1.4811,-1.5242,-1.5703,-1.6191,-1.6117,-1.6307,-1.6659,-1.6659,-1.6788,-1.6978,-1.6978,-1.6978,-1.6978,-1.6978,-1.6978,-1.714,-1.7844,-1.8092,-1.8107,-1.7773,-1.9056,-2.0896,-2.1865,-2.3555,-2.5676,-2.7688,-2.8234,-2.8258,-2.8391,-2.8415,-2.8451,-2.8596,-2.8524,-2.8379,-2.8234,-2.8101,-2.7848,-2.7317,-2.6665,0.0,0.0,0.0,0.0,0.0,0.0,0.0,0.0,0.0,0.0,0.0,0.0,-2.5083,-2.3664,-2.3688,-2.349,0.0,0.0,-2.4504,0.0,0.0,0.0,-2.6834,0.0,-2.7848,-2.7811,-2.7715,-2.7787,-2.8017,-2.8174,-2.8174,-2.8029,-2.7751,-2.7566,-2.7561,-2.7533,-2.7234,-2.6895,-2.7172,-2.7183,-2.7047,-2.7585,-2.7852,-2.8089,-0.8116,-1.1916,-1.5134,-1.512,-1.5868,-1.645,-1.6444,-1.7015,-1.7181,-1.6587,-1.6809,-1.6891,-1.6554,-1.6994,-1.7163,-1.675,-1.6722,-1.6652,-1.6483,-1.6331,-1.6244,-1.6217,-1.5869,-1.5657,-1.557,-1.5269,-1.5092,0.0,0.0,0.0,0.0,0.0,0.0,-1.4519,-1.5187,-1.5737,-1.6259,0.0,-1.6469,-1.6937,-1.6971,-1.7046,-1.7148,-1.7148,-1.708,-1.6978,-1.6978,-1.7293,-1.7663,-1.7373,-1.7366,-1.7394,-1.6991,-1.8506,-2.0728,-2.2444,-2.4227,-2.6103,-2.809,-2.862,-2.862,-2.862,-2.862,-2.862,-2.862,-2.8572,-2.8475,-2.8246,-2.8162,-2.7932,-2.7304,-2.6798,0.0,0.0,0.0,0.0,0.0,0.0,0.0,0.0,0.0,0.0,-2.5035,-2.5433,-2.5083,-2.349,-2.358,-2.3454,-2.2561,0.0,0.0,0.0,0.0,-2.7075,-2.6894,0.0,-2.85,-2.8149,-2.8403,-2.8475,-2.8391,-2.8813,-2.8837,-2.8512,-2.8077,-2.7933,-2.7938,-2.7636,-2.7409,-2.7232,-2.7598,-2.766,-2.7682,-2.8002,-2.8152,-2.8367,-1.1078,-1.3799,-1.6215,-1.6259,-1.7391,-1.7971,-1.739,-1.7802,-1.8004,-1.7395,-1.7484,-1.7538,-1.7288,-1.7228,-1.7147,-1.6989,-1.6978,-1.682,-1.65,-1.6652,-1.6516,-1.5978,-1.6021,-1.5907,-1.5586,-1.579,-1.553,0.0,0.0,-1.4969,0.0,0.0,0.0,0.0,-1.5724,0.0,0.0,-1.6374,-1.6592,-1.6781,-1.6924,-1.6992,-1.6998,-1.6998,-1.6992,-1.6978,-1.6978,-1.8327,-1.9943,-1.9862,-1.9806,-1.9679,-1.9463,-2.0811,-2.2751,-2.4664,-2.5389,-2.5992,-2.8031,-2.862,-2.862,-2.862,-2.862,-2.862,-2.862,-2.8427,-2.8234,-2.821,-2.8017,-2.7824,-2.7751,-2.7498,-2.722,0.0,0.0,0.0,0.0,0.0,0.0,0.0,0.0,0.0,0.0,-2.5156,-2.4806,-2.3278,-2.355,-2.3616,0.0,0.0,0.0,-2.376,-2.5458,-2.6773,-2.7691,-2.7618,-2.8137,-2.9248,-2.8572,-2.8487,-2.8934,-2.8994,-2.8729,-2.8234,-2.8186,-2.7884,-2.7405,-2.733,-2.7281,-2.7281,-2.7553,-2.7578,-2.7449,-2.8038,-2.8318,-2.862,-1.1924,-1.429,-1.6404,-1.6474,-1.705,-1.7343,-1.7169,-1.7423,-1.7518,-1.7261,-1.7467,-1.7554,-1.7369,-1.7315,-1.7217,-1.7021,-1.6935,-1.6837,-1.6695,-1.657,-1.6429,-1.626,-1.6092,-1.594,-1.5798,-1.5718,-1.5392,0.0,0.0,0.0,0.0,0.0,0.0,0.0,0.0,-1.5914,-1.6111,-1.6644,-1.6931,-1.7168,-1.7317,-1.7378,-1.7479,-1.8756,-1.9243,-1.953,-2.057,-2.1778,-2.266,-2.2347,-2.224,-2.2177,-2.1864,-2.2296,-2.3375,-2.5208,-2.5787,-2.6234,-2.8114,-2.8741,-2.8813,-2.8656,-2.862,-2.862,-2.862,-2.8536,-2.8451,-2.8451,-2.8367,-2.8294,-2.8294,-2.8077,-2.786,0.0,0.0,0.0,0.0,0.0,0.0,0.0,0.0,0.0,0.0,-2.4589,-2.4589,-2.4263,-2.4142,-2.3828,0.0,0.0,0.0,-2.4299,0.0,-2.6266,-2.7329,-2.7703,-2.8318,-2.9163,-2.8837,-2.897,-2.9477,-2.932,-2.8862,-2.8186,-2.8152,-2.7866,-2.733,-2.7597,-2.7787,-2.7963,-2.8342,-2.8352,-2.8388,-2.888,-2.8855,-2.8753,-1.3601,-1.5358,-1.6858,-1.7034,-1.7285,-1.7529,-1.7379,-1.7391,-1.7446,-1.713,-1.7272,-1.7359,-1.7315,-1.7342,-1.7244,-1.6978,-1.6907,-1.6837,-1.6722,-1.6516,-1.6402,-1.6418,-1.6135,0.0,-1.5934,-1.5684,-1.5418,-1.5135,-1.4923,0.0,0.0,0.0,0.0,0.0,-1.5749,-1.6289,-1.653,-1.6962,-1.7324,-1.7561,-1.8421,-1.8667,-1.882,-2.1053,-2.1925,-2.2052,-2.3284,-2.4393,-2.5226,-2.4746,-2.5079,-2.5471,-2.4416,-2.4578,-2.5346,-2.6562,-2.6958,-2.7311,-2.8557,-2.8982,-2.9091,-2.8898,-2.885,-2.885,-2.885,-2.885,-2.8825,-2.8753,-2.8741,-2.8741,-2.8741,-2.8632,-2.856,-2.856,0.0,0.0,0.0,0.0,0.0,0.0,0.0,-2.5083,-2.4311,-2.4238,-2.4277,-2.459,-2.4407,-2.3985,0.0,0.0,0.0,0.0,0.0,0.0,-2.7256,-2.7884,-2.8607,-2.9323,-2.914,-2.9346,-2.987,-2.9431,-2.8862,-2.8294,-2.8062,-2.7713,-2.7497,-2.7618,-2.7985,-2.8386,-2.8499,-2.87,-2.8901,-2.928,-2.9073,-2.885,-1.6593,-1.7326,-1.7962,-1.8366,-1.8962,-1.9188,-1.8263,-1.8245,-1.7933,-1.7154,-1.7005,-1.706,-1.7174,-1.7288,-1.7217,-1.6853,-1.6935,-1.6853,-1.65,-1.657,-1.6527,0.0,0.0,-1.6048,-1.5923,-1.5923,-1.5738,-1.5391,0.0,0.0,-1.414,0.0,-1.5753,-1.5888,-1.7228,-1.7772,-1.754,-1.754,-1.7717,-1.8074,-2.0372,-2.1137,-2.13,-2.3655,-2.4497,-2.4298,-2.407,-2.536,-2.7208,-2.6971,-2.8507,-3.0093,-2.7311,-2.7963,-2.9643,-2.9477,-2.9405,-2.9405,-2.9393,-2.9393,-2.9393,-2.9393,-2.9393,-2.9393,-2.9393,-2.9393,-2.932,-2.9067,-2.9006,-2.9006,-2.9006,-2.9224,-2.9393,-2.9393,0.0,0.0,0.0,0.0,0.0,0.0,-2.6532,-2.5687,-2.4359,-2.4238,-2.4049,-2.3796,-2.4013,-2.4226,0.0,0.0,0.0,-2.4226,-2.5796,0.0,-2.7799,-2.8065,-2.8884,-3.0169,-2.942,-2.9445,-3.0169,-2.9055,-2.862,-2.8572,-2.7763,-2.757,-2.7751,-2.7244,-2.7486,-2.8162,-2.7908,-2.8137,-2.862,-2.862,-2.8789,-2.897,-1.7244,-1.7384,-1.7624,-1.774,-1.7836,-1.7896,-1.7596,-1.7579,-1.7402,-1.7021,-1.7005,-1.6962,-1.682,-1.6853,-1.6853,0.0,-1.6712,-1.6625,0.0,-1.6543,-1.6456,-1.6288,-1.6244,-1.6135,-1.5923,-1.5923,-1.5825,-1.5641,0.0,0.0,0.0,-1.5732,-1.614,-1.6557,-1.7285,-1.7636,-1.7569,-1.7806,-1.7982,-1.8232,-2.0434,-2.1319,-2.169,-2.5429,-2.6928,-2.7173,-2.8374,-2.9502,-3.0282,-2.9839,-3.0394,-3.0966,-2.9883,-2.9967,-3.0334,-3.025,-3.0093,-2.9912,-2.9719,-2.967,-2.9634,-2.9453,-2.9405,-2.9405,-2.9405,-2.9538,-2.9707,-2.9815,-2.9682,-2.961,-2.9791,-2.9743,-2.967,-2.967,-2.99,0.0,0.0,0.0,0.0,0.0,-2.5566,-2.483,-2.3965,-2.4049,0.0,-2.4371,-2.4456,0.0,0.0,0.0,0.0,0.0,-2.553,0.0,-2.7799,-2.8258,-2.9177,-3.0479,-2.9997,-2.9898,-3.0169,-2.9238,-2.8789,-2.8596,-2.8149,-2.7896,-2.7799,-2.763,-2.7811,-2.8198,-2.8113,-2.8306,-2.862,-2.9004,-2.8957,-2.8825,-1.7565,-1.7538,-1.7484,-1.7429,-1.7369,-1.7288,-1.7201,-1.719,-1.713,-1.6962,-1.6935,-1.682,-1.6543,-1.6472,-1.6483,-1.6614,-1.6527,-1.6483,-1.65,-1.6483,-1.6445,-1.6358,-1.6315,-1.619,-1.5994,-1.5994,0.0,-1.588,-1.6005,-1.6219,-1.6398,-1.6716,-1.7141,-1.7606,-1.7956,-1.8116,-1.8181,-1.8121,-1.8179,-1.8488,-2.1465,-2.2564,-2.3084,-2.7609,-2.9484,-2.9777,-3.0762,-3.136,-3.159,-3.1143,-3.1167,-3.136,-3.1191,-3.1107,-3.1022,-3.0817,-3.0564,-3.0346,-3.0274,-3.0105,-2.9936,-2.9876,-2.9851,-2.9851,-2.9851,-2.99,-3.0008,-3.0177,-3.0153,-3.0153,-3.0334,-3.0226,-3.0105,-3.0105,-3.0081,-2.9719,-2.8765,0.0,0.0,0.0,0.0,0.0,0.0,-2.4866,-2.5083,0.0,-2.5301,0.0,0.0,0.0,-2.4806,-2.5071,-2.6049,-2.7075,-2.8101,-2.8644,-2.9604,-3.0902,-3.0726,-3.0428,-3.0032,-2.9286,-2.8874,-2.8608,-2.8331,-2.8174,-2.8101,-2.7896,-2.8029,-2.8355,-2.8246,-2.8379,-2.862,-2.9004,-2.8835,-2.8559,-1.7696,-1.7723,-1.7663,-1.7554,-1.7527,-1.744,-1.7217,-1.719,-1.7103,-1.6853,-1.682,-1.6684,-1.6331,-1.619,-1.6163,-1.626,-1.6375,0.0,-1.6288,-1.6385,-1.6456,-1.6456,-1.6347,-1.6233,-1.6108,-1.6092,-1.6217,-1.6233,-1.6756,-1.7134,-1.7238,-1.8081,-1.8747,-1.9,-1.9166,-1.9203,-1.9149,-1.8565,-1.8321,-1.862,-2.3022,-2.4835,-2.5269,-3.0059,-3.1807,-3.1771,-3.1529,-3.1445,-3.1409,-3.1179,-3.1276,-3.1469,-3.1469,-3.1638,-3.1735,-3.1203,-3.0865,-3.0708,-3.0962,-3.066,-3.0334,-3.0576,-3.0636,-3.0636,-3.0636,-3.0455,-3.0298,-3.0298,-3.0491,-3.066,-3.066,-3.0636,-3.0612,-3.0612,-3.0141,-2.9489,-2.8681,0.0,0.0,0.0,0.0,0.0,-2.5542,-2.6206,-2.6339,0.0,-2.6423,0.0,0.0,0.0,-2.5639,-2.582,-2.7123,-2.8077,-2.8644,-2.9151,-3.0045,-3.1425,-3.1412,-3.0922,-2.9906,-2.9311,-2.8874,-2.8608,-2.8343,-2.8379,-2.8584,-2.8077,-2.8162,-2.8596,-2.8331,-2.8391,-2.862,-2.862,-2.8463,-2.8234,-1.7696,-1.7652,-1.7538,-1.7429,-1.7331,-1.7261,-1.7201,-1.719,-1.7103,-1.6853,-1.682,-1.6684,-1.6331,-1.626,-1.6217,-1.6146,-1.6092,-1.6076,-1.6146,-1.626,-1.6331,-1.6331,-1.6304,-1.6233,-1.6108,-1.6513,-1.701,-1.7607,-1.7923,-1.8228,-1.8749,-1.8818,-1.9078,-1.9602,-1.9293,-1.9149,-1.9006,-1.8531,-1.8247,-1.8573,-2.297,-2.4835,-2.5269,-3.0059,-3.1807,-3.1831,-3.1964,-3.2012,-3.2024,-3.2169,-3.2254,-3.2302,-3.2302,-3.2217,-3.2048,-3.171,-3.1421,-3.1215,-3.1276,-3.1059,-3.0829,-3.089,-3.0902,-3.0902,-3.0902,-3.101,-3.1107,-3.1107,-3.1155,-3.1203,-3.1203,-3.0877,-3.0612,-3.0612,-2.9984,-2.9151,-2.8137,-2.7667,0.0,0.0,-2.6411,-2.6641,-2.6375,-2.6532,-2.6725,0.0,0.0,-2.6303,-2.6827,-2.6689,-2.6488,-2.6376,-2.7669,-2.8552,-2.891,-2.9236,-3.0131,-3.1717,-3.1501,-3.1122,-3.0682,-2.9981,-2.9249,-2.862,-2.8548,-2.856,-2.8608,-2.8487,-2.8512,-2.862,-2.8548,-2.856,-2.862,-2.862,-2.8584,-2.85,-1.7706,-1.7663,-1.7565,-1.7386,-1.7299,-1.7244,-1.7201,-1.719,-1.7119,-1.6935,-1.6853,-1.6712,-1.6402,-1.6315,-1.6217,-1.6037,-1.6005,-1.6037,-1.6108,-1.6217,-1.626,-1.6206,-1.626,-1.6359,-1.6489,-1.6801,-1.7417,-1.8106,-1.8492,-1.8906,-1.9213,-1.9358,-1.9512,-1.9854,-1.94,-1.9128,-1.8959,-1.8511,-1.8233,-1.8517,-2.2953,-2.4835,-2.5269,-3.0059,-3.1879,-3.2024,-3.229,-3.2459,-3.2592,-3.2857,-3.2954,-3.2917,-3.2821,-3.2652,-3.2495,-3.2242,-3.1795,-3.1421,-3.1541,-3.13,-3.1022,-3.1143,-3.0998,-3.0877,-3.1119,-3.1191,-3.124,-3.136,-3.1493,-3.1541,-3.1409,-3.1059,-3.066,-3.0298,-2.9562,-2.8681,-2.7606,-2.7329,0.0,-2.6278,-2.6906,-2.7377,-2.7353,-2.7691,-2.7824,-2.7618,-2.751,0.0,-2.7518,-2.805,-2.8082,-2.7665,-2.8607,-2.9462,-3.0058,-3.0627,-3.1314,-3.2109,-3.2055,-3.1573,-3.098,-3.0326,-2.9468,-2.862,-2.862,-2.8716,-2.8908,-2.8716,-2.8716,-2.8908,-2.8716,-2.862,-2.862,-2.862,-2.8716,-2.898,-1.7652,-1.7663,-1.7625,-1.7402,-1.7342,-1.7299,-1.7228,-1.7201,-1.7147,-1.7021,-1.6918,-1.6766,-1.6527,-1.6402,-1.6244,-1.6021,-1.6206,-1.625,-1.6076,-1.619,-1.6217,-1.6233,-1.6321,-1.6703,-1.7238,-1.7381,-1.775,-1.8362,-1.9113,-1.9377,-1.9221,-1.9702,-1.9875,-1.9854,-1.9434,-1.9149,-1.8959,-1.8565,-1.8267,-1.8517,-2.2996,-2.4882,-2.5426,-3.0117,-3.2036,-3.2302,-3.2592,-3.2857,-3.3074,-3.34,-3.3497,-3.3473,-3.3243,-3.3111,-3.2978,-3.2785,-3.2169,-3.1614,-3.1807,-3.1505,-3.1179,-3.1397,-3.1119,-3.0914,-3.1397,-3.1336,-3.1252,-3.1517,-3.1735,-3.1783,-3.1611,-3.1308,-3.0848,-3.0085,-2.9261,-2.8353,-2.7232,0.0,-2.7003,-2.6785,-2.7486,-2.8113,-2.8415,-2.8994,-2.9019,-2.8234,-2.8825,-2.8885,-2.8143,-2.9094,-2.9611,-2.9525,-2.9816,-3.0486,-3.1399,-3.208,-3.2511,-3.2611,-3.2611,-3.2125,-3.1091,-3.0685,-2.9896,-2.8812,-2.8812,-2.9088,-2.9471,-2.9004,-2.91,-2.9471,-2.9004,-2.8812,-2.8812,-2.8812,-2.9125,-2.9533,-1.7315,-1.7429,-1.7527,-1.7386,-1.7272,-1.7244,-1.7315,-1.7244,-1.7147,-1.7021,-1.6989,-1.688,-1.6641,-1.6597,-1.6527,-1.6402,-1.6804,-1.6801,-1.5967,-1.6065,-1.6375,-1.6858,-1.6897,-1.7134,-1.7975,-1.8586,-1.9225,-1.9843,-2.0004,-2.0129,-1.9974,-1.9942,-1.9875,-1.9854,-1.9535,-1.9237,-1.8972,-1.8782,-1.8464,-1.8531,-2.3135,-2.5109,-2.5638,-3.0368,-3.2302,-3.2592,-3.3074,-3.328,-3.3376,-3.3895,-3.4052,-3.4052,-3.4016,-3.369,-3.3304,-3.3268,-3.2857,-3.2362,-3.2181,-3.1916,-3.1698,-3.1735,-3.1686,-3.1698,-3.2,-3.2048,-3.2085,-3.235,-3.2266,-3.2168,-3.2422,-3.2059,-3.1528,-3.0947,-2.9971,-2.8793,-2.7473,0.0,-2.7341,-2.7304,-2.821,-2.9019,-2.9501,-2.926,-2.9284,-2.9803,-2.8934,-2.8873,-3.0131,-2.9543,-2.9958,-3.1612,-3.1091,-3.0983,-3.1399,-3.178,-3.2109,-3.2611,-3.2611,-3.2311,-3.1666,-3.1568,-3.0966,-2.9841,-2.9841,-2.9937,-2.9937,-2.9937,-2.9937,-2.9937,-2.9937,-2.9841,-2.9841,-2.9841,-3.0101,-3.0375,-1.7386,-1.7413,-1.7429,-1.7369,-1.7261,-1.7201,-1.7261,-1.7217,-1.7147,-1.7021,-1.6951,-1.6837,-1.6652,-1.6778,-1.6933,-1.6877,-1.7454,-1.7618,-1.7256,-1.7238,-1.7322,-1.75,-1.7518,-1.7945,-1.8711,-1.9409,-1.9872,-2.0098,-2.0085,-2.001,-1.9854,-1.9786,-1.9766,-1.9752,-1.9535,-1.9271,-1.8972,-1.883,-1.9341,-2.0543,-2.3758,-2.5926,-2.744,-3.087,-3.2664,-3.342,-3.3948,-3.424,-3.4611,-3.4881,-3.4633,-3.4378,-3.4221,-3.3919,-3.3593,-3.3593,-3.3111,-3.2555,-3.2447,-3.2326,-3.2193,-3.2048,-3.2024,-3.2048,-3.2169,-3.2205,-3.2386,-3.2968,-3.2809,-3.2755,-3.3017,-3.2621,-3.2159,-3.1605,-3.0361,0.0,0.0,-2.865,-2.8626,-2.9073,-2.9832,-3.0478,-3.0876,-3.0391,-3.0242,-3.0788,-3.0009,-2.991,-3.0763,-3.049,-3.0836,-3.2181,-3.2476,-3.2633,-3.2764,-3.2895,-3.3061,-3.3264,-3.3264,-3.2781,-3.1777,-3.2189,-3.1535,-3.0382,-3.0522,-3.0702,-3.0741,-3.0453,-3.0459,-3.0535,-3.0402,-3.0268,-3.0166,-3.0471,-3.0869,-3.1289,-1.7413,-1.7386,-1.7359,-1.7359,-1.7244,-1.7163,-1.7217,-1.7174,-1.7119,-1.7021,-1.6918,-1.6809,-1.6652,-1.7106,-1.7368,-1.7339,-1.8098,-1.8616,-1.8616,-1.8599,-1.8474,-1.8244,-1.8598,-1.9081,-1.9813,-2.0475,-2.0685,-2.0409,-2.0285,-2.0018,-1.9712,-1.9678,-1.9644,-1.961,-1.9447,-1.9447,-1.9744,-1.9659,-2.0865,-2.2933,-2.5215,-2.7244,-2.9294,-3.1686,-3.3309,-3.4245,-3.4719,-3.5218,-3.5655,-3.5474,-3.5188,-3.4864,-3.453,-3.4185,-3.3956,-3.3895,-3.34,-3.2845,-3.2724,-3.2688,-3.2628,-3.2435,-3.2423,-3.2495,-3.2555,-3.2555,-3.2749,-3.3604,-3.3528,-3.3434,-3.3676,-3.339,-3.2827,-3.2237,0.0,0.0,0.0,-2.9981,-2.9924,-3.067,-3.1209,-3.1705,-3.1984,-3.1604,-3.1516,-3.1705,-3.124,-3.1102,-3.1483,-3.1512,-3.1726,-3.239,-3.3338,-3.3881,-3.3881,-3.3881,-3.3855,-3.3774,-3.3855,-3.3293,-3.2182,-3.2694,-3.2298,-3.1166,-3.1308,-3.1412,-3.1417,-3.1063,-3.0907,-3.1038,-3.094,-3.0818,-3.0664,-3.1192,-3.1718,-3.2091,-1.7092,-1.7217,-1.7359,-1.7359,-1.7174,-1.7092,-1.7315,-1.7163,-1.7021,-1.7005,-1.6989,-1.6907,-1.6668,-1.727,-1.7604,-1.7489,-1.8618,-1.9382,-1.9382,-1.9879,-1.9925,-1.9277,-2.0421,-2.1076,-2.1202,-2.1968,-2.1968,-2.1188,-2.1188,-2.0762,-1.9854,-1.9712,-1.959,-1.9447,-1.9291,-2.0224,-2.1987,-2.2254,-2.3288,-2.5093,-2.7925,-2.9401,-3.0218,-3.2809,-3.4331,-3.5189,-3.5382,-3.5686,-3.5876,-3.5655,-3.566,-3.5649,-3.5156,-3.474,-3.4475,-3.4221,-3.3956,-3.3593,-3.3074,-3.2954,-3.2954,-3.2917,-3.3111,-3.334,-3.363,-3.3666,-3.3904,-3.4505,-3.437,-3.4268,-3.4558,-3.4383,-3.3811,-3.2807,0.0,0.0,-3.0434,-3.0644,-3.0963,-3.1027,-3.1767,-3.2392,-3.2557,-3.2582,-3.2582,-3.2557,-3.2315,-3.2366,-3.295,-3.2211,-3.2198,-3.2976,-3.355,-3.3881,-3.3881,-3.3881,-3.3734,-3.3454,-3.3748,-3.3694,-3.326,-3.3694,-3.3407,-3.2807,-3.2554,-3.2275,-3.1982,-3.1715,-3.1595,-3.169,-3.1888,-3.1995,-3.2008,-3.2328,-3.2621,-3.2946,-1.713,-1.719,-1.7299,-1.744,-1.8733,-1.9804,-1.9999,-2.1322,-2.1639,-1.9764,-1.9477,-1.8833,-1.7211,-1.7703,-1.8194,-1.8628,-1.9483,-2.0198,-2.0291,-2.0601,-2.05,-1.9958,-2.0922,-2.1462,-2.1462,-2.219,-2.2265,-2.1962,-2.1852,-2.1567,-2.1088,-2.0671,-2.1115,-2.2281,-2.1861,-2.2809,-2.4765,-2.4721,-2.5808,-2.7762,-2.8953,-3.0514,-3.2349,-3.3674,-3.4782,-3.5746,-3.6056,-3.6444,-3.6704,-3.6423,-3.6359,-3.6087,-3.5692,-3.5455,-3.5143,-3.4442,-3.4292,-3.4316,-3.4095,-3.381,-3.3497,-3.3497,-3.3569,-3.3666,-3.3762,-3.3919,-3.4281,-3.5282,-3.5157,-3.5049,-3.5952,-3.5576,-3.4993,-3.4556,0.0,-3.3259,-3.307,-3.2794,-3.2715,-3.2996,-3.3179,-3.3376,-3.3665,-3.3057,-3.2812,-3.3416,-3.2849,-3.268,-3.3285,-3.3163,-3.3426,-3.4093,-3.4326,-3.4429,-3.4429,-3.4242,-3.4189,-3.4255,-3.4002,-3.3721,-3.3427,-3.3748,-3.3561,-3.2986,-3.3053,-3.2812,-3.2372,-3.2251,-3.1998,-3.1717,-3.2198,-3.2372,-3.2438,-3.2906,-3.3146,-3.324,-1.7174,-1.7217,-1.7288,-1.7456,-1.9737,-2.1516,-2.1597,-2.3878,-2.4823,-2.2536,-2.1594,-2.0411,-1.8779,-1.8532,-1.8684,-1.9318,-2.0218,-2.075,-2.0892,-2.0967,-2.0845,-2.0492,-2.1146,-2.1555,-2.1555,-2.2205,-2.2413,-2.2413,-2.2241,-2.2085,-2.1906,-2.1326,-2.2206,-2.4061,-2.358,-2.4753,-2.7304,-2.7098,-2.8234,-3.0343,-3.0635,-3.213,-3.414,-3.4688,-3.5585,-3.6676,-3.6676,-3.701,-3.7548,-3.7006,-3.6831,-3.6756,-3.6334,-3.6079,-3.5686,-3.5057,-3.5069,-3.527,-3.527,-3.4928,-3.4623,-3.4623,-3.4685,-3.4746,-3.4492,-3.459,-3.4844,-3.5572,-3.5509,-3.5562,-3.6295,-3.6204,-3.5819,-3.5538,-3.4817,-3.4376,-3.4589,-3.4175,-3.3988,-3.4416,-3.4362,-3.4376,-3.4576,-3.3907,-3.366,-3.4282,-3.3616,-3.3211,-3.3427,-3.3801,-3.4202,-3.4616,-3.4803,-3.4857,-3.4763,-3.4469,-3.4376,-3.4482,-3.4082,-3.3774,-3.3574,-3.3881,-3.3748,-3.3267,-3.3267,-3.3,-3.2629,-3.2442,-3.2241,-3.1984,-3.2482,-3.2652,-3.2866,-3.3267,-3.3414,-3.34,-1.7163,-1.7272,-1.7359,-1.7359,-1.989,-2.1758,-2.1618,-2.401,-2.56,-2.5128,-2.2765,-2.1089,-2.1442,-1.9887,-1.8969,-1.9612,-2.0531,-2.1055,-2.1197,-2.1068,-2.0933,-2.077,-2.1251,-2.1555,-2.1555,-2.2323,-2.2569,-2.2569,-2.2413,-2.2256,-2.2085,-2.1749,-2.2565,-2.4265,-2.3791,-2.5936,-2.9706,-2.948,-3.0576,-3.2737,-3.3555,-3.4479,-3.5275,-3.5844,-3.6867,-3.7742,-3.7155,-3.7529,-3.8095,-3.726,-3.7318,-3.7658,-3.7063,-3.6639,-3.6359,-3.6079,-3.6219,-3.6423,-3.6423,-3.6423,-3.6423,-3.6423,-3.6626,-3.6584,-3.6,-3.5697,-3.5436,-3.5164,-3.5346,-3.5642,-3.5644,-3.6088,-3.6219,-3.5351,-3.5204,-3.5004,-3.4416,-3.4576,-3.4763,-3.4763,-3.5017,-3.5191,-3.5191,-3.5191,-3.5191,-3.5191,-3.4643,-3.4055,-3.3454,-3.3988,-3.4322,-3.4322,-3.4897,-3.5057,-3.4763,-3.4469,-3.4175,-3.3895,-3.3881,-3.3881,-3.3895,-3.4189,-3.4148,-3.3855,-3.324,-3.2812,-3.2603,-3.1917,-3.2024,-3.2643,-3.2643,-3.2906,-3.3414,-3.3414,-3.3414,-3.3374,-1.7076,-1.7217,-1.7386,-1.7467,-2.0303,-2.2589,-2.2454,-2.4742,-2.64,-2.6545,-2.3575,-2.1801,-2.2476,-2.0482,-1.9445,-2.0078,-2.0655,-2.1055,-2.1197,-2.1068,-2.0933,-2.077,-2.1251,-2.1555,-2.1555,-2.2323,-2.2569,-2.2569,-2.2915,-2.2865,-2.2812,-2.2612,-2.4202,-2.7152,-2.6829,-2.8746,-3.2354,-3.291,-3.3243,-3.3641,-3.4706,-3.5462,-3.5844,-3.64,-3.707,-3.7489,-3.7315,-3.7555,-3.7889,-3.7383,-3.7662,-3.81,-3.7448,-3.715,-3.6945,-3.6528,-3.6625,-3.7012,-3.7127,-3.727,-3.7322,-3.6832,-3.6626,-3.6447,-3.6306,-3.6046,-3.5929,-3.6577,-3.636,-3.6461,-3.7303,-3.7296,-3.6981,-3.65,-3.6072,-3.5672,-3.5297,-3.5137,-3.507,-3.507,-3.4963,-3.4977,-3.5177,-3.4643,-3.4362,-3.4563,-3.4028,-3.3694,-3.3748,-3.4108,-3.4416,-3.4629,-3.5004,-3.5057,-3.4763,-3.4469,-3.4282,-3.4189,-3.3761,-3.3668,-3.3881,-3.3748,-3.3627,-3.3547,-3.336,-3.312,-3.2839,-3.2666,-3.2692,-3.2853,-3.2853,-3.3512,-3.4226,-3.3594,-3.3748,-3.4172,-1.7076,-1.7228,-1.7537,-1.7924,-2.0818,-2.3,-2.3206,-2.5517,-2.7261,-2.71,-2.4967,-2.3936,-2.4641,-2.3465,-2.3015,-2.3731,-2.3244,-2.2841,-2.2667,-2.1685,-2.0933,-2.077,-2.101,-2.1146,-2.109,-2.2472,-2.3347,-2.3716,-2.3737,-2.3997,-2.4277,-2.3296,-2.5096,-2.9097,-2.882,-3.1025,-3.4802,-3.4956,-3.4882,-3.4768,-3.5669,-3.6309,-3.6675,-3.7118,-3.7448,-3.7702,-3.7462,-3.7569,-3.7782,-3.7489,-3.7643,-3.7866,-3.7496,-3.7469,-3.7422,-3.6963,-3.7276,-3.7887,-3.7887,-3.8005,-3.8021,-3.7658,-3.7412,-3.7154,-3.6794,-3.6474,-3.6345,-3.6768,-3.6626,-3.6689,-3.7593,-3.7576,-3.7275,-3.6981,-3.654,-3.6139,-3.5845,-3.5658,-3.5498,-3.5378,-3.5217,-3.5137,-3.5191,-3.471,-3.4376,-3.4322,-3.3975,-3.3748,-3.3694,-3.4095,-3.4402,-3.4589,-3.4977,-3.5004,-3.4589,-3.4402,-3.4269,-3.4148,-3.3654,-3.3507,-3.3694,-3.3494,-3.3347,-3.324,-3.324,-3.308,-3.2812,-3.2812,-3.2946,-3.3133,-3.3323,-3.3846,-3.4638,-3.41,-3.4159,-3.454,-1.7323,-1.7449,-1.7824,-1.862,-2.1057,-2.3128,-2.3505,-2.5762,-2.7242,-2.6765,-2.6443,-2.6484,-2.732,-2.7738,-2.8275,-2.9125,-2.72,-2.5853,-2.5369,-2.2917,-2.1314,-2.1135,-2.0989,-2.0732,-2.0329,-2.2801,-2.4533,-2.5163,-2.4941,-2.5072,-2.5777,-2.3959,-2.5573,-2.9825,-3.03,-3.2945,-3.6779,-3.6143,-3.5939,-3.6079,-3.6528,-3.6989,-3.746,-3.7742,-3.7996,-3.8143,-3.7595,-3.7595,-3.7782,-3.7529,-3.7342,-3.7318,-3.7318,-3.7411,-3.7593,-3.7423,-3.79,-3.8602,-3.8718,-3.8718,-3.8718,-3.8718,-3.8718,-3.8522,-3.7499,-3.7149,-3.684,-3.6244,-3.6405,-3.6653,-3.7054,-3.7284,-3.7342,-3.7048,-3.6727,-3.6433,-3.6179,-3.6099,-3.5979,-3.5738,-3.5658,-3.5525,-3.5257,-3.5191,-3.4923,-3.4362,-3.4295,-3.4042,-3.348,-3.3975,-3.4295,-3.4322,-3.4843,-3.4857,-3.4322,-3.4295,-3.4135,-3.3841,-3.3547,-3.3414,-3.3414,-3.3414,-3.3267,-3.3013,-3.3013,-3.2866,-3.2625,-3.2625,-3.2946,-3.3427,-3.3701,-3.4131,-3.4684,-3.4448,-3.4409,-3.4423,-1.8117,-1.8371,-1.8742,-1.9455,-2.0801,-2.1632,-2.1516,-2.1881,-2.2971,-2.529,-2.4692,-2.5273,-2.7993,-2.8443,-2.8593,-2.9053,-2.8949,-2.8709,-2.8296,-2.5739,-2.4188,-2.3755,-2.3692,-2.2598,-2.0329,-2.2801,-2.4292,-2.4557,-2.469,-2.3892,-2.2253,-2.4877,-2.7334,-2.9733,-3.2606,-3.4868,-3.6653,-3.7387,-3.7244,-3.6801,-3.7527,-3.8042,-3.8149,-3.8183,-3.8076,-3.7889,-3.7782,-3.7782,-3.7849,-3.801,-3.7567,-3.7032,-3.7032,-3.687,-3.673,-3.714,-3.7669,-3.8137,-3.8588,-3.8718,-3.8718,-3.8718,-3.8718,-3.8571,-3.7821,-3.7637,-3.759,-3.7448,-3.7443,-3.7643,-3.8158,-3.7976,-3.7702,-3.7635,-3.6981,-3.658,-3.6727,-3.6353,-3.6139,-3.6299,-3.5912,-3.5605,-3.5538,-3.5124,-3.471,-3.4349,-3.4108,-3.3921,-3.3788,-3.3908,-3.4082,-3.4309,-3.4442,-3.4442,-3.4322,-3.4095,-3.3828,-3.3507,-3.344,-3.3414,-3.3414,-3.3414,-3.3374,-3.332,-3.332,-3.328,-3.3227,-3.3227,-3.344,-3.3734,-3.3385,-3.3909,-3.4867,-3.3933,-3.4088,-3.4724,-1.8934,-1.9176,-1.9562,-2.0314,-2.0801,-2.1194,-2.1238,-2.1222,-2.1663,-2.2957,-2.4909,-2.6687,-2.8593,-3.1192,-3.3001,-3.3227,-3.2386,-3.1645,-3.1109,-2.8606,-2.6968,-2.6572,-2.642,-2.6368,-2.6147,-2.6184,-2.6097,-2.6001,-2.6273,-2.651,-2.6846,-2.8076,-2.9905,-3.2443,-3.4536,-3.6532,-3.8179,-3.844,-3.8412,-3.7989,-3.8335,-3.8477,-3.8477,-3.8477,-3.821,-3.7849,-3.7969,-3.7929,-3.7849,-3.8143,-3.7712,-3.7061,-3.6935,-3.6718,-3.6639,-3.6961,-3.7412,-3.7917,-3.8499,-3.8718,-3.8718,-3.8718,-3.8718,-3.8611,-3.8143,-3.8167,-3.8174,-3.8202,-3.814,-3.8184,-3.8562,-3.8103,-3.7595,-3.7595,-3.7088,-3.6754,-3.6901,-3.6794,-3.666,-3.6513,-3.6233,-3.5885,-3.5458,-3.5151,-3.4843,-3.4549,-3.4255,-3.4028,-3.3895,-3.3881,-3.4015,-3.4309,-3.4456,-3.4469,-3.4322,-3.4162,-3.3868,-3.3414,-3.3414,-3.3334,-3.3213,-3.3347,-3.3253,-3.3013,-3.3293,-3.3334,-3.3213,-3.336,-3.3507,-3.3614,-3.3458,-3.397,-3.4731,-3.4101,-3.4258,-3.4783,-1.9744,-1.9978,-2.0233,-2.1037,-2.1174,-2.1369,-2.1747,-2.174,-2.1516,-2.1089,-2.5647,-2.8974,-2.9101,-3.41,-3.7529,-3.7794,-3.5952,-3.4491,-3.3853,-3.1403,-2.9753,-2.9375,-2.9317,-3.0169,-3.1929,-2.999,-2.8569,-2.7972,-2.8104,-2.9405,-3.1805,-3.1356,-3.2691,-3.5597,-3.6492,-3.7955,-3.992,-3.9452,-3.9199,-3.9118,-3.8735,-3.8628,-3.8539,-3.8499,-3.814,-3.7715,-3.8122,-3.8055,-3.7996,-3.825,-3.7884,-3.7359,-3.687,-3.6713,-3.6713,-3.6713,-3.7205,-3.7788,-3.8499,-3.8718,-3.8718,-3.8718,-3.8718,-3.8651,-3.8397,-3.8504,-3.8611,-3.8504,-3.837,-3.833,-3.8544,-3.7956,-3.7448,-3.7382,-3.7128,-3.6941,-3.7008,-3.7235,-3.7195,-3.6727,-3.6513,-3.6112,-3.5271,-3.5191,-3.5097,-3.4857,-3.4509,-3.4215,-3.3975,-3.3855,-3.3961,-3.4309,-3.4509,-3.4743,-3.489,-3.4795,-3.4687,-3.4568,-3.4127,-3.3679,-3.3066,-3.3307,-3.3146,-3.2719,-3.32,-3.3307,-3.3146,-3.34,-3.3521,-3.3521,-3.3629,-3.4057,-3.4465,-3.4464,-3.4537,-3.471,-2.0833,-2.1009,-2.131,-2.202,-2.2057,-2.1882,-2.174,-2.1686,-2.155,-2.1231,-2.5947,-2.9289,-2.9289,-3.4326,-3.7818,-3.8084,-3.7864,-3.7489,-3.7167,-3.4392,-3.2763,-3.2382,-3.2149,-3.1184,-2.9182,-3.1029,-3.0782,-2.8199,-2.8673,-2.8066,-2.6486,-3.2109,-3.5071,-3.5608,-3.8567,-3.9773,-3.964,-3.9559,-3.9386,-3.9001,-3.8242,-3.8061,-3.8231,-3.7399,-3.7219,-3.7446,-3.7734,-3.8161,-3.8611,-3.8651,-3.82,-3.7619,-3.6946,-3.648,-3.6129,-3.6622,-3.6843,-3.7205,-3.8369,-3.8718,-3.8718,-3.8718,-3.8718,-3.8718,-3.8691,-3.8477,-3.8183,-3.7676,-3.7929,-3.8183,-3.7969,-3.7849,-3.7676,-3.7422,-3.7128,-3.7008,-3.7275,-3.7342,-3.7342,-3.7275,-3.658,-3.5885,-3.5257,-3.5191,-3.5177,-3.5137,-3.4629,-3.4295,-3.4269,-3.3761,-3.3734,-3.4295,-3.4122,-3.5123,-3.7519,-3.6882,-3.755,-3.9314,-3.7165,-3.5153,-3.336,-3.3387,-3.3374,-3.3293,-3.3374,-3.3547,-3.3761,-3.3801,-3.3975,-3.4122,-3.3393,-3.3677,-3.4465,-3.463,-3.4645,-3.471,-2.1652,-2.1718,-2.1915,-2.2199,-2.2215,-2.2038,-2.1828,-2.1726,-2.1584,-2.1367,-2.4732,-2.7313,-2.7313,-3.095,-3.3336,-3.355,-3.5003,-3.5031,-3.3252,-3.4813,-3.4957,-3.2926,-3.4336,-3.446,-3.3055,-3.2807,-3.2113,-3.1256,-3.14,-3.2055,-3.3139,-3.6224,-3.7983,-3.8323,-3.9677,-4.0067,-3.9813,-3.9493,-3.9265,-3.9001,-3.8126,-3.7853,-3.784,-3.714,-3.7026,-3.7358,-3.795,-3.8353,-3.8718,-3.8718,-3.824,-3.7658,-3.7063,-3.6363,-3.6037,-3.6622,-3.6843,-3.7076,-3.8369,-3.8718,-3.8718,-3.8718,-3.8718,-3.8651,-3.829,-3.825,-3.8223,-3.8143,-3.8183,-3.8183,-3.7849,-3.7555,-3.7342,-3.7382,-3.7128,-3.7048,-3.7342,-3.7382,-3.7275,-3.6941,-3.6406,-3.5845,-3.5257,-3.5191,-3.5124,-3.4963,-3.4563,-3.4242,-3.4082,-3.3828,-3.3868,-3.4309,-3.4362,-3.4999,-3.6176,-3.5744,-3.593,-3.6736,-3.5436,-3.48,-3.4829,-3.3833,-3.332,-3.3173,-3.3334,-3.3587,-3.3881,-3.3881,-3.4055,-3.4229,-3.3334,-3.3364,-3.3833,-3.4479,-3.471,-3.471]},{"header":{"parameterUnit":"m.s-1","parameterCategory":1,"la1":30.6,"la2":28.766,"lo1":-90.7593,"lo2":-88.6598,"dy":0.0162,"dx":0.0183,"nx":116,"ny":114,"refTime":"2023-08-20T06:00:00:Z","depth":0,"parameterNumber":3,"parameterNumberName":"V-component_of_WINDS"},"data":[0.0,0.0,0.0,0.0,0.0,0.0,0.0,0.0,0.0,0.0,0.0,0.0,0.0,0.0,0.0,0.0,0.0,0.0,0.0,0.0,0.0,0.0,0.0,0.0,0.0,0.0,0.0,0.0,0.0,0.0,0.0,0.0,0.0,0.0,0.0,0.0,0.0,0.0,0.0,0.0,0.0,0.0,0.0,0.0,0.0,0.0,0.0,0.0,0.0,0.0,0.0,0.0,0.0,0.0,0.0,0.0,0.0,0.0,0.0,0.0,0.0,0.0,0.0,0.0,0.0,0.0,0.0,0.0,0.0,0.0,0.0,0.0,0.0,0.0,0.0,0.0,0.0,0.0,0.0,0.0,0.0,0.0,0.0,0.0,0.0,0.0,0.0,0.0,0.0,0.0,0.0,0.0,0.0,0.0,0.0,0.0,0.0,0.0,0.0,0.0,0.0,0.0,0.0,0.0,0.0,0.0,0.0,0.0,0.0,0.0,0.0,0.0,0.0,0.0,0.0,0.0,0.0,0.0,0.0,0.0,0.0,0.0,0.0,0.0,0.0,0.0,0.0,0.0,0.0,0.0,0.0,0.0,0.0,0.0,0.0,0.0,0.0,0.0,0.0,0.0,0.0,0.0,0.0,0.0,0.0,0.0,0.0,0.0,0.0,0.0,0.0,0.0,0.0,0.0,0.0,0.0,0.0,0.0,0.0,0.0,0.0,0.0,0.0,0.0,0.0,0.0,0.0,0.0,0.0,0.0,0.0,0.0,0.0,0.0,0.0,0.0,0.0,0.0,0.0,0.0,0.0,0.0,0.0,0.0,0.0,0.0,0.0,0.0,0.0,0.0,0.0,0.0,0.0,0.0,0.0,0.0,0.0,0.0,0.0,0.0,0.0,0.0,0.0,0.0,0.0,0.0,0.0,0.0,0.0,0.0,0.0,0.0,0.0,0.0,0.0,0.0,0.0,0.0,0.0,0.0,0.0,0.0,0.0,0.0,0.0,0.0,0.0,0.0,0.0,0.0,0.0,0.0,0.0,0.0,0.0,0.0,0.0,0.0,0.0,0.0,0.0,0.0,0.0,0.0,0.0,0.0,0.0,0.0,0.0,0.0,0.0,0.0,0.0,0.0,0.0,0.0,0.0,0.0,0.0,0.0,0.0,0.0,0.0,0.0,0.0,0.0,0.0,0.0,0.0,0.0,0.0,0.0,0.0,0.0,0.0,0.0,0.0,0.0,0.0,0.0,0.0,0.0,0.0,0.0,0.0,0.0,0.0,0.0,0.0,0.0,0.0,0.0,0.0,0.0,0.0,0.0,0.0,0.0,0.0,0.0,0.0,0.0,0.0,0.0,0.0,0.0,0.0,0.0,0.0,0.0,0.0,0.0,0.0,0.0,0.0,0.0,0.0,0.0,0.0,0.0,0.0,0.0,0.0,0.0,0.0,0.0,0.0,0.0,0.0,0.0,0.0,0.0,0.0,0.0,0.0,0.0,0.0,0.0,0.0,0.0,0.0,0.0,0.0,0.0,0.0,0.0,0.0,0.0,0.0,0.0,0.0,0.0,0.0,0.0,0.0,0.0,0.0,0.0,0.0,0.0,0.0,0.0,0.0,0.0,0.0,0.0,0.0,0.0,0.0,0.0,0.0,0.0,0.0,0.0,0.0,0.0,0.0,0.0,0.0,0.0,0.0,0.0,0.0,0.0,0.0,0.0,0.0,0.0,0.0,0.0,0.0,0.0,0.0,0.0,0.0,0.0,0.0,0.0,0.0,0.0,0.0,0.0,0.0,0.0,0.0,0.0,0.0,0.0,0.0,0.0,0.0,0.0,0.0,0.0,0.0,0.0,0.0,0.0,0.0,0.0,0.0,0.0,0.0,0.0,0.0,0.0,0.0,0.0,0.0,0.0,0.0,0.0,0.0,0.0,0.0,0.0,0.0,0.0,0.0,0.0,0.0,0.0,0.0,0.0,0.0,0.0,0.0,0.0,0.0,0.0,0.0,0.0,0.0,0.0,0.0,0.0,0.0,0.0,0.0,0.0,0.0,0.0,0.0,0.0,0.0,0.0,0.0,0.0,0.0,0.0,0.0,0.0,0.0,0.0,0.0,0.0,0.0,0.0,0.0,0.0,0.0,0.0,0.0,0.0,0.0,0.0,0.0,0.0,0.0,0.0,0.0,0.0,0.0,0.0,0.0,0.0,0.0,0.0,0.0,0.0,0.0,0.0,0.0,0.0,0.0,0.0,0.0,0.0,0.0,0.0,0.0,0.0,0.0,0.0,0.0,0.0,0.0,0.0,0.0,0.0,0.0,0.0,0.0,0.0,0.0,0.0,0.0,0.0,0.0,0.0,0.0,0.0,0.0,0.0,0.0,0.0,0.0,0.0,0.0,0.0,0.0,0.0,0.0,0.0,0.0,0.0,0.0,0.0,0.0,0.0,0.0,0.0,0.0,0.0,0.0,0.0,0.0,0.0,0.0,0.0,0.0,0.0,0.0,0.0,0.0,0.0,0.0,0.0,0.0,0.0,0.0,0.0,0.0,0.0,0.0,0.0,0.0,0.0,0.0,0.0,0.0,0.0,0.0,0.0,0.0,0.0,0.0,0.0,0.0,0.0,0.0,0.0,0.0,0.0,0.0,0.0,0.0,0.0,0.0,0.0,0.0,0.0,0.0,0.0,0.0,0.0,0.0,0.0,0.0,0.0,0.0,0.0,0.0,0.0,0.0,0.0,0.0,0.0,0.0,0.0,0.0,0.0,0.0,0.0,0.0,0.0,0.0,0.0,0.0,0.0,0.0,0.0,0.0,0.0,0.0,0.0,0.0,0.0,0.0,0.0,0.0,0.0,0.0,0.0,0.0,0.0,0.0,0.0,0.0,0.0,0.0,0.0,0.0,0.0,0.0,0.0,0.0,0.0,0.0,0.0,0.0,0.0,0.0,0.0,0.0,0.0,0.0,0.0,0.0,0.0,0.0,0.0,0.0,0.0,0.0,0.0,0.0,0.0,0.0,0.0,0.0,0.0,0.0,0.0,0.0,0.0,0.0,0.0,0.0,0.0,0.0,0.0,0.0,0.0,0.0,0.0,0.0,0.0,0.0,0.0,0.0,0.0,0.0,0.0,0.0,0.0,0.0,0.0,0.0,0.0,0.0,0.0,0.0,0.0,0.0,0.0,0.0,0.0,0.0,0.0,0.0,0.0,0.0,0.0,0.0,0.0,0.0,0.0,0.0,0.0,0.0,0.0,0.0,0.0,0.0,0.0,0.0,0.0,0.0,0.0,0.0,0.0,0.0,0.0,0.0,0.0,0.0,0.0,0.0,0.0,0.0,0.0,0.0,0.0,0.0,0.0,0.0,0.0,0.0,0.0,0.0,0.0,0.0,0.0,0.0,0.0,0.0,0.0,0.0,0.0,0.0,0.0,0.0,0.0,0.0,0.0,0.0,0.0,0.0,0.0,0.0,0.0,0.0,0.0,0.0,0.0,0.0,0.0,0.0,0.0,0.0,0.0,0.0,0.0,0.0,0.0,0.0,0.0,0.0,0.0,0.0,0.0,0.0,0.0,0.0,0.0,0.0,0.0,0.0,0.0,0.0,0.0,0.0,0.0,0.0,0.0,0.0,0.0,0.0,0.0,0.0,0.0,0.0,0.0,0.0,0.0,0.0,0.0,0.0,0.0,0.0,0.0,0.0,0.0,0.0,0.0,0.0,0.0,0.0,0.0,0.0,0.0,0.0,0.0,0.0,0.0,0.0,0.0,0.0,0.0,0.0,0.0,0.0,0.0,0.0,0.0,0.0,0.0,0.0,0.0,0.0,0.0,0.0,0.0,0.0,0.0,0.0,0.0,0.0,0.0,0.0,0.0,0.0,0.0,0.0,0.0,0.0,0.0,0.0,0.0,0.0,0.0,0.0,0.0,0.0,0.0,0.0,0.0,0.0,0.0,0.0,0.0,0.0,0.0,0.0,0.0,0.0,0.0,0.0,0.0,0.0,0.0,0.0,0.0,0.0,0.0,0.0,0.0,0.0,0.0,0.0,0.0,0.0,0.0,0.0,0.0,0.0,0.0,0.0,0.0,0.0,0.0,0.0,0.0,0.0,0.0,0.0,0.0,0.0,0.0,0.0,0.0,0.0,0.0,0.0,0.0,0.0,0.0,0.0,0.0,0.0,0.0,0.0,0.0,0.0,0.0,0.0,0.0,0.0,0.0,0.0,0.0,0.0,0.0,0.0,0.0,0.0,0.0,0.0,0.0,0.0,0.0,0.0,0.0,0.0,0.0,0.0,0.0,0.0,0.0,0.0,0.0,0.0,0.0,0.0,0.0,0.0,0.0,0.0,0.0,0.0,0.0,0.0,0.0,0.0,0.0,0.0,0.0,0.0,0.0,0.0,0.0,0.0,0.0,0.0,0.0,0.0,0.0,0.0,0.0,0.0,0.0,0.0,0.0,0.0,0.0,0.0,0.0,0.0,0.0,0.0,0.0,0.0,0.0,0.0,0.0,0.0,0.0,0.0,0.0,0.0,0.0,0.0,0.0,0.0,0.0,0.0,0.0,0.0,0.0,0.0,0.0,0.0,0.0,0.0,0.0,0.0,0.0,0.0,0.0,0.0,0.0,0.0,0.0,0.0,0.0,0.0,0.0,0.0,0.0,0.0,0.0,0.0,0.0,0.0,0.0,0.0,0.0,0.0,0.0,0.0,0.0,0.0,0.0,0.0,0.0,0.0,0.0,0.0,0.0,0.0,0.0,0.0,0.0,0.0,0.0,0.0,0.0,0.0,0.0,0.0,0.0,0.0,0.0,0.0,0.0,0.0,0.0,0.0,0.0,0.0,0.0,0.0,0.0,0.0,0.0,0.0,0.0,0.0,0.0,0.0,0.0,0.0,0.0,0.0,0.0,0.0,0.0,0.0,0.0,0.0,0.0,0.0,0.0,0.0,0.0,0.0,0.0,0.0,0.0,0.0,0.0,0.0,0.0,0.0,0.0,0.0,0.0,0.0,0.0,0.0,0.0,0.0,0.0,0.0,0.0,0.0,0.0,0.0,0.0,0.0,0.0,0.0,0.0,0.0,0.0,0.0,0.0,0.0,0.0,0.0,0.0,0.0,0.0,0.0,0.0,0.0,0.0,0.0,0.0,0.0,0.0,0.0,0.0,0.0,0.0,0.0,0.0,0.0,0.0,0.0,0.0,0.0,0.0,0.0,0.0,0.0,0.0,0.0,0.0,0.0,0.0,0.0,0.0,0.0,0.0,0.0,0.0,0.0,0.0,0.0,0.0,0.0,0.0,0.0,0.0,0.0,0.0,0.0,0.0,0.0,0.0,0.0,0.0,0.0,0.0,0.0,0.0,0.0,0.0,0.0,0.0,0.0,0.0,0.0,0.0,0.0,0.0,0.0,0.0,0.0,0.0,0.0,0.0,0.0,0.0,0.0,0.0,0.0,0.0,0.0,0.0,0.0,0.0,0.0,0.0,0.0,0.0,0.0,0.0,0.0,0.0,0.0,0.0,0.0,0.0,0.0,0.0,0.0,0.0,0.0,0.0,0.0,0.0,0.0,0.0,0.0,0.0,0.0,0.0,0.0,0.0,0.0,0.0,0.0,0.0,0.0,0.0,0.0,0.0,0.0,0.0,0.0,0.0,0.0,0.0,0.0,0.0,0.0,0.0,0.0,0.0,0.0,0.0,0.0,0.0,0.0,0.0,0.0,0.0,0.0,0.0,0.0,0.0,0.0,0.0,0.0,0.0,0.0,0.0,0.0,0.0,0.0,0.0,0.0,0.0,0.0,0.0,0.0,0.0,0.0,0.0,0.0,0.0,0.0,0.0,0.0,0.0,0.0,0.0,0.0,0.0,0.0,0.0,0.0,0.0,0.0,0.0,0.0,0.0,0.0,0.0,0.0,0.0,0.0,0.0,0.0,0.0,0.0,0.0,0.0,0.0,0.0,0.0,0.0,0.0,0.0,0.0,0.0,0.0,0.0,0.0,0.0,0.0,0.0,0.0,0.0,0.0,0.0,0.0,0.0,0.0,0.0,0.0,0.0,0.0,0.0,0.0,0.0,0.0,0.0,0.0,0.0,0.0,0.0,0.0,0.0,0.0,0.0,0.0,5.0946,4.8808,0.0,0.0,0.0,0.0,0.0,0.0,0.0,0.0,0.0,0.0,0.0,0.0,0.0,0.0,0.0,0.0,0.0,0.0,0.0,0.0,0.0,0.0,0.0,0.0,0.0,0.0,0.0,0.0,0.0,0.0,0.0,0.0,0.0,0.0,0.0,0.0,0.0,5.6619,5.6441,5.6442,5.6461,5.5713,5.3955,5.1344,0.0,0.0,0.0,0.0,0.0,0.0,0.0,0.0,0.0,0.0,0.0,0.0,0.0,0.0,0.0,0.0,0.0,0.0,0.0,0.0,0.0,0.0,0.0,0.0,0.0,0.0,0.0,0.0,0.0,0.0,0.0,0.0,0.0,0.0,0.0,0.0,0.0,0.0,0.0,0.0,0.0,0.0,0.0,0.0,0.0,0.0,0.0,0.0,0.0,0.0,0.0,0.0,0.0,0.0,0.0,0.0,0.0,0.0,0.0,0.0,0.0,0.0,0.0,0.0,0.0,0.0,0.0,0.0,0.0,0.0,5.5423,5.3003,0.0,0.0,0.0,0.0,0.0,0.0,0.0,0.0,0.0,0.0,0.0,0.0,0.0,0.0,0.0,0.0,0.0,0.0,0.0,0.0,0.0,0.0,0.0,0.0,5.3237,5.4152,5.3479,0.0,0.0,0.0,0.0,0.0,0.0,0.0,5.4585,5.6673,5.8137,5.8921,5.9908,6.0647,6.1065,6.0029,5.7278,5.3179,5.3125,0.0,0.0,0.0,0.0,0.0,0.0,0.0,0.0,0.0,0.0,0.0,0.0,0.0,0.0,0.0,0.0,0.0,0.0,0.0,0.0,0.0,0.0,0.0,0.0,0.0,0.0,0.0,0.0,0.0,0.0,0.0,0.0,0.0,0.0,0.0,0.0,0.0,0.0,0.0,0.0,0.0,0.0,0.0,0.0,0.0,0.0,0.0,0.0,0.0,0.0,0.0,0.0,0.0,0.0,0.0,0.0,0.0,0.0,0.0,0.0,0.0,0.0,0.0,6.5229,6.5787,6.5203,6.5803,6.5704,6.4938,6.1559,5.8986,5.706,5.6204,0.0,0.0,0.0,0.0,0.0,0.0,0.0,0.0,0.0,0.0,0.0,0.0,0.0,0.0,0.0,0.0,0.0,0.0,0.0,0.0,0.0,5.473,5.5904,5.6735,5.6542,5.6099,0.0,0.0,0.0,0.0,0.0,0.0,5.6196,5.7775,5.9551,6.1449,6.3384,6.3905,6.3155,6.3833,6.303,6.0832,5.664,5.5581,5.6743,0.0,0.0,0.0,0.0,0.0,0.0,0.0,0.0,0.0,0.0,0.0,0.0,0.0,0.0,0.0,0.0,0.0,0.0,0.0,0.0,0.0,0.0,0.0,0.0,0.0,0.0,0.0,0.0,0.0,0.0,0.0,0.0,0.0,0.0,0.0,0.0,0.0,0.0,0.0,0.0,0.0,5.9012,6.0392,0.0,0.0,0.0,0.0,0.0,0.0,0.0,0.0,0.0,0.0,0.0,0.0,0.0,6.2975,6.4008,6.67,6.8457,6.9319,7.227,7.3606,7.3501,7.3451,7.3359,7.3253,7.3161,0.0,6.2055,6.0597,0.0,0.0,0.0,0.0,0.0,0.0,0.0,0.0,0.0,0.0,0.0,0.0,0.0,0.0,0.0,0.0,0.0,0.0,0.0,0.0,0.0,5.7435,5.9087,5.9501,6.0614,6.0622,5.8936,0.0,0.0,0.0,0.0,5.8083,5.8276,6.0218,6.2705,6.5665,6.7494,6.8538,6.8953,6.8813,6.8359,6.7496,6.3888,6.1006,5.8736,5.7157,0.0,0.0,0.0,0.0,0.0,0.0,0.0,0.0,0.0,0.0,0.0,0.0,0.0,0.0,0.0,0.0,0.0,0.0,0.0,0.0,0.0,0.0,0.0,0.0,0.0,0.0,0.0,0.0,0.0,0.0,0.0,0.0,0.0,0.0,0.0,0.0,0.0,0.0,0.0,5.9864,6.1503,6.1219,6.1092,6.036,0.0,0.0,0.0,0.0,0.0,0.0,0.0,0.0,0.0,6.6352,6.7129,6.8505,7.0585,7.1922,7.3191,7.435,7.6183,7.6799,7.6412,7.675,7.6686,7.6258,7.654,7.4527,7.0925,6.7936,6.5688,6.3855,0.0,0.0,0.0,0.0,5.9858,5.9752,0.0,0.0,0.0,0.0,0.0,0.0,0.0,0.0,0.0,0.0,0.0,0.0,5.7666,6.0118,6.1986,6.2677,6.4296,6.445,6.2451,6.2308,0.0,5.9424,5.9795,6.0072,6.0027,6.3086,6.6382,6.9927,7.1649,7.3172,7.4409,7.3854,7.3446,7.3005,7.0914,6.701,6.195,6.1063,5.8942,5.6155,0.0,0.0,0.0,0.0,0.0,0.0,0.0,0.0,0.0,0.0,0.0,0.0,0.0,0.0,0.0,0.0,0.0,0.0,0.0,0.0,0.0,0.0,0.0,0.0,0.0,0.0,0.0,0.0,0.0,0.0,0.0,0.0,0.0,0.0,0.0,0.0,0.0,6.38,6.4955,6.3317,6.482,6.4655,0.0,0.0,0.0,0.0,0.0,0.0,6.8076,6.9081,7.0306,7.1852,7.2714,7.4295,7.6768,7.6804,7.7447,7.8771,7.9352,7.9319,7.8781,7.9359,7.9324,7.8783,7.8963,7.9035,7.8711,7.419,7.1154,6.9179,6.7092,6.5295,6.4076,6.5254,6.5074,6.471,0.0,0.0,0.0,0.0,0.0,0.0,0.0,0.0,0.0,0.0,0.0,5.8861,6.069,6.235,6.421,6.6495,6.6817,6.6563,6.5703,6.3494,6.1819,6.1026,6.0967,6.0944,6.095,6.6228,7.0487,7.3545,7.586,7.7275,7.7755,7.8441,7.8092,7.6904,7.6054,7.2756,6.763,6.4288,6.1981,6.0522,5.8531,0.0,0.0,0.0,0.0,0.0,0.0,0.0,0.0,0.0,0.0,0.0,0.0,0.0,0.0,0.0,0.0,0.0,0.0,0.0,0.0,0.0,0.0,0.0,0.0,0.0,0.0,0.0,0.0,0.0,0.0,0.0,0.0,0.0,0.0,0.0,0.0,0.0,0.0,6.8809,7.1036,0.0,0.0,0.0,0.0,6.847,6.9958,7.1874,7.4155,7.5677,7.7159,7.8675,7.9504,8.0332,8.116,8.1196,8.1554,8.2342,8.2432,8.2423,8.235,8.2435,8.246,8.2497,8.3235,8.3566,8.3139,7.7374,7.4047,7.2437,7.1027,6.9509,6.8139,6.8399,6.8899,6.9444,0.0,0.0,0.0,0.0,0.0,0.0,0.0,0.0,5.8135,5.875,6.0394,6.2168,6.3884,6.7258,6.9938,7.1391,7.2924,7.3222,7.1788,6.8997,6.7247,6.6907,6.4885,6.5234,6.8394,7.096,7.4011,7.7663,7.9049,8.0263,8.1366,8.0957,8.0829,8.0788,7.9342,7.7081,7.4179,7.0738,6.7469,6.4534,6.382,6.0905,0.0,0.0,0.0,0.0,0.0,0.0,0.0,0.0,0.0,0.0,0.0,0.0,0.0,0.0,0.0,0.0,0.0,0.0,0.0,0.0,0.0,0.0,0.0,0.0,0.0,0.0,0.0,0.0,0.0,0.0,0.0,0.0,0.0,0.0,0.0,0.0,0.0,7.3506,7.6829,0.0,7.4432,7.5365,7.6417,7.6931,7.8473,7.9984,8.1379,8.197,8.2451,8.3004,8.3301,8.3524,8.3817,8.3817,8.3929,8.4222,8.3724,8.3456,8.3419,8.294,8.2696,8.2733,8.2991,8.3139,8.2997,8.0878,7.9369,7.8231,7.6716,7.5135,7.3706,7.3765,7.3619,7.3472,0.0,0.0,0.0,0.0,0.0,0.0,0.0,0.0,5.9679,6.0751,6.2761,6.5029,6.7467,7.1239,7.4171,7.5572,7.6899,7.7282,7.6383,7.2797,7.0781,7.1001,6.8632,6.9364,7.3687,7.5192,7.7594,8.097,8.1796,8.2679,8.3646,8.2918,8.2837,8.3212,8.1958,8.0805,7.9554,7.7077,7.2965,6.8102,6.7668,6.531,6.1737,0.0,0.0,0.0,0.0,0.0,0.0,0.0,0.0,0.0,0.0,0.0,0.0,0.0,0.0,0.0,0.0,0.0,0.0,0.0,0.0,0.0,0.0,0.0,0.0,0.0,0.0,0.0,0.0,0.0,0.0,0.0,0.0,0.0,0.0,7.5845,7.9134,7.7041,8.1317,8.3152,7.9927,8.1652,8.3133,8.3688,8.4984,8.6095,8.6915,8.6952,8.6915,8.6915,8.6656,8.6545,8.6545,8.6249,8.599,8.5662,8.5107,8.4589,8.4034,8.3516,8.3109,8.2887,8.3146,8.3257,8.3257,8.3257,8.2806,8.1918,8.023,7.8721,7.7493,7.7262,7.6847,7.6402,0.0,0.0,0.0,0.0,0.0,0.0,0.0,6.0862,6.1649,6.3303,6.4914,6.7432,7.15,7.4136,7.6614,7.9046,7.8499,7.8351,7.9128,7.444,7.1968,7.2751,7.1957,7.2973,7.627,7.8694,8.1087,8.3411,8.4208,8.4552,8.4477,8.4477,8.4355,8.4077,8.4071,8.391,8.3593,8.2891,7.8315,7.1503,7.0153,6.9169,6.7891,0.0,0.0,0.0,0.0,0.0,0.0,0.0,0.0,0.0,0.0,0.0,0.0,0.0,0.0,0.0,0.0,0.0,0.0,0.0,0.0,0.0,0.0,0.0,0.0,0.0,0.0,0.0,0.0,0.0,0.0,0.0,0.0,0.0,7.4682,7.8618,8.1131,7.9609,8.4472,8.6751,8.3669,8.6351,8.827,8.827,8.8976,8.9756,9.0536,9.0536,9.0536,9.0536,8.9756,8.931,8.931,8.853,8.7712,8.6821,8.6821,8.5966,8.4443,8.4443,8.396,8.3217,8.4035,8.4369,8.4369,8.4332,8.3849,8.2994,8.1222,8.0052,7.9229,7.8555,7.8313,7.8128,0.0,0.0,0.0,0.0,0.0,0.0,0.0,6.2746,6.3615,6.5916,6.8669,7.1551,7.4529,7.8544,8.1319,8.2009,8.2385,8.2084,8.1018,7.6705,7.3825,7.2982,7.4338,7.6928,8.0801,8.2002,8.379,8.6194,8.6275,8.6317,8.6283,8.6283,8.6247,8.6138,8.5504,8.5195,8.5081,8.4227,8.2708,8.0565,7.8443,7.6186,7.3788,0.0,0.0,0.0,0.0,0.0,0.0,0.0,0.0,0.0,0.0,0.0,0.0,0.0,0.0,0.0,0.0,0.0,0.0,0.0,0.0,0.0,0.0,0.0,0.0,0.0,0.0,0.0,0.0,0.0,0.0,0.0,7.7422,7.9511,7.9009,8.2616,8.5621,8.6431,8.9474,9.1437,9.114,9.1952,9.2505,9.2505,9.2171,9.2059,9.2282,9.1725,9.1353,9.1353,9.0573,8.9904,8.931,8.9087,8.8567,8.7712,8.7081,8.6264,8.5261,8.5261,8.4518,8.3217,8.4035,8.4072,8.3477,8.2883,8.2511,8.2288,8.1776,8.0708,7.9409,7.9242,7.8425,7.7412,0.0,0.0,0.0,0.0,0.0,0.0,0.0,6.3871,6.4906,6.7464,7.0688,7.3835,7.668,8.0747,8.3165,8.2778,8.2854,8.2316,8.0877,7.8714,7.6949,7.5682,7.8346,8.1082,8.3816,8.4703,8.6121,8.8233,8.7546,8.7418,8.7749,8.7381,8.7234,8.72,8.6676,8.6427,8.6427,8.5917,8.5912,8.613,8.4679,8.2351,7.9339,7.58,7.3862,7.2875,7.1313,7.0823,7.0763,6.9926,0.0,0.0,0.0,0.0,0.0,0.0,0.0,0.0,0.0,0.0,0.0,0.0,0.0,0.0,0.0,0.0,0.0,0.0,0.0,0.0,0.0,0.0,0.0,0.0,8.1047,8.3595,8.4554,8.6214,8.8233,9.0573,9.2133,9.3434,9.4585,9.44,9.4214,9.4214,9.3434,9.2988,9.2988,9.2505,9.2245,9.2245,9.1428,9.0796,9.0313,8.9979,8.9384,8.8604,8.8084,8.723,8.6115,8.6115,8.5223,8.3737,8.4183,8.3923,8.3143,8.2326,8.1768,0.0,0.0,0.0,0.0,0.0,7.8165,7.7115,0.0,0.0,0.0,0.0,0.0,0.0,0.0,6.4518,6.5804,6.8425,7.1635,7.4866,7.8076,8.1419,8.3107,8.2342,8.1545,8.0726,7.9881,8.0255,8.034,7.9925,8.2874,8.4929,8.5812,8.6851,8.808,8.9473,8.8264,8.809,8.8831,8.8164,8.7831,8.7831,8.7831,8.7831,8.7831,8.7688,8.8201,8.8979,8.8984,8.7374,8.4514,7.9535,7.8854,8.0181,7.8031,7.6747,7.5963,7.5227,0.0,0.0,0.0,0.0,0.0,0.0,0.0,0.0,0.0,0.0,0.0,0.0,0.0,0.0,0.0,0.0,0.0,0.0,0.0,0.0,0.0,0.0,0.0,0.0,8.5171,8.8204,9.0531,8.9764,9.005,9.2896,9.3277,9.3879,9.5403,9.4883,9.4474,9.4474,9.3731,9.3248,9.3248,9.3174,0.0,0.0,0.0,9.1832,9.1817,9.1014,9.0202,8.931,8.931,8.8418,8.6821,8.6987,8.6162,8.4637,8.4711,8.4265,8.3372,8.2466,8.1508,8.0468,7.9688,7.9354,7.9279,7.8536,7.7719,7.6966,0.0,0.0,0.0,0.0,0.0,0.0,0.0,6.5281,6.6923,7.0099,7.2909,7.5654,7.8269,8.1612,8.3572,8.3401,8.2583,8.1813,8.1328,8.0125,8.0692,8.3521,8.4939,8.6355,8.7833,8.857,8.9084,8.9423,8.9023,8.8887,8.9037,8.9591,8.9844,8.9844,8.9844,8.9844,8.9806,8.9102,8.929,9.0107,9.0107,8.9591,8.868,8.6326,8.529,8.4948,8.3876,8.3313,8.2892,8.1514,8.0258,7.8995,7.7032,0.0,0.0,0.0,0.0,0.0,0.0,0.0,0.0,0.0,0.0,0.0,0.0,0.0,0.0,0.0,0.0,0.0,0.0,0.0,0.0,8.6597,8.9415,9.2012,9.4424,9.4534,9.4479,9.4647,9.4835,9.5328,9.6257,9.622,9.6146,9.6146,9.5403,9.4957,9.4957,9.4325,9.4179,9.4601,9.3392,9.2615,9.2421,9.1789,9.0722,8.931,8.931,0.0,8.6852,8.7919,8.7548,8.6077,8.6686,8.6162,8.4738,8.3487,8.1694,7.9651,7.8833,7.8536,7.8499,7.8351,7.7347,7.6159,0.0,0.0,0.0,0.0,0.0,0.0,0.0,6.5731,6.707,7.0053,7.2701,7.5092,7.7172,8.0063,8.1335,8.0063,7.9919,8.0153,8.0805,8.2035,8.3948,8.6681,8.8002,8.9035,8.9817,8.9904,9.0144,9.0494,8.9728,8.9553,9.0007,9.0007,8.9995,8.9995,8.9995,8.9995,8.9995,8.9516,8.9856,9.0612,9.0184,9.0422,9.0946,8.9967,8.9115,8.8442,8.8853,8.8272,8.7217,8.649,8.4717,8.2591,8.1585,7.9269,7.6689,0.0,0.0,0.0,0.0,0.0,0.0,0.0,0.0,0.0,0.0,0.0,0.0,0.0,0.0,8.083,8.2927,0.0,8.7911,9.0882,9.2879,9.4895,9.7295,9.7338,9.7052,9.679,9.6852,9.7245,9.8003,9.7741,9.7508,9.7508,9.6719,9.6269,9.6269,9.5855,9.5778,9.6026,9.4988,9.4386,9.4243,9.352,9.2521,9.1348,9.0907,9.0043,8.8869,8.9065,8.8518,8.7411,8.7827,8.7336,8.6065,8.4325,8.2621,8.0987,7.994,7.8982,7.8276,7.8276,7.7496,7.6567,0.0,0.0,0.0,0.0,0.0,0.0,0.0,6.5758,6.6773,6.9347,7.1626,7.3572,7.5092,7.7202,7.7703,7.5645,7.6854,7.8513,8.0365,8.4199,8.7286,8.9293,9.0821,9.1638,9.1556,9.1315,9.149,9.2079,9.0803,9.0548,9.121,9.0548,9.0205,9.0205,9.0205,9.0182,9.0159,9.0007,9.0403,9.114,9.0464,9.0996,9.2205,9.2313,9.1749,9.1151,9.2409,9.161,8.9863,8.9977,8.7744,8.4985,8.5317,8.3368,8.0715,7.9254,7.9123,0.0,0.0,0.0,0.0,0.0,0.0,0.0,0.0,8.0255,8.0865,8.2883,8.4709,8.6604,8.8941,9.0566,9.2307,9.4718,9.6127,9.7634,9.967,9.9789,9.9632,9.948,9.897,9.8875,9.9531,9.9027,9.8648,9.8648,9.7966,9.7689,9.784,9.7537,9.7475,9.7769,9.6717,9.6122,9.6072,9.5262,9.4338,9.3378,9.2519,9.1685,9.0876,9.0101,8.9503,8.9032,8.9032,8.8431,8.7289,8.5587,8.4167,8.2975,8.1906,8.0597,7.9263,7.883,7.8058,7.7351,0.0,0.0,0.0,0.0,0.0,0.0,0.0,0.0,6.6244,6.8622,6.9882,7.0874,7.1676,7.2684,7.32,7.288,7.6353,7.9632,8.214,8.4879,8.7827,9.0975,9.2055,9.2557,9.2541,9.3241,9.3649,9.3709,9.2811,9.2409,9.2486,9.2409,9.2332,9.2332,9.2332,9.2336,9.221,9.1441,9.158,9.2314,9.229,9.2364,9.271,9.4282,9.4088,9.3011,9.3163,9.2152,9.0764,9.0764,8.949,8.8041,8.8784,8.7787,8.5882,8.3528,8.1869,8.0201,7.7573,7.7855,7.9761,8.341,8.3001,8.3341,0.0,8.8528,8.7337,9.0565,9.1408,9.2118,9.3905,9.5001,9.6232,9.8,9.9653,10.1093,10.2094,10.3496,10.4107,10.3378,10.0985,9.9493,9.9569,9.9493,9.9455,9.9455,9.9379,9.9672,10.043,9.9065,9.8846,10.0113,9.8073,9.6831,9.6601,9.6033,9.4971,9.3378,9.2519,9.1685,9.0876,9.0486,9.0682,9.1331,9.1315,9.0159,8.8236,8.806,8.6621,8.4438,8.4315,8.3686,8.2679,8.0681,7.9016,7.7841,0.0,0.0,0.0,0.0,0.0,0.0,0.0,0.0,0.0,6.7976,6.8559,6.9123,6.9896,7.0308,7.0696,7.1184,7.562,7.9427,8.2029,8.5951,8.9435,9.2303,9.2721,9.3068,9.3524,9.3871,9.4049,9.4001,9.3136,9.2711,9.2711,9.2171,9.194,9.194,9.194,9.1924,9.1892,9.149,9.1551,9.1864,9.1914,9.22,9.2701,9.2927,9.269,9.2275,9.2773,9.1347,0.0,0.0,8.8197,8.7108,8.7895,8.7341,8.5947,8.373,8.3302,8.325,8.2033,8.2099,8.3009,8.5273,8.5954,8.7171,9.1518,9.1748,9.1748,9.421,9.548,9.6365,9.7057,9.8327,9.9596,10.0789,10.1597,10.252,10.3905,10.3789,10.3712,10.3905,10.2402,10.1507,10.2119,10.1622,10.1622,10.2119,10.1622,10.1698,10.2616,10.2004,10.1597,10.1716,9.9857,9.8555,9.7917,9.6733,9.5784,9.5079,9.4199,9.3357,9.2515,9.1893,9.1548,9.1433,9.1932,9.1068,8.9223,8.846,8.7514,8.6464,8.5705,8.5066,8.4272,8.1627,8.0499,8.0272,0.0,0.0,0.0,0.0,0.0,0.0,0.0,0.0,0.0,0.0,6.698,6.7472,6.8304,6.8416,6.8767,6.9629,7.4188,7.8201,8.1013,8.5922,8.9897,9.2463,9.317,9.371,9.424,9.4677,9.4878,9.482,9.3918,9.3469,9.3431,9.235,9.1848,9.1809,9.1578,9.1446,9.147,9.147,9.1415,9.14,9.1415,9.1701,9.1971,9.1385,9.0535,8.9879,9.0898,8.9564,0.0,0.0,8.582,8.5062,8.5626,8.5545,8.4923,8.3448,8.3696,8.4498,8.4511,8.5071,8.5973,8.7478,8.9188,9.1129,9.3651,9.448,9.5249,9.698,9.8288,9.9211,9.9442,10.0519,10.1597,10.252,10.2789,10.3405,10.4597,10.4097,10.3597,10.3482,10.2981,10.2904,10.3789,10.3097,10.3097,10.4097,10.3597,10.3712,10.4482,10.4406,10.3906,10.2981,10.1597,10.0288,9.9173,9.7942,9.7096,9.6634,9.5749,9.4788,9.3672,9.2864,9.2402,9.2287,9.2903,9.221,9.0538,8.9573,8.8768,8.8002,8.7048,8.65,8.6011,8.3577,8.2593,8.2222,0.0,0.0,0.0,0.0,0.0,0.0,0.0,0.0,0.0,0.0,0.0,0.0,0.0,6.6668,6.698,6.7798,7.1844,7.578,7.9169,8.4189,8.824,9.0865,9.3312,9.4676,9.4676,9.6128,9.6916,9.6916,9.5918,9.5429,9.539,9.3713,9.2939,9.29,9.205,9.1659,9.16,9.16,9.1516,9.14,9.1531,9.1097,9.0363,9.0411,8.8375,8.5693,8.72,0.0,0.0,8.3254,8.2637,8.2607,8.2571,8.3095,8.3734,8.3593,8.3,8.2577,8.3401,8.5482,8.8226,9.1514,9.3628,9.5567,9.8038,9.798,9.7865,9.9635,9.9981,10.0289,10.1096,10.1289,10.1597,10.252,10.3289,10.3905,10.3905,10.529,10.5405,10.2904,10.2597,10.2904,10.3789,10.3097,10.3289,10.4905,10.4982,10.5405,10.629,10.562,10.4793,10.3905,10.3079,10.1808,10.0115,9.9981,9.9135,9.7442,9.6634,9.5365,9.3672,9.2864,9.3364,9.4864,9.4903,9.398,9.2402,9.2385,9.0885,8.8654,8.8615,8.8615,8.85,8.7538,8.5353,8.2875,0.0,0.0,0.0,0.0,0.0,0.0,0.0,0.0,0.0,0.0,0.0,0.0,0.0,0.0,0.0,0.0,7.0917,7.4195,7.7671,8.2667,8.6614,8.9189,9.2237,9.3826,9.3819,9.5486,9.6021,9.5334,9.5565,9.5313,9.4617,9.4075,9.3495,9.2992,9.2683,9.2243,9.1673,9.1673,9.162,9.1567,9.1016,9.0977,9.0977,8.8723,8.6107,8.3476,0.0,0.0,0.0,8.0279,8.0007,8.0183,8.1268,8.1785,8.197,8.1955,8.2516,8.3593,8.5593,8.8012,9.0744,9.4172,9.5845,9.721,9.923,9.9442,9.9519,10.0712,9.9981,9.9327,9.9596,9.9635,9.9942,10.0789,10.2097,10.3405,10.4482,10.5213,10.4982,10.3597,10.3482,10.3597,10.3905,10.2597,10.3212,10.6597,10.579,10.5713,10.7213,10.6523,10.5599,10.4713,10.3906,10.2713,10.0904,10.0404,9.9211,9.748,9.5518,9.4249,9.3672,9.3403,9.3287,9.3364,9.3903,9.3172,9.1595,9.1018,8.994,8.8709,8.8709,8.8709,8.8671,8.8363,8.7602,8.6499,0.0,0.0,0.0,0.0,0.0,0.0,0.0,0.0,0.0,0.0,0.0,0.0,0.0,0.0,0.0,0.0,0.0,7.1992,7.5156,7.9523,8.3142,8.5715,8.8451,9.0022,9.0364,9.1376,9.1871,9.1821,9.2325,9.2673,9.2837,9.2528,9.2296,9.2064,9.1754,9.1329,9.0826,9.0826,9.0981,9.1097,8.9627,8.9395,8.9511,8.6068,8.3399,0.0,0.0,0.0,7.7546,7.7163,7.7177,7.7574,7.8956,7.9961,8.0746,8.1362,8.2939,8.5132,8.7979,9.1073,9.4187,9.696,9.898,10.05,10.1308,10.1481,10.1404,10.1289,9.9712,9.825,9.7942,9.7403,9.7442,9.8942,10.0096,10.1597,10.3905,10.4212,10.4097,10.3905,10.3597,10.3789,10.4713,10.3212,10.3789,10.7405,10.6713,10.6597,10.8098,10.76,10.6792,10.5597,10.5099,10.379,10.1789,10.1289,9.9981,9.7942,9.598,9.4903,9.4595,9.398,9.3613,9.3418,9.3341,9.2686,9.1647,9.0762,9.009,8.9556,8.9248,8.9325,8.9594,8.9594,8.9402,8.8825,0.0,0.0,0.0,0.0,0.0,0.0,0.0,0.0,0.0,0.0,0.0,0.0,0.0,0.0,0.0,0.0,0.0,0.0,7.164,7.5077,7.8085,8.0586,8.246,8.3827,8.4609,8.4541,8.52,8.6721,8.6651,8.7751,9.0014,8.9279,8.9317,8.9975,8.924,8.8892,8.8892,8.8931,8.9356,8.9782,8.7345,8.6339,8.5991,8.2664,0.0,0.0,0.0,7.5817,7.4904,7.42,7.4525,7.5414,7.622,7.8137,8.0439,8.2131,8.4439,8.7171,9.0594,9.4629,9.8264,9.9904,10.279,10.4985,10.4079,10.3905,10.3289,10.152,9.9096,9.698,9.6134,9.4672,9.4403,9.6942,9.7557,9.8904,10.2289,10.2789,10.3212,10.3982,10.3405,10.3789,10.6213,10.4982,10.5097,10.7598,10.7713,10.8098,10.8906,10.9009,10.8316,10.6597,10.6506,10.5197,10.2789,10.2616,10.1308,9.8884,9.7961,9.7114,9.6345,9.4575,9.4282,9.5045,9.335,9.2618,9.2541,9.1655,9.1241,9.1056,9.021,9.0402,9.1095,9.1133,9.0594,8.9633,0.0,0.0,0.0,0.0,0.0,0.0,0.0,0.0,0.0,0.0,0.0,0.0,0.0,0.0,0.0,0.0,0.0,0.0,6.9062,7.2383,7.4883,7.6172,7.9726,8.1444,8.0955,8.2115,8.286,8.304,8.3648,8.4249,8.4753,8.5178,8.514,8.4753,8.5178,8.5024,8.4482,8.5101,8.514,8.4598,8.3322,8.2819,8.2587,0.0,0.0,0.0,7.6552,7.5407,7.4277,7.5309,7.7794,8.0636,8.1408,8.2993,8.4824,8.6555,8.8863,9.1595,9.498,9.8076,10.0789,10.2481,10.4079,10.4906,10.4097,10.3405,10.2289,9.9904,9.6403,9.3326,9.1825,9.171,9.2672,9.5211,9.8288,10.152,10.502,10.602,10.6482,10.6713,10.6521,10.6713,10.729,10.6982,10.7213,10.8482,10.8021,10.829,10.979,10.8696,10.808,10.829,10.6387,10.5196,10.4581,10.2094,10.0589,9.9895,9.843,9.7637,9.7367,9.5654,9.5015,9.5131,9.3384,9.2618,9.2541,9.1626,9.0843,9.021,8.9979,8.9671,8.9402,9.0017,8.971,8.894,0.0,0.0,0.0,0.0,0.0,0.0,0.0,0.0,0.0,0.0,0.0,0.0,0.0,0.0,0.0,0.0,0.0,0.0,0.0,6.8884,7.0759,7.1614,7.3924,7.5319,7.5545,7.6096,7.6838,7.7792,7.8267,7.901,7.9995,8.0111,8.0072,7.9995,8.0498,8.0408,7.9996,8.0911,8.122,0.0,0.0,7.9492,0.0,0.0,0.0,7.5933,7.6707,7.729,7.8001,8.0009,8.2429,8.4796,8.5995,8.7786,8.9863,9.1941,9.4134,9.6326,9.8557,10.1019,10.3212,10.4212,10.5097,10.529,10.3712,10.2712,10.1096,9.7788,9.4057,9.0825,8.9133,8.921,9.0364,9.2903,9.6596,10.0404,10.4212,10.6097,10.7405,10.8098,10.8906,10.9406,10.9406,10.8983,10.9098,11.0021,10.8906,10.879,11.0098,10.8906,10.8406,10.8906,10.679,10.5407,10.4696,10.2113,10.0817,10.0891,9.9891,9.9043,9.8323,9.696,9.5974,9.5229,9.3444,9.2502,9.2101,9.1518,9.1219,9.1031,9.065,9.0441,9.0364,9.0441,8.994,8.9171,0.0,0.0,0.0,0.0,0.0,0.0,0.0,0.0,0.0,0.0,0.0,0.0,0.0,0.0,0.0,0.0,0.0,0.0,0.0,0.0,6.6594,6.735,6.753,6.8344,6.9824,6.9234,7.0019,7.2254,7.2129,7.321,7.5341,7.4595,7.4634,7.538,7.5496,7.5499,7.554,7.6555,7.7367,7.7743,7.6413,7.6397,0.0,0.0,0.0,7.5508,7.7248,7.9958,8.3087,8.5743,8.7394,8.8573,9.0364,9.2672,9.5172,9.7634,9.9481,10.0981,10.1904,10.3789,10.5597,10.5597,10.6097,10.5905,10.3212,10.1789,9.975,9.5403,9.1787,8.8902,8.7209,8.6978,8.8017,9.0902,9.4134,9.7942,10.2597,10.5213,10.7213,10.8983,11.0598,11.1522,11.1522,11.0791,11.0714,11.1406,11.0098,10.9598,11.0291,10.9406,10.8713,10.8406,10.7003,10.5504,10.3791,10.2423,10.1707,10.1603,10.1689,10.0781,9.9266,9.8198,9.6938,9.5478,9.3609,9.2411,9.1739,9.1492,9.1875,9.2524,9.1707,9.1748,9.2249,9.1595,9.0671,8.9671,0.0,0.0,0.0,0.0,0.0,0.0,0.0,0.0,0.0,0.0,6.1191,6.1871,0.0,0.0,0.0,0.0,0.0,0.0,0.0,0.0,0.0,6.4661,6.6069,6.6919,6.7104,6.7649,6.8441,6.9396,6.8689,6.8878,6.9957,6.9803,6.9803,6.9996,7.0729,7.1026,7.1104,7.2708,7.3068,7.2565,7.3048,7.3767,7.4541,0.0,0.0,0.0,7.8138,8.0448,8.328,8.7171,9.0394,9.3162,9.546,9.7942,10.0404,10.2212,10.3482,10.4597,10.6213,10.7405,10.8213,10.8213,10.7905,10.6597,10.3289,10.0904,9.7827,9.2864,8.9133,8.6247,8.4555,8.4863,8.6863,9.1518,9.4557,9.875,10.579,10.7213,10.8406,11.0791,11.1291,11.1522,11.1522,11.1406,11.1291,11.1522,11.1214,11.1098,11.1291,10.979,10.7905,10.579,10.5601,10.4696,10.2905,10.2709,10.23,10.1585,10.23,10.1795,10.0198,9.8582,9.7395,9.6405,9.3909,0.0,9.2512,9.166,9.1826,9.2563,9.2361,9.1941,9.1479,9.2056,9.0864,8.8979,0.0,0.0,0.0,0.0,0.0,0.0,0.0,0.0,6.0045,6.2772,6.3923,6.43,6.3785,6.338,0.0,0.0,0.0,0.0,0.0,0.0,0.0,0.0,6.4411,6.5258,6.5604,6.6456,6.7232,6.7961,0.0,6.7552,6.7915,6.744,6.7248,6.7286,6.7672,6.7853,6.7945,6.9239,6.9791,6.9922,7.129,7.2407,0.0,0.0,0.0,0.0,7.868,8.0898,8.3875,8.6689,9.0489,9.4723,9.8845,10.1904,10.4212,10.5482,10.6405,10.7213,10.7598,10.829,10.879,10.8406,10.6985,10.4792,10.0904,9.7745,9.4412,9.0163,8.6929,8.4603,8.3763,8.4324,8.5978,8.9325,9.2364,9.6519,10.2904,10.5213,10.729,10.979,11.1291,11.1791,11.0906,11.1214,11.1291,11.0906,11.1214,11.1522,11.1522,10.979,10.7713,10.5174,10.5196,10.4812,10.4099,10.3192,10.2804,10.2897,10.1917,10.1392,10.0988,9.8852,9.7704,9.7325,9.4689,9.3267,9.2705,9.1731,9.1842,9.2563,9.2515,9.2479,9.2556,9.2979,9.2095,9.0671,0.0,0.0,0.0,0.0,0.0,0.0,0.0,6.144,6.2537,6.5683,6.7222,6.7191,6.5025,6.4454,6.3903,0.0,0.0,0.0,0.0,0.0,0.0,0.0,0.0,0.0,6.4595,0.0,0.0,6.7274,6.7274,0.0,0.0,0.0,0.0,0.0,6.6044,6.5982,6.6023,6.6904,6.7752,0.0,0.0,7.1831,0.0,0.0,0.0,0.0,0.0,8.0962,8.3889,8.6036,8.9523,9.3933,9.9304,10.331,10.612,10.6908,10.7908,10.8583,10.8101,10.8506,10.8911,10.8391,10.6102,10.2885,9.8608,9.5075,9.1676,8.7972,8.5491,8.3896,8.3648,8.417,8.5247,8.7094,8.994,9.3903,9.9558,10.2904,10.5905,10.879,11.1098,11.1906,11.0598,11.1098,11.1214,11.0483,11.0906,11.1098,11.1021,10.9598,10.7713,10.5174,10.4905,10.4791,10.4677,10.3406,10.2982,10.348,10.1402,10.0704,10.1109,9.8824,9.7794,9.7681,9.5423,9.3909,9.2999,9.2017,9.2145,9.2871,9.2784,9.3249,9.398,9.398,9.3498,9.2669,0.0,0.0,0.0,0.0,0.0,0.0,0.0,6.2458,6.414,6.9065,6.976,6.9396,6.8429,6.692,6.5644,0.0,0.0,0.0,0.0,0.0,0.0,0.0,0.0,0.0,0.0,0.0,0.0,6.7191,6.7191,0.0,0.0,0.0,0.0,0.0,0.0,6.591,6.5948,6.6832,0.0,0.0,0.0,0.0,0.0,0.0,0.0,0.0,0.0,8.0188,8.2342,8.6282,8.8417,9.0203,9.4508,9.9758,10.4501,10.5293,10.6681,10.8087,10.8819,10.909,10.9302,11.0092,10.7122,10.2995,9.8751,9.5125,9.1483,8.7202,8.5529,8.4628,8.3763,8.367,8.4516,8.7017,8.894,9.2749,10.0096,10.2789,10.5482,10.9598,11.0983,11.1522,11.1406,11.1522,11.1522,11.1406,11.0714,10.9983,10.9213,10.8983,10.7713,10.5174,10.4405,10.3597,10.2924,10.2693,10.2309,10.1578,10.1308,10.0518,9.9326,9.8219,9.7384,9.6754,9.567,9.4695,0.0,9.29,9.3003,9.3774,9.3631,9.4095,9.4864,9.4864,9.4418,9.3641,0.0,0.0,0.0,0.0,0.0,0.0,6.2196,6.2166,6.4007,7.0152,7.0884,7.0855,7.1004,6.9922,6.8088,0.0,0.0,0.0,0.0,0.0,0.0,0.0,0.0,0.0,0.0,0.0,6.715,6.7937,6.7937,0.0,0.0,0.0,0.0,0.0,0.0,6.6359,6.5936,6.6782,0.0,0.0,0.0,0.0,0.0,0.0,0.0,0.0,0.0,0.0,8.1762,8.3399,8.5203,8.7044,8.8717,9.2658,9.7379,10.1203,10.3884,10.6004,10.7894,10.9186,10.9919,10.9803,10.6907,10.3006,9.818,9.4095,9.0349,8.7025,8.522,8.4288,8.4395,8.3939,8.4093,8.5632,8.6478,8.8863,9.4441,9.6673,9.9712,10.4982,10.679,10.8098,10.9098,10.9713,10.9906,10.9906,10.9598,10.879,10.7521,10.7405,10.6482,10.4405,10.4097,10.3712,10.3405,10.2904,10.2212,10.1289,10.0289,9.9518,9.8913,9.7567,9.6772,9.6519,9.512,9.4299,0.0,9.2404,9.2892,9.4495,9.3921,9.4557,9.5788,9.5788,9.5267,9.4436,0.0,0.0,0.0,0.0,0.0,5.9113,6.2533,6.2692,6.4567,7.0663,7.1309,7.1533,7.2363,7.1255,6.9347,6.6636,0.0,0.0,0.0,0.0,0.0,0.0,0.0,0.0,0.0,0.0,6.7781,6.8783,6.8783,6.8898,0.0,0.0,6.8488,6.7898,0.0,0.0,0.0,0.0,0.0,0.0,0.0,0.0,0.0,0.0,0.0,0.0,0.0,0.0,0.0,0.0,0.0,8.4598,8.4869,8.7345,9.1223,9.6519,10.0308,10.3199,10.5806,10.7775,10.9124,10.9008,10.6186,10.2411,9.7735,9.3606,8.9933,8.6993,8.5627,8.498,8.4927,8.485,8.4827,8.4927,8.5373,8.705,9.1052,9.3036,9.5922,10.0904,10.2809,10.4425,10.6407,10.7811,10.8482,10.8482,10.8098,10.7213,10.5713,10.5213,10.4405,10.3212,10.3097,10.2904,10.2404,10.1789,10.1212,10.0519,9.9096,9.846,9.8513,9.7031,9.6411,9.6382,9.4921,9.4253,0.0,9.2392,9.2956,9.4903,9.4018,9.4749,9.6288,9.6288,9.5922,9.5304,0.0,0.0,0.0,0.0,0.0,0.0,0.0,6.4486,6.6489,7.0747,7.1203,7.1427,7.2302,7.0141,6.8918,6.9678,0.0,0.0,0.0,0.0,0.0,0.0,0.0,0.0,0.0,0.0,6.8039,6.9706,6.9706,7.009,7.086,7.0052,6.9707,6.9695,0.0,0.0,0.0,0.0,0.0,0.0,0.0,0.0,0.0,0.0,0.0,0.0,0.0,0.0,0.0,0.0,0.0,0.0,0.0,8.5294,8.7472,9.1638,9.5934,9.9885,10.2395,10.4416,10.6221,10.7885,10.51,10.0999,9.7595,9.4153,9.0668,8.7108,8.7099,8.7191,8.5329,8.6401,8.704,8.5381,8.6424,8.8672,9.21,9.3956,9.5978,9.8631,9.9653,10.1212,10.3791,10.6292,10.7713,10.7713,10.6097,10.4789,10.3982,10.2289,10.1289,10.1289,10.1289,10.0519,9.8865,9.8827,9.8827,9.8827,9.7942,9.7575,9.7686,9.6709,9.6343,9.6355,9.5419,9.4998,0.0,9.3172,9.348,9.4903,9.4018,9.4749,9.6288,9.6288,9.6343,9.624,0.0,0.0,0.0,0.0,0.0,0.0,0.0,6.2228,6.3856,6.813,6.8601,6.9242,7.1249,6.9694,6.9103,7.0426,0.0,0.0,0.0,0.0,0.0,0.0,0.0,0.0,0.0,0.0,6.9772,7.1398,7.2014,7.2437,7.2668,7.1838,7.1171,7.0581,6.9501,6.8844,0.0,0.0,0.0,0.0,0.0,0.0,7.8602,0.0,0.0,0.0,0.0,0.0,0.0,0.0,0.0,0.0,0.0,0.0,0.0,8.6956,9.1533,9.6396,9.8957,10.0906,10.2199,10.2199,10.1115,9.922,9.5777,9.3302,9.0875,8.7954,8.7104,8.6703,8.606,8.6408,8.6963,8.758,8.8105,8.9054,9.0712,9.3434,9.5945,9.7858,10.1809,10.4674,10.5599,10.581,10.5905,10.5905,10.4905,10.3905,10.3097,10.1904,10.1019,10.0481,9.9904,9.9327,9.8788,9.8788,9.8481,9.7904,9.7634,9.723,9.6709,9.646,9.5652,9.4534,9.4229,9.3787,9.321,9.2095,9.2941,9.4903,9.4018,9.4749,9.6288,9.6288,9.6306,9.6227,0.0,0.0,0.0,0.0,0.0,0.0,0.0,6.1346,6.2656,6.5972,6.6317,6.7357,7.0208,6.8976,6.8758,7.0706,0.0,0.0,0.0,0.0,0.0,0.0,0.0,0.0,0.0,6.9605,7.0426,7.2706,7.3245,7.3514,7.3514,7.3314,7.2636,7.1506,7.103,7.0527,0.0,0.0,0.0,0.0,0.0,0.0,7.9028,0.0,0.0,0.0,0.0,0.0,0.0,0.0,0.0,0.0,0.0,0.0,0.0,0.0,8.8157,9.2102,9.5661,9.7866,9.9181,9.9297,9.8833,9.7634,9.4849,9.263,9.0537,8.8253,8.735,8.6872,8.652,8.6457,8.6819,8.7862,8.7732,8.8026,8.9531,9.2364,9.5251,9.7804,10.1886,10.4599,10.4905,10.4789,10.4597,10.4597,10.3289,10.2212,10.1712,10.0596,9.9711,9.9135,9.8596,9.8019,9.7365,9.7673,9.7403,9.6557,9.6903,9.6788,9.6288,9.6288,9.5518,9.4172,9.3826,9.3403,0.0,9.1672,9.271,9.4903,9.4018,9.4749,9.6288,9.6288,9.6095,9.5711,0.0,0.0,0.0,0.0,0.0,0.0,0.0,0.0,0.0,6.4294,6.4628,6.5897,6.909,6.8129,6.8244,0.0,0.0,0.0,0.0,0.0,0.0,0.0,0.0,0.0,7.0744,6.9464,7.0298,7.3514,7.363,7.3707,7.3783,7.4497,7.4063,7.2688,7.2469,7.2469,0.0,0.0,0.0,0.0,7.4217,7.5941,0.0,0.0,0.0,0.0,0.0,0.0,0.0,0.0,0.0,0.0,0.0,0.0,0.0,0.0,0.0,0.0,0.0,9.4965,9.6628,9.8137,9.7441,9.5971,9.423,9.2006,0.0,8.8084,8.7659,8.7389,8.6655,8.644,8.6494,8.6764,8.6053,8.636,8.8832,9.1461,9.4625,9.8692,10.0711,10.2001,10.2712,10.3482,10.3905,10.3905,10.1481,10.0115,10.0115,9.8574,9.7668,9.7538,9.7461,9.6691,9.5095,9.5903,9.5903,9.5095,9.5903,9.6288,9.6288,9.6268,9.5729,0.0,9.3998,9.3574,9.3421,9.1825,9.2672,9.4826,9.3941,9.4672,9.6211,9.6134,9.5595,9.4903,0.0,0.0,0.0,0.0,0.0,0.0,0.0,0.0,0.0,0.0,6.4819,6.5897,6.6705,6.8167,6.9321,0.0,0.0,0.0,0.0,0.0,0.0,0.0,0.0,0.0,6.9937,7.0873,7.2028,7.3514,7.484,7.5831,7.6461,7.5427,7.5105,7.531,7.4024,7.342,0.0,0.0,0.0,0.0,7.5577,7.707,0.0,0.0,0.0,0.0,8.1491,8.1491,0.0,0.0,0.0,0.0,0.0,0.0,0.0,0.0,8.4783,8.598,8.8489,0.0,9.0903,9.0671,9.1754,9.2451,0.0,9.0344,8.9629,8.7273,8.6268,8.5959,8.6423,8.5525,8.5526,8.8157,8.8414,8.8903,9.0798,9.5361,9.9586,10.2424,10.4195,10.5002,10.4597,10.4097,10.3905,10.3905,10.1481,10.0096,10.021,9.861,9.7721,9.7736,9.701,9.6438,9.6019,9.6211,9.6211,9.598,9.6245,9.6358,9.6358,9.5774,9.5075,9.4189,9.3302,9.2536,9.1814,9.1429,9.2357,9.3903,9.3095,9.3826,9.5211,9.4557,9.4172,9.4018,0.0,0.0,0.0,0.0,0.0,0.0,0.0,0.0,0.0,0.0,0.0,0.0,0.0,0.0,0.0,0.0,0.0,0.0,0.0,0.0,0.0,0.0,0.0,6.8898,7.0206,7.1129,7.2412,7.4109,7.546,7.658,7.7431,7.6598,7.6224,7.6224,7.491,7.4538,0.0,0.0,0.0,0.0,7.6132,0.0,0.0,0.0,0.0,0.0,8.1491,8.1491,0.0,8.1491,8.1478,8.1517,0.0,0.0,0.0,0.0,8.4797,8.5439,8.6752,8.8084,8.9068,8.903,9.0063,9.0981,9.0439,8.9996,8.932,8.7929,8.6964,8.6268,8.5959,8.5203,8.5372,8.7654,8.8002,8.9251,9.2812,9.7044,10.0897,10.408,10.4985,10.5388,10.5716,10.4292,10.3387,10.3387,10.1076,9.9648,9.9684,9.8156,9.7208,9.7187,9.6762,9.627,9.5745,9.6114,9.6095,9.5711,9.5763,9.5816,9.5777,9.5015,9.4216,9.3367,9.2904,9.2161,9.1347,9.1732,9.2605,9.371,9.3672,9.421,9.4941,9.448,9.3787,9.3133,0.0,0.0,0.0,0.0,0.0,0.0,0.0,0.0,0.0,0.0,0.0,0.0,0.0,0.0,0.0,0.0,0.0,0.0,0.0,0.0,0.0,0.0,6.9835,7.009,7.0898,7.1181,7.2454,7.478,7.6079,7.7213,7.8116,7.8297,7.7782,7.6649,7.5915,7.5837,0.0,0.0,0.0,0.0,7.643,0.0,0.0,0.0,0.0,0.0,0.0,0.0,0.0,8.1491,8.1568,8.18,8.2419,0.0,0.0,0.0,0.0,0.0,8.6588,8.7978,8.9228,8.9475,8.9866,9.027,9.0633,8.9726,8.8741,8.847,8.7968,8.7157,8.565,8.5551,8.5991,8.688,8.7422,8.9648,9.5059,9.8151,10.1185,10.46,10.4812,10.5004,10.6006,10.4308,10.3013,10.2897,10.0505,9.9077,9.9094,9.7594,9.6645,9.6525,9.6629,9.6249,9.5367,9.5994,9.5919,9.5034,9.5238,9.5178,9.4908,9.4315,9.3538,9.2727,9.2557,0.0,9.1363,9.2233,9.3029,9.3749,9.4518,9.4864,9.498,9.4826,9.3826,9.2479,0.0,0.0,0.0,0.0,0.0,0.0,0.0,0.0,0.0,0.0,0.0,0.0,0.0,0.0,0.0,0.0,0.0,0.0,0.0,0.0,0.0,7.2045,7.0503,7.009,7.0898,7.239,7.3727,7.478,7.7961,7.9958,8.0821,8.162,8.077,7.8503,7.8348,7.7499,7.6212,0.0,0.0,7.6403,7.7174,0.0,0.0,0.0,0.0,0.0,0.0,0.0,0.0,8.1491,8.1968,8.2432,8.18,0.0,0.0,0.0,0.0,0.0,8.8043,8.9208,8.9347,8.664,8.7596,8.8692,8.6751,8.7174,8.7582,8.6075,8.6268,8.6616,8.6346,8.6942,8.7809,8.866,9.1174,9.4317,9.8051,10.1396,10.3701,10.4288,10.6101,10.6621,10.4692,10.4113,10.3591,10.3013,10.0505,9.9111,9.9194,9.7626,9.6731,9.6738,9.6731,9.6622,9.6474,9.6454,9.6056,9.5263,9.6079,9.5654,9.4161,9.4103,9.3593,9.2728,0.0,9.1499,9.1445,9.2266,9.3029,9.371,9.3826,9.4326,9.4903,9.4172,9.3287,9.2402,0.0,0.0,0.0,0.0,0.0,0.0,0.0,0.0,0.0,0.0,0.0,0.0,0.0,0.0,0.0,0.0,0.0,0.0,0.0,0.0,7.4076,7.3781,7.2521,7.1788,7.1711,7.3408,7.5169,7.7022,8.0022,8.22,8.3515,8.2999,8.1182,7.8244,7.8244,7.7536,7.6313,7.635,7.6362,7.6439,0.0,0.0,0.0,0.0,0.0,0.0,0.0,0.0,0.0,0.0,8.2058,8.2664,8.2265,0.0,0.0,0.0,0.0,0.0,8.6785,8.7811,8.8328,8.6409,8.8161,9.0108,8.8977,8.8952,8.8991,8.8137,8.832,8.845,8.7944,8.8991,9.0555,9.2335,9.5042,9.7488,9.8995,10.1683,10.3696,10.4188,10.4785,10.5013,10.428,10.3405,10.282,10.2395,10.0408,9.9243,9.9236,9.7651,9.6792,9.6783,9.6792,9.6738,9.6738,9.6228,9.5741,9.5296,9.53,9.4605,9.329,9.2921,9.2496,9.2025,0.0,9.1368,9.1435,9.2751,9.3453,9.3787,9.4749,9.4749,9.4134,9.2826,9.2133,9.1672,0.0,0.0,0.0,0.0,0.0,0.0,0.0,0.0,0.0,0.0,0.0,0.0,0.0,0.0,0.0,0.0,0.0,0.0,0.0,7.4256,7.4295,7.4899,7.4166,7.3497,7.3009,7.4642,7.6726,7.9173,8.2354,8.4893,8.6764,8.4675,8.1968,7.8873,7.8486,7.7558,7.6397,7.663,7.6707,7.6784,0.0,0.0,0.0,0.0,0.0,0.0,0.0,0.0,0.0,0.0,0.0,0.0,0.0,0.0,0.0,8.5294,8.5873,8.6412,8.5921,8.6689,8.7494,8.6882,8.861,9.0634,9.1421,9.0822,9.0348,9.1064,9.1093,9.0812,9.0059,9.1402,9.3379,9.5739,9.8098,9.9731,10.0109,10.2218,10.3885,10.4782,10.4293,10.3996,10.4305,10.3018,10.2082,10.1889,10.0303,9.9297,9.9297,9.7711,9.6783,9.6783,9.6575,9.6497,9.6512,9.5608,9.5123,9.5052,9.4621,9.3717,9.2403,9.2218,9.1855,9.1406,9.1583,9.165,9.1732,9.3449,9.409,9.4172,9.5711,9.5365,9.3826,9.2326,9.1672,9.1364,0.0,0.0,0.0,0.0,0.0,0.0,0.0,0.0,0.0,0.0,0.0,0.0,0.0,0.0,0.0,0.0,0.0,0.0,0.0,7.4524,7.4973,7.5059,7.4297,7.4161,7.4707,7.6469,7.8245,8.0023,8.5061,8.8801,9.1174,8.7886,8.4946,8.2355,8.073,7.868,7.6436,7.7248,7.7597,7.7674,7.8564,0.0,0.0,0.0,0.0,0.0,0.0,0.0,0.0,0.0,0.0,0.0,0.0,0.0,8.5294,8.5294,8.5913,8.6737,8.7364,8.7606,8.7654,8.7556,8.72,8.7712,9.0953,9.0439,9.0168,9.3263,9.334,9.2799,9.2707,9.4075,9.5816,9.7634,9.9375,10.1115,10.2701,10.4387,10.578,10.6708,10.6708,10.6105,10.4503,10.3591,10.2779,10.2005,10.0303,9.9297,9.9297,9.7711,9.6783,9.6783,9.595,9.5509,9.5584,9.4659,9.4234,9.4293,9.4991,9.3987,9.1554,9.3054,9.2866,9.1347,9.2109,9.2473,9.2618,9.4264,9.4921,9.498,9.5942,9.5711,9.4788,9.3864,9.3056,9.2172,0.0,0.0,0.0,0.0,0.0,0.0,0.0,0.0,0.0,0.0,0.0,0.0,0.0,0.0,0.0,0.0,0.0,0.0,0.0,7.3849,7.4556,7.5071,7.4811,7.502,7.5835,7.8051,8.1079,8.4945,8.9072,9.0478,8.9279,8.6919,8.3592,7.9608,7.895,7.8099,7.721,7.7558,7.8022,7.8564,7.9415,7.9918,0.0,0.0,0.0,0.0,0.0,0.0,0.0,0.0,8.2703,8.3476,8.2703,8.3786,8.5101,8.4057,8.4714,8.5745,8.5525,8.6995,8.8643,8.8615,8.8397,8.8812,9.1103,9.1997,9.2992,9.5313,9.6009,9.6164,9.6164,9.6241,9.7054,9.9297,10.1115,10.2392,10.3088,10.4597,10.5603,10.5409,10.4906,10.421,10.3011,10.2082,10.1386,10.1077,9.9529,9.8756,9.9259,9.7666,9.6746,9.6746,9.5818,9.5361,9.5393,9.3933,9.3238,9.3269,9.4173,9.4033,9.2977,9.3598,9.347,9.2802,9.3113,9.3267,9.3379,9.4536,9.498,9.498,9.4749,9.448,9.4018,9.2633,9.1595,9.071,0.0,0.0,0.0,0.0,0.0,0.0,0.0,0.0,0.0,0.0,0.0,0.0,0.0,0.0,0.0,0.0,0.0,0.0,7.2993,7.3574,7.427,7.5082,7.5109,7.5779,7.7171,7.9724,8.2896,8.6687,9.0671,9.1135,8.8273,8.5991,8.2896,7.926,7.8486,7.8254,7.8486,7.8486,7.8834,7.9453,8.0266,8.0769,0.0,0.0,0.0,0.0,0.0,0.0,0.0,0.0,8.2509,8.3167,8.2509,8.3322,8.4405,8.3786,8.4211,8.4869,8.4559,8.5797,8.7306,8.7847,8.8196,8.9072,9.1799,9.335,9.5004,9.7827,9.8446,9.833,9.7789,9.7441,9.7866,9.9839,10.1386,10.2585,10.3088,10.421,10.479,10.4403,10.3398,10.2585,10.2005,10.0883,10.0187,10.0187,9.8872,9.8315,9.8826,9.7503,9.6699,9.6629,9.5489,9.4877,9.491,9.3142,9.2509,9.3087,9.3731,9.3852,9.3504,9.4009,9.4051,9.371,9.398,9.4095,9.4172,9.5057,9.5249,9.4941,9.4326,9.3787,9.3133,9.171,9.0671,8.971,0.0,0.0,0.0,0.0,0.0,0.0,0.0,0.0,0.0,0.0,0.0,0.0,0.0,0.0,0.0,0.0,0.0,0.0,7.3883,7.3883,7.427,7.5032,7.5071,7.632,7.8912,8.1465,8.3244,8.4134,8.9201,9.0826,8.9085,8.5681,8.3631,8.2664,8.015,7.9453,8.0227,8.0188,8.0188,8.0304,8.1155,8.2006,8.2857,0.0,0.0,0.0,0.0,0.0,0.0,0.0,8.2238,8.1813,8.3554,8.3515,8.3167,8.4792,8.4753,8.4289,8.5062,8.4095,8.3244,8.4908,8.5991,8.8002,9.307,9.423,9.57,10.0883,10.0496,9.8794,9.7131,9.7518,9.833,9.9181,9.9994,10.1193,10.2895,10.3204,10.3514,10.4287,10.2895,10.1889,10.1889,10.0303,9.9297,9.9297,9.8562,9.8029,9.7913,9.7124,9.6629,9.6492,9.4827,9.394,9.4023,9.2189,9.2156,9.389,9.389,9.3466,9.2695,9.4303,9.4518,9.3749,9.4634,9.5018,9.5057,9.5942,9.5788,9.498,9.498,9.3941,9.2402,9.1518,9.0633,8.9556,0.0,0.0,0.0,0.0,0.0,0.0,0.0,0.0,0.0,0.0,0.0,0.0,0.0,0.0,0.0,0.0,0.0,0.0,7.3189,7.308,7.3397,7.421,7.4254,7.516,7.7132,7.9685,8.3167,8.7693,8.9201,8.8466,8.5565,8.394,8.2393,8.0923,8.0188,8.0343,8.1078,8.0459,8.0536,8.1194,8.2045,8.22,8.1968,0.0,0.0,0.0,0.0,0.0,0.0,0.0,0.0,0.0,8.3012,8.425,8.5333,8.4675,8.5565,8.6416,8.4869,8.541,8.6648,8.777,8.9588,9.2296,9.6783,9.7363,9.806,10.2005,10.0496,9.8485,9.8562,9.7325,9.6744,9.8214,9.9143,10.011,10.1193,10.1889,10.2392,10.2585,10.1696,10.069,10.011,9.9104,9.8446,9.8446,9.7627,9.7349,9.7858,9.7011,9.6463,9.6446,9.4685,9.3764,9.3799,9.207,9.1784,9.2917,9.2917,9.3708,9.5209,9.5691,9.5788,9.5557,9.5788,9.5903,9.5903,9.5518,9.5211,9.4864,9.371,9.2941,9.2326,9.0825,8.9748,8.8863,0.0,0.0,0.0,0.0,0.0,0.0,0.0,0.0,0.0,0.0,7.6475,7.7132,0.0,0.0,0.0,0.0,0.0,0.0,0.0,7.308,7.307,7.385,7.4204,7.5353,7.7403,7.9918,8.2664,8.5604,8.6648,8.5759,8.3089,8.3554,8.3244,8.2277,8.2973,8.336,8.3476,8.2587,8.1968,8.162,8.2819,8.278,8.2161,0.0,0.0,0.0,0.0,0.0,0.0,0.0,0.0,0.0,8.2277,8.336,8.4521,8.4173,8.4714,8.5333,8.514,8.5952,8.7422,8.9627,9.2102,9.512,9.9375,10.0187,10.069,10.2817,10.069,9.8717,9.922,9.7518,9.6474,9.7866,9.8794,9.9491,9.9994,10.0806,10.1309,10.0883,10.011,9.9413,9.8872,9.806,9.758,9.755,9.6692,9.6374,9.6757,9.6232,9.5875,9.584,9.4439,9.371,9.371,9.2056,9.1633,9.2479,9.2133,9.3133,9.5288,9.5288,9.5441,9.5788,9.5788,9.5788,9.5711,9.4826,9.4287,9.3903,9.2903,9.2287,9.1787,9.0056,8.9133,8.8479,0.0,0.0,0.0,0.0,0.0,0.0,0.0,0.0,0.0,0.0,7.6514,7.7597,0.0,0.0,0.0,0.0,0.0,0.0,0.0,0.0,7.3132,7.3864,7.4881,7.6555,7.8991,8.1311,8.1698,8.0035,8.2613,8.3051,8.153,8.4018,8.5294,8.5604,8.7086,8.7318,8.6532,8.5384,8.3567,8.1658,8.3322,8.3476,8.2857,8.4443,0.0,0.0,0.0,0.0,0.0,0.0,0.0,0.0,8.1606,8.1799,8.2264,8.3682,8.3206,8.2857,8.5797,8.6145,8.6648,9.0865,9.4037,9.7131,10.1193,10.2701,10.3204,10.3088,10.1115,9.9297,9.9297,9.7943,9.7054,9.7866,9.8601,9.9104,9.9181,9.9878,10.011,9.9413,9.8601,9.8098,9.8098,9.7325,9.6753,9.6599,9.5849,9.5268,9.5024,9.4968,9.4954,9.4883,9.4018,9.3595,9.3595,9.2018,9.1633,9.2479,9.1633,9.2018,9.348,9.3557,9.4095,9.498,9.4903,9.4903,9.4903,9.398,9.3172,9.2479,9.2402,9.1902,9.1018,8.9402,8.8786,8.844,0.0,0.0,0.0,0.0,0.0,0.0,0.0,0.0,0.0,0.0,0.0,0.0,0.0,0.0,0.0,0.0,0.0,0.0,0.0,0.0,7.3468,7.4014,7.6399,7.8272,7.9437,8.0029,7.9798,7.8797,8.0962,8.189,8.153,8.3476,8.5449,8.7292,8.6678,8.6476,8.6403,8.3191,8.1716,8.1581,8.2664,8.2548,8.189,8.2935,8.2703,0.0,0.0,0.0,0.0,0.0,0.0,0.0,8.2445,8.4065,8.5469,8.4429,8.572,8.7422,8.6764,8.7461,8.9201,9.276,9.7131,10.1115,10.3398,10.3514,10.3011,10.2315,10.0613,9.9297,9.9297,9.7943,9.686,9.7054,9.7209,9.7595,9.8253,9.8524,9.8794,9.9259,9.8601,9.8098,9.8098,9.7325,9.6482,9.5749,9.5438,9.4971,9.4215,9.4051,9.3998,9.398,9.3172,9.2749,9.2749,9.171,9.1633,9.2479,9.1633,9.1402,9.1748,9.2441,9.3557,9.496,9.4287,9.4364,9.4864,9.3364,9.2672,9.2441,9.1748,9.1364,9.1056,9.0017,8.9633,8.9402,0.0,0.0,0.0,0.0,0.0,0.0,0.0,0.0,0.0,0.0,0.0,0.0,0.0,0.0,0.0,0.0,0.0,0.0,0.0,0.0,7.4379,7.5226,7.7083,7.8316,7.8726,7.951,7.9335,7.8092,7.9591,8.0708,8.1538,8.4093,8.644,8.8479,8.8206,8.7533,8.6418,8.384,8.2162,8.1305,8.2381,8.2277,8.162,8.2471,8.2006,8.0923,8.1336,0.0,0.0,0.0,0.0,0.0,0.0,0.0,8.4692,8.3746,8.5024,8.6842,8.7151,8.8776,9.16,9.6628,10.0187,10.2779,10.3591,10.3514,10.3011,10.2082,10.0496,9.9181,9.8794,9.7673,9.6783,9.6783,9.7131,9.7441,9.7479,9.7827,9.8098,9.8098,9.775,9.7479,9.7479,9.6706,9.598,9.544,9.4566,9.3869,9.3312,9.3222,9.3148,9.3133,9.271,9.2479,9.2479,9.1633,9.1441,9.1864,9.0979,9.0594,9.0633,9.1479,9.2595,9.3787,9.3326,9.3364,9.371,9.2402,9.1864,9.1825,9.1364,9.121,9.1095,9.021,8.9671,8.9133,0.0,0.0,0.0,0.0,0.0,0.0,0.0,0.0,0.0,0.0,0.0,0.0,0.0,0.0,0.0,0.0,0.0,0.0,0.0,0.0,0.0,7.6465,7.7417,7.7988,7.8122,7.9629,7.9667,7.8122,7.8885,8.0255,8.2215,8.5029,8.744,8.9311,8.9558,8.8509,8.6468,8.4698,8.2737,8.1008,8.2121,8.2045,8.1349,8.2084,8.1387,8.0111,8.0807,8.0691,8.0304,8.105,0.0,0.0,0.0,0.0,8.2842,8.2805,8.3399,8.4637,8.7035,8.9975,9.3882,10.0303,10.2392,10.3011,10.3204,10.3088,10.2701,10.1889,10.0496,9.9336,9.864,9.7711,9.7015,9.7015,9.7634,9.7789,9.6938,9.7557,9.7789,9.6899,9.6667,9.6628,9.6783,9.5893,9.5245,9.5177,9.3655,9.2666,9.237,9.237,9.2353,9.2284,9.2284,9.2301,9.2301,9.1437,9.1073,9.1189,9.0325,8.9979,9.0133,9.071,9.1518,9.2479,9.2326,9.2364,9.2441,9.1556,9.121,9.121,9.121,9.121,9.1133,9.0402,8.971,8.9017,0.0,0.0,0.0,0.0,0.0,0.0,0.0,0.0,0.0,0.0,7.3353,7.4655,0.0,0.0,0.0,0.0,0.0,0.0,0.0,0.0,0.0,7.6549,7.7744,7.8715,7.9453,8.0423,8.0423,7.9453,7.9938,8.1758,8.4807,8.5252,8.7154,9.0114,8.7671,8.6573,8.6334,8.2512,8.089,8.0954,8.1464,8.1155,8.0382,8.0498,7.9956,7.9183,7.9299,7.9724,8.0263,8.0474,8.1039,0.0,0.0,0.0,8.294,8.2816,8.3399,8.4482,8.63,9.0787,9.6087,10.069,10.2005,10.2315,10.3011,10.2585,10.1812,10.0999,10.0613,10.038,10.0303,9.8988,9.7943,9.7943,9.8021,9.7789,9.6938,9.7557,9.7789,9.6899,9.6125,9.5971,9.6744,9.5313,9.4326,9.421,9.3268,9.2338,9.142,9.145,9.1446,9.1446,9.1512,9.1561,9.1561,9.067,9.0598,9.1292,9.036,9.0325,9.1018,9.0364,9.0979,9.2441,9.171,9.1787,9.2441,9.1556,9.121,9.121,9.121,9.121,9.121,9.1056,9.0979,9.0748,0.0,0.0,0.0,0.0,0.0,0.0,0.0,0.0,0.0,0.0,0.0,7.5347,0.0,0.0,0.0,7.7055,0.0,0.0,0.0,0.0,0.0,7.6224,7.6595,7.7364,7.8661,7.9062,7.9326,7.9378,7.9577,8.1594,8.5312,8.5309,8.7344,9.0865,8.7235,8.5938,8.6232,8.1837,8.0469,8.1235,8.0669,8.0329,8.0087,7.9348,7.8706,7.8168,7.8472,7.8617,7.8914,7.9958,8.0545,8.0932,8.1436,0.0,0.0,0.0,8.3012,8.4792,8.7886,9.1677,9.5584,9.8911,10.011,10.069,10.1502,10.1386,10.1193,10.1309,10.1696,10.158,10.011,9.8911,9.8098,9.8098,9.8098,9.7634,9.6241,9.7247,9.7402,9.5545,9.5855,9.6203,9.6087,9.539,9.4897,9.4837,9.3624,9.2636,9.2139,9.1708,9.1341,9.1044,9.0807,9.0609,9.0329,8.9701,8.9773,9.0531,9.0612,9.0825,9.121,9.0787,9.1056,9.171,9.0864,9.071,9.1018,9.0633,9.0479,9.0517,9.1018,9.121,9.121,9.121,9.0594,8.9825,0.0,0.0,0.0,0.0,0.0,0.0,0.0,0.0,0.0,0.0,0.0,0.0,0.0,0.0,0.0,0.0,7.6436,0.0,0.0,0.0,0.0,7.5472,7.5599,7.6255,7.7538,7.7764,7.8179,7.876,7.9095,8.1394,8.5458,8.5778,8.8166,9.1958,8.8015,8.6326,8.624,8.2548,8.1512,8.226,8.0664,7.9815,7.9389,7.8612,7.7707,7.6923,7.7467,7.7485,7.7491,7.8819,7.9596,8.0203,8.0821,8.1685,0.0,0.0,0.0,8.4559,8.8118,9.0826,9.3263,9.6087,9.775,9.8949,9.9994,10.038,10.0883,10.2005,10.2686,10.2592,10.062,9.9437,9.8678,9.8446,9.8214,9.7557,9.6048,9.7131,9.7286,9.512,9.5816,9.628,9.5855,9.5429,9.5236,9.5438,9.4124,9.3113,9.2805,9.2203,9.149,9.0569,9.0261,8.9765,8.9036,8.8632,8.8646,8.9107,9.0183,9.0737,9.0902,9.1095,9.1095,9.0825,9.0171,8.9787,8.9633,8.9825,9.0056,9.0287,9.0941,9.1325,9.1518,9.1287,9.0287,8.9094,0.0,0.0,0.0,0.0,0.0,0.0,0.0,0.0,0.0,0.0,0.0,0.0,0.0,7.6165,7.5187,7.5237,7.5187,7.4654,7.3528,7.4163,0.0,7.4129,7.5621,0.0,7.6557,7.7396,7.7816,7.7854,7.9077,8.1817,8.5895,8.7103,8.9893,9.3723,9.0306,8.794,8.639,8.5018,8.4499,8.4317,8.2101,7.982,7.7778,7.8351,7.7113,7.5151,7.5913,7.6312,0.0,0.0,0.0,7.9715,7.9792,8.0597,8.1736,0.0,0.0,0.0,8.5062,8.688,8.9047,9.2412,9.512,9.7363,9.8988,9.9994,10.1077,10.2817,10.3101,10.2996,10.2803,10.1494,10.0187,9.9375,9.8601,9.7789,9.686,9.7518,9.775,9.6783,9.6009,9.5855,9.6667,9.5236,9.4588,9.5363,9.4551,9.3655,9.2766,9.2713,9.1831,8.9817,8.9808,8.9186,8.7798,8.7509,8.7209,8.6889,8.8514,8.9554,9.0017,9.0825,9.0748,8.9979,8.994,8.9479,8.8825,8.9594,9.0402,9.1133,9.1171,9.171,9.2326,9.1518,9.0633,8.9863,0.0,0.0,0.0,0.0,0.0,0.0,0.0,0.0,0.0,0.0,0.0,0.0,0.0,7.8138,7.6978,7.7558,7.7094,7.6826,7.6958,7.6475,0.0,7.6002,7.5812,7.598,7.6497,7.6802,7.7222,7.7795,7.8256,8.0186,8.3558,8.4527,8.6202,8.8391,8.7715,8.7377,8.7039,8.2887,8.2021,8.3264,8.0427,7.9378,7.9356,7.7893,7.6571,7.5544,7.562,0.0,0.0,0.0,0.0,0.0,0.0,0.0,8.0227,8.0267,8.0667,8.1337,8.2535,8.4521,8.6648,8.8466,9.1251,9.3843,9.5004,9.6738,9.8563,10.0302,10.1898,10.2911,10.2911,10.2002,10.0993,10.0088,9.9294,9.8251,9.6822,9.7363,9.717,9.5239,9.5702,9.6065,9.5919,9.5572,9.549,9.5833,9.4252,9.3179,9.2852,9.1817,9.0511,8.8907,8.855,8.7554,8.5883,8.5719,8.5871,8.6197,8.7128,8.8268,8.9477,9.0104,9.021,8.9902,8.9902,8.944,8.8709,8.9017,8.9633,9.0441,9.0979,9.1056,9.0864,9.1133,8.9979,8.8517,0.0,0.0,0.0,0.0,0.0,0.0,0.0,0.0,0.0,0.0,0.0,0.0,0.0,0.0,7.7365,7.7674,7.69,7.6668,7.7248,7.6739,7.644,7.6426,7.5932,7.5925,7.6447,7.6754,7.7022,7.7329,7.8041,7.9551,8.1776,8.2998,8.4277,8.5473,8.5197,8.6072,8.7565,8.3803,8.3043,8.3971,8.0313,7.9411,8.0106,7.8829,7.7348,7.6097,7.6747,0.0,0.0,0.0,0.0,0.0,0.0,0.0,0.0,0.0,7.8979,7.979,8.0137,8.189,8.4018,8.572,8.7886,9.0246,9.2799,9.4442,9.612,9.867,10.0694,10.2303,10.3113,10.2786,10.2015,10.0912,9.981,9.8691,9.7534,9.7611,9.7187,9.5489,9.5991,9.6316,9.5841,9.5919,9.6021,9.604,9.4362,9.3175,9.2886,9.1527,8.9854,8.7912,8.6497,8.5177,8.395,8.3586,8.3912,8.4816,8.5493,8.6742,8.8531,8.9108,8.9458,8.9667,8.9936,8.9548,8.8709,8.8979,8.9594,9.0402,9.0979,9.0864,9.0364,9.0671,8.9325,8.7671,0.0,0.0,0.0,0.0,0.0,0.0,0.0,0.0,0.0,7.82,0.0,0.0,0.0,0.0,0.0,7.5392,7.4579,7.4077,7.4077,7.4773,7.5187,7.5187,0.0,0.0,7.6436,7.7287,7.7287,7.6436,7.8532,7.9969,8.0767,8.2855,8.4555,8.5702,8.3324,8.4276,8.7684,8.7966,8.7733,8.6767,8.2001,7.9961,7.9886,8.1146,7.9428,7.6667,7.9071,7.7952,0.0,7.3303,0.0,0.0,0.0,0.0,0.0,0.0,0.0,7.8745,0.0,0.0,0.0,8.425,8.514,8.6726,9.2528,9.3205,9.384,9.8129,9.9562,10.0901,10.3406,10.3907,10.3387,10.1897,10.0312,9.9154,9.9137,9.8366,9.7826,9.7787,9.7016,9.6514,9.6454,9.6191,9.5982,9.5982,9.4798,9.3704,9.2902,9.1877,8.99,8.6858,8.3805,8.2221,8.2183,8.1223,8.1373,8.2695,8.3535,8.5022,8.7075,8.7971,8.8608,8.912,9.0058,8.9803,8.8808,8.9633,9.0441,9.1248,9.1171,9.1171,9.1056,9.021,8.8863,8.7555,0.0,0.0,0.0,0.0,0.0,0.0,0.0,0.0,7.865,0.0,0.0,0.0,8.0024,7.9548,7.9617,8.0587,7.9299,7.8448,7.8448,7.7519,7.6978,7.6978,7.721,7.7326,7.7326,7.8177,7.8216,7.7326,7.7949,7.8525,7.9085,8.0295,8.1839,8.3666,8.4199,8.4365,8.4062,8.2087,8.3053,8.5596,8.1984,8.1586,8.2932,8.1089,7.941,7.8068,7.8129,7.7792,7.7128,0.0,7.6292,7.7259,0.0,0.0,0.0,0.0,0.0,0.0,7.5834,0.0,0.0,0.0,0.0,0.0,8.541,8.7136,8.9407,9.3631,9.6078,9.84,10.1501,10.3117,10.3809,10.3291,10.1789,10.048,9.9921,9.9074,9.8286,9.767,9.7362,9.6782,9.5619,9.5675,9.5553,9.502,9.3944,9.2961,9.2165,8.9786,8.7725,8.6181,8.4161,8.2722,8.2078,8.1166,8.1185,8.2174,8.2762,8.3989,8.5762,8.6931,8.7876,8.8722,9.0541,9.0791,8.9994,9.0585,9.1364,9.2018,9.0748,9.0287,9.0248,8.9979,8.9248,8.844,0.0,0.0,0.0,0.0,0.0,0.0,0.0,0.0,0.0,0.0,0.0,0.0,8.1441,8.2011,8.2545,8.2793,8.1542,0.0,0.0,0.0,7.7519,7.7171,7.7171,7.7326,7.7674,7.8564,7.8564,7.7713,7.8409,7.8516,7.8125,7.9307,8.0439,8.1472,8.2123,8.2376,8.2091,7.9152,8.0276,8.3806,8.144,8.1609,8.3137,8.182,8.0286,7.8917,7.9321,0.0,7.9198,7.6791,7.6556,0.0,0.0,0.0,0.0,0.0,0.0,0.0,0.0,0.0,0.0,7.8578,0.0,0.0,8.3244,8.4391,8.6085,9.0288,9.2839,9.5396,9.9076,10.1193,10.2481,10.3212,10.252,10.1712,10.1212,10.0096,9.9135,9.8634,9.7634,9.6614,9.5668,9.5308,9.4989,9.4554,9.3455,9.2189,9.0766,8.8343,8.648,8.5328,8.3326,8.2004,8.1434,8.0617,8.0951,8.2503,8.2435,8.3461,8.5396,8.58,8.6729,8.8192,9.0052,9.0901,9.092,9.0915,9.1105,9.1325,9.0325,8.9479,8.8863,8.8863,8.8325,8.7786,0.0,0.0,0.0,8.1585,8.235,8.2973,8.274,8.238,0.0,0.0,8.2057,8.1874,8.382,8.5021,8.5151,8.376,0.0,0.0,0.0,0.0,7.7442,7.6591,7.663,7.7055,7.7829,7.8796,7.8796,7.7829,7.9337,7.9299,7.7867,7.9376,7.9931,7.9638,7.8921,7.956,8.0979,7.8515,7.906,8.1539,8.0627,8.093,8.1972,8.2779,8.1613,7.9726,8.1407,8.1815,8.0993,7.6954,7.5494,0.0,0.0,0.0,0.0,0.0,7.4885,0.0,0.0,0.0,0.0,0.0,7.9132,0.0,8.3734,8.3695,8.3834,8.7761,8.9709,9.1985,9.6145,9.8344,9.9981,10.1404,10.1904,10.2289,10.2597,10.1212,10.0173,9.9981,9.7865,9.6326,9.6057,9.5001,9.4303,9.4188,9.312,9.1491,8.928,8.7671,8.6063,8.4493,8.2135,8.0879,8.0805,8.0013,8.0728,8.2883,8.2288,8.3069,8.5038,8.4518,8.5363,8.7322,8.8885,9.0204,9.119,9.0593,9.0148,8.9793,8.945,8.8472,8.7204,8.7051,8.6701,8.6488,0.0,0.0,8.474,8.4493,8.4636,0.0,8.5653,8.5707,8.5795,8.601,8.5796,8.7026,9.0714,8.8946,8.7875,0.0,0.0,0.0,0.0,0.0,7.837,7.7481,7.8099,7.8564,7.8757,8.0227,8.0266,7.8757,7.9067,7.9067,7.8757,7.9067,7.9545,8.0061,7.992,7.934,7.8515,7.9276,7.9185,7.8696,8.0165,8.1914,8.3505,8.2344,8.1994,8.1963,8.1001,8.1058,8.1258,7.8962,7.7267,7.6156,0.0,0.0,0.0,7.467,0.0,0.0,0.0,0.0,0.0,0.0,0.0,0.0,8.122,8.1994,8.3386,8.5425,8.6639,8.8351,9.1801,9.4382,9.5865,9.548,9.775,10.0289,10.2289,10.1712,10.0596,9.9211,9.798,9.6442,9.4403,9.3963,9.358,9.2927,9.2271,9.1187,8.9591,8.8569,8.6982,8.4643,8.3073,8.1964,8.1264,8.0721,8.0691,8.1174,8.1731,8.188,8.1694,8.2883,8.4012,8.5156,8.7612,8.8557,8.8442,8.9168,8.9434,8.9092,8.668,8.5959,8.6111,8.4741,8.5658,8.7408,0.0,8.5372,8.5952,8.5952,8.63,0.0,0.0,0.0,8.8262,8.919,9.0453,9.1733,9.2948,9.198,9.0985,0.0,0.0,0.0,0.0,0.0,7.9492,7.7751,7.8525,7.8989,7.8989,8.0227,8.0459,7.9608,7.9608,7.9376,7.9028,7.9415,7.9376,7.8989,7.9415,7.9144,7.837,7.8796,7.9183,7.9673,8.0754,8.147,8.1894,8.2117,8.2208,8.2154,8.199,8.1992,8.1937,8.0596,8.0129,0.0,0.0,7.7523,7.7961,0.0,7.6335,7.6465,0.0,0.0,0.0,7.9745,0.0,0.0,0.0,8.1026,8.1464,8.3929,8.4411,8.5368,8.8738,9.0744,9.2249,9.348,9.4788,9.6557,9.9096,9.9788,9.975,9.8904,9.7288,9.5749,9.448,9.321,9.2095,9.1287,9.0952,8.999,8.8226,8.7328,8.5811,8.3415,8.2133,8.1444,8.1381,8.0552,8.0728,8.1917,8.1545,8.1323,8.1389,8.2454,8.3378,8.4255,8.6291,8.722,8.7336,8.7255,8.698,8.6525,8.5629,8.5326,8.5189,8.3923,8.4383,8.5583,8.4714,0.0,8.6648,8.6842,8.7577,0.0,0.0,0.0,9.0365,9.2263,9.4343,9.5286,9.4173,9.4237,9.3604,0.0,0.0,0.0,0.0,0.0,8.0498,7.8293,7.8873,7.9144,7.8989,7.9956,8.0382,8.0188,8.0188,7.9879,7.9221,7.9867,7.9467,7.8191,7.8539,7.8875,7.9146,7.8102,7.9042,8.1246,8.1401,8.0883,8.0213,8.2277,8.2646,8.2232,8.3319,8.3243,8.2493,8.1992,8.2749,8.3164,7.9241,7.985,0.0,0.0,0.0,0.0,0.0,0.0,0.0,0.0,0.0,8.0916,0.0,0.0,0.0,8.2806,8.2685,8.3048,8.596,8.7182,8.8556,9.1095,9.1518,9.2172,9.4057,9.5788,9.7019,9.7519,9.5326,9.3787,9.3787,9.1633,9.0017,8.9479,8.9248,8.8378,8.6585,8.5743,8.4362,8.232,8.0995,8.0605,8.1181,8.0067,8.0505,8.2474,8.11,8.0765,8.1314,8.1933,8.2706,8.3603,8.4867,8.5943,8.6745,8.5621,8.476,8.4143,8.4846,8.4641,8.3823,8.2978,8.2798,8.3119,8.6339,8.6455,0.0,8.7615,8.8466,0.0,0.0,0.0,9.231,9.4747,9.5399,9.611,9.7378,9.556,9.4709,9.5971,0.0,0.0,8.9472,0.0,0.0,0.0,7.9995,7.9724,7.9028,8.0536,8.0962,8.0188,8.0188,8.015,8.0072,8.0087,8.0023,7.9739,7.8297,7.8502,7.9775,7.8193,7.858,8.0332,8.1105,8.135,8.1491,8.327,8.3901,8.3884,8.4302,8.35,8.2288,0.0,8.3574,8.3742,0.0,8.2092,8.0482,8.2282,0.0,0.0,0.0,0.0,0.0,0.0,8.5498,0.0,0.0,0.0,8.2897,8.1745,0.0,8.1647,8.2701,0.0,0.0,8.367,8.6055,8.7825,8.7325,8.8748,9.0671,9.2941,9.0979,8.9402,8.9402,8.7748,8.6978,8.7632,8.6978,8.6423,8.618,8.5373,8.4297,8.2836,8.1512,8.065,8.0355,7.9769,7.9614,7.9911,7.9725,7.9316,7.875,7.9912,8.1147,8.2276,8.3262,8.4456,8.5752,8.531,8.4825,8.4227,8.2937,8.1923,8.1066,8.0246,8.0683,8.1646,8.6611,8.7103,0.0,0.0,8.8783,0.0,0.0,0.0,9.5429,9.5468,9.7702,9.9715,10.0883,9.9181,9.7827,9.7595,9.4346,9.1367,8.9085,0.0,0.0,0.0,0.0,0.0,8.1233,8.189,8.1813,8.0962,8.0459,8.0164,8.0126,0.0,7.9829,7.9274,7.9067,7.9324,7.9979,7.9787,8.0109,8.0908,8.2259,8.2543,8.2314,8.4108,8.541,8.6235,8.5844,8.5237,8.4427,0.0,8.4554,0.0,0.0,0.0,0.0,0.0,0.0,0.0,0.0,0.0,0.0,0.0,0.0,0.0,8.2848,0.0,8.1531,0.0,0.0,0.0,0.0,0.0,0.0,0.0,8.3824,8.467,8.5324,8.4747,8.594,9.0479,8.9171,8.7555,8.6594,8.5824,8.5241,8.48,8.4437,8.3886,8.3122,8.2759,8.2108,8.1067,8.0235,7.9924,8.0205,7.9284,7.9019,7.9465,7.9019,7.8611,7.8341,7.9638,8.0779,8.1767,8.3112,8.4313,8.5368,8.5692,8.544,8.4695,8.3885,8.2682,8.1285,7.9985,7.9856,8.0335,8.7438,0.0,8.7881,8.824,8.8935,8.9819,9.0869,9.447,9.6821,9.6007,9.8815,10.1502,10.3011,10.158,10.038,9.9878,9.7402,9.4307,9.0594,0.0,8.7499,0.0,0.0,0.0,0.0,0.0,0.0,8.1852,8.0976,8.0628,8.0821,0.0,0.0,0.0,8.0347,8.0911,8.1374,8.2029,8.2545,8.3061,8.3832,8.4078,8.4084,8.5214,8.6712,8.8143,8.7427,8.6814,8.6215,8.4913,8.6115,0.0,8.4214,0.0,0.0,0.0,0.0,0.0,8.5996,0.0,0.0,0.0,0.0,0.0,0.0,0.0,0.0,0.0,0.0,0.0,0.0,0.0,0.0,0.0,0.0,8.3093,8.4362,8.2362,8.2593,8.7594,8.7094,8.5978,8.4978,8.4478,8.3828,8.297,8.2244,8.1574,8.0927,8.045,8.0119,7.9849,7.9297,7.9217,7.9676,7.8756,7.8573,7.9168,7.8573,7.8276,7.8341,7.9376,8.0417,8.135,8.2643,8.3854,8.4955,8.5746,8.5687,8.5038,8.4538,8.3539,8.2172,8.0366,7.9677,7.9762,8.9442,8.8176,8.728,8.8144,8.904,9.0163,9.18,9.3512,9.5195,9.6738,9.7689,9.9491,10.2817,10.158,10.158,10.4017,9.9645,9.6706,9.6512,0.0,8.8389,0.0,0.0,8.5759,0.0,0.0,0.0,0.0,8.1826,8.1787,8.2585,8.1634,0.0,0.0,8.2255,8.317,8.4747,8.4786,8.5758,8.7147,8.5606,8.5961,8.7348,8.6703,8.7599,8.9149,8.8914,0.0,0.0,8.8914,8.8345,0.0,0.0,0.0,0.0,0.0,0.0,0.0,0.0,0.0,0.0,8.6161,0.0,0.0,0.0,0.0,8.5622,0.0,0.0,0.0,0.0,0.0,0.0,0.0,0.0,0.0,0.0,8.1439,8.0823,8.3478,8.3747,8.4016,8.4824,8.3362,8.2523,8.2856,8.0601,7.9705,8.0851,7.9351,7.9018,8.0167,7.9404,7.8789,7.8369,7.8341,7.8313,7.8313,7.8313,7.8276,7.8304,7.8815,7.9661,8.0748,8.1286,8.2628,8.4458,8.4955,8.5135,8.5,8.3871,8.34,8.3104,8.0943,8.018,8.0104,0.0,8.9076,8.8857,8.9339,9.0059,9.1097,9.2606,9.4716,9.7118,9.9898,10.1409,10.4017,10.862,10.7498,10.6608,10.6995,10.4403,10.1502,9.864,9.6358,0.0,0.0,0.0,9.0014,0.0,0.0,0.0,0.0,0.0,8.4011,8.4218,8.3271,0.0,0.0,8.4032,8.4632,8.5786,8.694,8.7418,8.7451,8.7451,8.9503,9.2321,8.9856,8.9338,8.984,8.9732,8.8952,0.0,8.8442,8.844,8.7992,8.6473,8.5676,8.5116,8.4161,8.4337,0.0,0.0,0.0,8.6479,8.5849,0.0,0.0,0.0,0.0,0.0,0.0,0.0,0.0,0.0,0.0,0.0,0.0,0.0,0.0,0.0,7.9632,7.9058,8.0476,8.1409,8.1936,8.1911,8.1413,8.0982,8.0819,7.8663,7.7922,7.914,7.8115,7.7964,7.8901,7.8688,7.8458,7.8304,7.8276,7.8276,7.8276,7.8276,7.8276,7.8304,7.8458,7.9325,8.0757,8.1476,8.2788,8.4466,8.5517,8.5312,8.4301,8.3974,8.3024,8.1596,8.0591,8.0581,8.1142,9.0457,9.0343,9.0411,9.0371,9.1299,9.2286,9.3204,9.6195,9.933,10.2107,10.4389,10.7498,11.1985,11.1289,11.0206,10.9703,10.831,10.5409,10.0496,9.9994,0.0,9.6087,9.4897,0.0,0.0,0.0,0.0,0.0,0.0,8.5998,8.586,8.4689,8.4411,0.0,8.5517,8.5901,8.6247,8.8594,8.9248,8.8825,8.971,9.1707,9.3992,9.2134,9.1682,9.1847,0.0,8.9876,8.8972,8.8842,8.8488,8.7832,8.6038,8.5366,8.4929,8.3733,8.3764,8.4385,8.5091,8.5056,0.0,8.5145,8.3761,0.0,8.2536,0.0,0.0,0.0,0.0,0.0,0.0,0.0,0.0,0.0,0.0,0.0,0.0,7.8765,7.835,7.837,7.9684,8.0598,8.0601,8.0048,7.9432,7.864,7.6775,7.6156,7.7365,7.6902,7.7152,7.8239,7.8276,7.8276,7.8276,7.8276,7.8276,7.8276,7.8276,7.8276,7.8313,7.8573,7.9428,8.0765,8.1917,8.2994,8.4094,8.5367,8.4974,8.3475,8.3465,8.2568,8.124,8.0354,8.0744,8.189,9.2355,9.1944,9.1801,9.1305,9.2471,9.3564,9.3678,9.7697,10.1398,10.3393,10.6393,10.9703,11.3107,11.272,11.2217,11.2217,11.1405,10.8388,10.2701,10.3011,0.0,0.0,9.6978,9.6467,9.5618,0.0,0.0,0.0,0.0,8.7827,8.7632,8.5896,8.5016,8.4978,8.6709,8.6978,8.6401,8.9825,9.1325,9.1479,9.2249,9.2672,9.2864,9.348,9.4356,9.4993,9.2327,9.0565,8.9609,9.0155,8.8687,8.6696,8.7033,8.5638,8.3836,8.3431,8.3331,8.3403,8.3738,8.4368,8.4819,8.4143,8.4519,0.0,0.0,0.0,8.9455,0.0,0.0,0.0,0.0,0.0,0.0,0.0,0.0,0.0,0.0,0.0,7.8446,7.7261,7.8414,7.9746,8.0715,7.9389,7.7927,7.662,7.4972,7.4509,0.0,7.5787,7.6567,7.8239,7.8351,7.8388,7.8351,7.8351,7.8351,7.8351,7.8351,7.8351,7.8425,7.9205,7.9985,8.084,8.2437,8.3143,8.3313,8.4516,8.4095,8.2634,8.2284,8.2149,8.1906,8.0406,8.0806,8.2437,9.2161,9.2336,9.2801,9.2675,9.2565,9.3107,9.4881,9.7875,10.1608,10.6402,10.8901,11.1714,11.5815,11.4306,11.33,11.3919,11.1985,11.009,0.0,0.0,0.0,10.2585,10.0611,9.9133,9.8245,9.6288,0.0,9.4485,0.0,9.16,9.0206,8.8534,8.6709,8.5016,8.7325,8.7863,8.7286,9.071,9.2903,9.398,9.3557,9.4903,9.6942,0.0,9.5055,9.6515,9.3323,9.2385,9.2277,9.0448,8.9777,8.9465,8.7935,8.5984,8.4198,8.39,8.313,8.2379,8.2463,8.3077,8.3934,8.494,8.4419,8.3926,0.0,0.0,0.0,0.0,0.0,0.0,0.0,0.0,0.0,0.0,0.0,0.0,0.0,0.0,0.0,7.7443,7.5542,7.5306,7.8332,7.8229,7.7316,7.5746,7.3813,7.3366,7.4848,7.5453,7.6567,7.8239,7.9465,7.9799,7.9205,7.9168,7.9168,7.9168,7.9168,7.9502,8.0097,8.0282,8.084,8.1694,8.2103,8.2623,8.3247,8.3541,8.3077,8.2156,8.1782,8.1231,8.0804,8.1607,8.2709,8.3849,9.3359,9.3904,9.4666,9.4278,9.5394,9.6716,9.7759,9.9448,10.2508,10.7608,11.0709,11.3184,11.5312,11.5892,11.5815,11.5196,11.3919,0.0,11.0399,0.0,0.0,10.5603,10.3703,10.2301,10.1413,9.9354,0.0,9.6394,0.0,0.0,9.171,8.9671,8.7517,8.5517,8.7325,8.7632,8.7055,9.0479,9.3133,9.4903,9.4057,9.5326,0.0,9.5557,9.5711,9.6673,9.4403,9.3485,9.3081,9.1162,9.0666,9.0637,8.8985,8.7227,8.576,8.5606,8.4629,8.3552,8.3552,8.3886,8.448,8.5372,8.5186,8.5,8.5929,8.721,8.7978,0.0,0.0,0.0,0.0,0.0,0.0,0.0,0.0,0.0,0.0,0.0,0.0,0.0,7.5793,7.5548,7.7314,7.5197,7.38,7.3925,7.2509,7.2035,0.0,7.5118,7.6456,7.6679,7.9985,8.1025,7.9502,8.0914,8.11,8.0022,8.0394,8.0617,8.0728,8.1806,8.2363,8.2549,8.3254,8.3626,8.37,8.3329,8.2474,8.1343,8.0383,8.0218,8.0592,8.19,8.3246,8.448,9.5048,9.583,9.6667,9.5661,9.9143,10.2019,10.1789,10.2712,10.4906,10.8891,11.2991,11.5196,11.4499,11.7401,11.86,11.6588,11.6085,11.4306,11.0593,11.1598,11.1018,10.7614,10.6602,10.5602,10.4597,10.2091,0.0,0.0,0.0,0.0,9.2459,8.9996,8.7863,8.6132,8.7132,8.7286,8.6978,8.994,9.2556,9.4595,9.3826,9.4595,9.6134,9.6134,9.6211,9.6211,9.5441,9.4388,9.32,9.2202,9.1552,9.1011,9.0139,8.8898,8.77,8.77,8.6733,8.5678,8.5625,8.5595,8.5632,8.5743,8.6264,8.6821,8.6932,8.7452,8.7935,8.7935,8.739,8.6371,0.0,0.0,0.0,0.0,0.0,0.0,0.0,0.0,0.0,0.0,0.0,0.0,7.7189,7.2666,7.0512,7.2246,7.1663,7.1118,0.0,0.0,7.626,7.4784,8.0134,8.2066,7.9985,8.2697,8.3143,8.136,8.1768,8.1768,8.1397,8.3477,8.3997,8.344,8.4852,8.5,8.4183,8.3366,8.1999,8.0402,7.9065,7.9465,8.084,8.1917,8.3254,8.4778,9.5039,9.6334,9.7363,9.5777,9.9645,10.3878,10.6595,10.9388,11.2295,11.5312,11.8097,12.0108,12.0689,11.8909,11.802,11.8987,11.7091,0.0,0.0,0.0,0.0,11.0283,10.9192,10.7998,10.6414,10.3707,10.1802,0.0,0.0,0.0,9.2563,9.0591,8.8402,8.617,8.7748,8.9171,9.0364,9.0941,9.1864,9.2903,9.2749,9.371,9.5211,9.5211,9.5672,9.6288,9.6134,9.5904,9.5406,9.3357,9.2613,9.2395,9.1593,8.9908,8.8253,8.8253,8.7321,8.6153,8.5708,8.5595,8.5743,8.6412,8.6709,8.7007,8.7712,8.7415,8.7044,8.7044,8.6406,8.5551,8.4555,0.0,0.0,0.0,0.0,0.0,0.0,0.0,0.0,0.0,0.0,7.6456,7.704,7.679,7.5639,7.3361,7.3038,7.2369,0.0,0.0,7.5899,0.0,7.9874,8.2326,0.0,0.0,8.318,8.4703,8.2883,8.2957,8.474,8.448,8.4295,8.422,8.448,8.4146,8.3329,8.2357,8.1,7.9591,7.9962,8.0353,8.0951,8.318,8.4592,8.5632,9.8857,9.9009,9.9522,9.9978,10.3211,10.71,11.1018,11.5196,11.7594,11.6704,11.8716,11.9992,11.9103,11.9915,12.0108,11.9103,11.7904,11.7014,11.6588,11.5312,11.4306,11.3494,11.1293,0.0,10.89,10.5799,10.3409,10.1693,0.0,0.0,9.2608,9.0862,8.8672,8.6197,8.6995,8.9056,9.1825,9.1402,9.2479,9.448,9.448,9.5211,9.6288,9.6288,9.6288,9.6288,9.6288,9.6288,9.5981,9.3985,9.3619,9.3696,9.197,9.1114,9.051,8.9356,8.8683,8.8092,8.7153,8.6895,8.6969,8.7378,8.7452,8.7564,8.801,8.7787,8.7341,8.6895,8.6486,8.5706,8.4072,8.2066,0.0,0.0,0.0,0.0,0.0,0.0,0.0,0.0,0.0,0.0,0.0,0.0,7.7199,7.3101,7.3175,7.2295,0.0,0.0,7.5416,0.0,0.0,0.0,8.2586,0.0,8.5706,8.5595,8.5298,8.5521,8.6226,8.6709,8.6709,8.6264,8.5409,8.4525,8.3581,8.1696,8.023,7.9231,8.0045,8.0948,8.2023,8.3655,8.5089,8.6449,10.3118,10.2591,10.2798,10.5089,10.7783,11.0896,11.4292,11.9182,12.1289,11.802,11.9606,12.0186,11.7787,12.0921,12.212,11.918,11.8987,11.8484,11.7285,11.6201,11.5583,11.5389,11.2914,11.1405,11.0786,10.7791,10.4896,0.0,0.0,0.0,0.0,0.0,0.0,8.6762,8.7242,8.9248,9.221,0.0,9.3403,9.6057,9.6249,9.6673,9.725,9.725,9.6865,9.6288,9.6288,9.6232,9.5886,9.4311,9.4273,9.4427,9.2237,9.1985,9.207,9.0017,8.9635,8.9554,8.8418,8.8084,8.8084,8.8084,8.8084,8.8084,8.8084,8.7935,8.7638,8.6932,8.6672,8.5966,8.4035,8.2474,0.0,0.0,0.0,0.0,0.0,0.0,0.0,0.0,0.0,0.0,7.705,7.8276,7.7199,7.2295,7.2841,7.2184,6.9434,0.0,0.0,0.0,0.0,8.3329,8.2771,0.0,8.7712,8.6635,8.7415,8.7638,8.7378,8.8678,8.8753,8.775,8.6412,8.5021,8.3497,8.1414,8.017,7.9653,8.0436,8.1777,8.3335,8.4299,8.5689,8.7304,10.5396,10.661,10.7692,10.8791,11.2175,11.5089,11.5495,12.0015,12.3223,12.2797,12.4402,12.4789,12.301,12.2584,12.2004,12.0882,12.0805,11.9683,11.7401,11.8484,11.7517,11.3687,11.3997,11.3184,11.0902,10.89,10.6293,0.0,0.0,9.7253,0.0,0.0,0.0,0.0,9.0916,0.0,0.0,9.2864,9.4095,9.5172,9.598,9.6365,9.6403,9.6403,9.6365,9.6288,9.6288,9.5961,9.5359,9.4458,9.419,9.4097,9.3064,9.1972,9.0827,8.9313,8.8907,8.8814,8.8232,8.8084,8.8084,8.8084,8.8084,8.8084,8.8084,8.749,8.6895,8.6821,8.6226,8.5632,8.5409,8.4629,8.3775,0.0,0.0,0.0,0.0,0.0,0.0,0.0,0.0,0.0,0.0,7.7422,7.6344,7.1378,7.2481,7.2952,0.0,0.0,0.0,7.3398,7.8351,8.24,8.5223,8.5,8.6598,9.0016,8.7935,8.7675,8.905,8.9236,8.8418,8.6895,8.6747,8.4873,8.1904,8.1682,8.1533,8.1533,8.2348,8.3328,8.448,8.5973,8.7155,8.8084,11.112,11.0407,11.0587,11.3616,11.4084,11.5186,11.841,12.1096,12.2701,12.2816,12.4286,12.4905,12.359,12.3203,12.2507,12.1114,12.0495,11.9799,11.8793,11.7904,11.6898,11.5699,11.4499,11.3416,11.2411,11.0094,10.7813,0.0,0.0,0.0,0.0,0.0,0.0,0.0,0.0,9.3222,9.4377,9.4998,9.6019,9.7365,9.8211,9.8557,9.85,9.7628,9.7295,9.7078,9.5745,9.5758,9.6235,9.4904,9.4448,9.4182,9.2851,9.2427,9.2039,9.0135,8.993,9.0004,8.8493,8.8455,8.8678,8.8195,8.8084,8.8084,8.8084,8.7824,8.7564,8.7564,8.7304,8.7081,8.7081,8.6412,8.5743,0.0,0.0,0.0,0.0,0.0,0.0,0.0,0.0,0.0,0.0,7.5676,7.5676,7.4673,7.4301,7.3335,0.0,0.0,0.0,7.4784,0.0,8.084,8.4109,8.5261,8.7155,8.9756,8.8753,8.9161,9.0722,9.0239,8.8827,8.6747,8.5689,8.3891,8.1682,8.1592,8.1857,8.2375,8.3195,8.4429,8.5776,8.6312,8.7185,8.8164,11.6002,11.4718,11.4508,11.839,11.7406,11.7291,12.0787,12.1811,12.2198,12.1888,12.2894,12.3512,12.3203,12.3396,12.27,12.0805,12.0302,11.9799,11.8987,11.7517,11.6704,11.682,11.4809,0.0,11.3378,11.1598,10.9703,10.7691,10.6183,0.0,0.0,0.0,0.0,0.0,9.5388,9.605,9.7475,9.7441,9.825,9.9596,9.9997,10.011,9.9724,9.8518,9.7887,9.7458,9.5604,9.5609,9.6241,9.4832,9.4421,9.4235,9.2738,9.2533,9.2569,9.0763,9.0646,9.0745,8.9212,8.9198,8.9533,8.8938,8.879,8.879,8.879,8.879,8.8716,8.8493,8.8455,8.8455,8.8455,8.8121,8.7898,8.7898,0.0,0.0,0.0,0.0,0.0,0.0,0.0,7.7199,7.4821,7.4598,7.4996,7.5963,7.5118,7.3818,0.0,0.0,0.0,0.0,0.0,0.0,8.3886,8.5818,8.7718,8.9581,8.9353,8.9984,9.1251,9.0244,8.8827,8.7081,8.5102,8.3736,8.2779,8.2244,8.2739,8.3923,8.4256,8.5466,8.7005,8.6878,8.7524,8.8461,11.9005,11.9492,12.0188,12.2893,12.3197,12.2886,12.2197,12.2081,12.1812,12.1096,12.0998,12.1385,12.2197,12.301,12.2507,11.9915,12.0495,11.9915,11.7401,11.7904,11.7594,0.0,0.0,11.419,11.33,11.33,11.1985,10.9509,0.0,0.0,10.0613,0.0,9.9463,10.0312,10.0923,10.0789,10.0115,10.0115,10.0481,10.1211,10.0694,9.9977,9.9144,9.8528,9.7799,9.7003,9.6093,9.5478,9.4887,9.4061,9.3974,9.4012,9.2945,9.218,9.1571,9.0722,9.0499,9.0499,9.0462,9.0462,9.0462,9.0462,9.0462,9.0462,9.0462,9.0462,9.0239,8.9459,8.9273,8.9273,8.9273,8.9942,9.0462,9.0462,0.0,0.0,0.0,0.0,0.0,0.0,8.1657,7.9056,7.497,7.4598,7.429,7.351,7.4179,7.4561,0.0,0.0,0.0,7.4561,7.9391,0.0,8.5558,8.6375,8.7916,9.0165,8.9548,8.9623,9.0165,8.8764,8.8084,8.7935,8.5446,8.4852,8.5409,8.3849,8.4592,8.6672,8.5892,8.6598,8.8084,8.8084,8.8604,8.9161,12.27,12.272,12.2488,12.33,12.301,12.2488,12.2295,12.2179,12.1889,12.1114,12.0998,12.0689,11.9683,11.9915,11.9915,0.0,11.8909,11.829,0.0,11.771,11.7091,11.5892,11.5583,11.4809,11.33,11.33,11.2604,11.1289,0.0,0.0,0.0,10.4486,10.4108,10.3805,10.329,10.331,10.3599,10.229,10.1981,10.2096,10.1,10.0298,9.9899,9.8327,9.7927,9.7981,9.6175,9.6121,9.6779,9.5362,9.531,9.5659,9.4775,9.397,9.3359,9.3099,9.2616,9.2059,9.1465,9.1316,9.1205,9.0647,9.0499,9.0499,9.0499,9.0907,9.1428,9.1762,9.1353,9.113,9.1688,9.1539,9.1316,9.1316,9.2022,0.0,0.0,0.0,0.0,0.0,7.8685,7.6419,7.403,7.429,0.0,7.5007,7.5267,0.0,0.0,0.0,0.0,0.0,7.8573,0.0,8.5558,8.6969,8.8806,9.1091,9.0304,9.0008,9.0165,8.9321,8.8604,8.801,8.6635,8.5855,8.5558,8.5038,8.5595,8.6784,8.6524,8.7118,8.8084,8.7958,8.8138,8.8387,12.4982,12.4789,12.4402,12.4015,12.359,12.301,12.2391,12.2313,12.1888,12.0689,12.0495,11.9683,11.771,11.7207,11.7285,11.8213,11.7594,11.7285,11.7401,11.7285,11.7014,11.6395,11.6085,11.5196,11.3803,11.3803,0.0,11.2991,11.2105,11.1009,10.9719,10.8604,10.8221,10.8107,10.6584,10.6121,10.6506,10.4098,10.3097,10.2883,10.0986,10.0226,9.9987,9.8306,9.7964,9.8161,9.6463,9.6517,9.7223,9.5848,9.5923,9.6517,9.5997,9.5737,9.5477,9.4845,9.4065,9.3397,9.3174,9.2653,9.2133,9.1948,9.1873,9.1873,9.1873,9.2022,9.2356,9.2876,9.2802,9.2802,9.3359,9.3025,9.2653,9.2653,9.2579,9.1465,8.853,0.0,0.0,0.0,0.0,0.0,0.0,7.653,7.7199,0.0,7.7868,0.0,0.0,0.0,7.6344,7.7162,8.0171,8.3329,8.6486,8.8158,8.9776,9.1361,9.0842,9.0284,8.9757,8.9469,8.8864,8.8047,8.7192,8.6709,8.6486,8.5855,8.6264,8.7267,8.6932,8.7341,8.8084,8.7958,8.7767,8.757,12.5911,12.6104,12.5679,12.4905,12.4712,12.4093,12.2507,12.2313,12.1694,11.9915,11.9683,11.8716,11.6201,11.5196,11.5002,11.5699,11.6511,0.0,11.5892,11.6588,11.7091,11.7091,11.6318,11.5505,11.4616,11.4499,11.4482,11.4598,11.3812,11.3795,11.449,11.1789,11.1283,11.2785,11.0102,10.8906,10.8598,10.529,10.3905,10.3613,10.0722,9.9607,9.9497,9.832,9.7892,9.778,9.7037,9.6777,9.6666,9.596,9.6257,9.6852,9.6852,9.7372,9.7669,9.6034,9.4994,9.4511,9.5291,9.4362,9.3359,9.4102,9.4288,9.4288,9.4288,9.3731,9.3248,9.3248,9.3842,9.4362,9.4362,9.4288,9.4214,9.4214,9.2765,9.0759,8.827,0.0,0.0,0.0,0.0,0.0,7.8611,8.0654,8.1063,0.0,8.1323,0.0,0.0,0.0,7.8908,7.9465,8.3477,8.6412,8.8158,8.9719,9.0782,9.1264,9.1228,9.0446,8.9058,8.9214,8.8864,8.8047,8.723,8.7341,8.7973,8.6412,8.6672,8.801,8.7192,8.7378,8.8084,8.8084,8.7601,8.6895,12.5911,12.5601,12.4789,12.4015,12.3319,12.2816,12.2391,12.2313,12.1694,11.9915,11.9683,11.8716,11.6201,11.5699,11.5389,11.4886,11.4499,11.4383,11.4886,11.5699,11.6201,11.6201,11.6008,11.5505,11.4616,11.3887,11.3814,11.4395,11.4781,11.5089,11.5124,11.3212,11.2495,11.2603,11.0119,10.8598,10.779,10.5097,10.3482,10.2709,10.0494,9.9607,9.9497,9.832,9.7892,9.7966,9.8375,9.8523,9.856,9.9006,9.9266,9.9415,9.9415,9.9155,9.8635,9.7595,9.6703,9.6071,9.6257,9.5588,9.4883,9.5068,9.5105,9.5105,9.5105,9.544,9.5737,9.5737,9.5886,9.6034,9.6034,9.5031,9.4214,9.4214,9.2282,8.9719,8.6598,8.5149,0.0,0.0,8.1285,8.1991,8.1174,8.1657,8.2251,0.0,0.0,8.0951,8.2259,8.214,8.1219,7.9406,8.3298,8.6586,8.8976,8.9979,9.1042,9.2114,9.1486,9.0708,8.9743,8.928,8.87,8.8084,8.7861,8.7898,8.8047,8.7675,8.775,8.8084,8.7861,8.7898,8.8084,8.8084,8.7973,8.7712,12.5988,12.5679,12.4982,12.3706,12.3087,12.27,12.2391,12.2313,12.181,12.0495,11.9915,11.8909,11.6704,11.6085,11.5389,11.4113,11.3881,11.4113,11.4616,11.5389,11.5699,11.5312,11.5699,11.5487,11.4601,11.4121,11.3989,11.4317,11.5126,11.5296,11.481,11.3398,11.2817,11.2599,11.0021,10.8482,10.7521,10.4982,10.3405,10.2401,10.0418,9.9607,9.9497,9.832,9.8115,9.856,9.9378,9.9898,10.0307,10.1124,10.1421,10.131,10.1012,10.0492,10.0009,9.9229,9.7855,9.6703,9.7074,9.6331,9.5477,9.5848,9.5403,9.5031,9.5774,9.5997,9.6146,9.6517,9.6926,9.7074,9.6666,9.5588,9.4362,9.3248,9.0982,8.827,8.4963,8.4109,0.0,8.0877,8.2809,8.4257,8.4183,8.5223,8.5632,8.5,8.4666,0.0,8.3759,8.5065,8.4849,8.2682,8.5497,8.8053,9.016,9.0876,9.1592,9.2268,9.179,9.1048,8.9972,8.9658,8.9039,8.8084,8.8084,8.8053,8.799,8.8053,8.8053,8.799,8.8053,8.8084,8.8084,8.8084,8.8053,8.7884,12.5601,12.5679,12.5408,12.3822,12.3396,12.3087,12.2584,12.2391,12.2004,12.1114,12.0379,11.9296,11.7594,11.6704,11.5583,11.3997,11.4405,11.4714,11.4383,11.5196,11.5389,11.4598,11.5217,11.5201,11.449,11.4587,11.4491,11.4316,11.4985,11.502,11.4095,11.318,11.2714,11.2599,11.0214,10.8598,10.7521,10.529,10.3597,10.2401,10.0608,9.9796,9.9659,9.8507,9.8598,9.9415,10.0307,10.1124,10.1793,10.2796,10.3093,10.3019,10.2313,10.1904,10.1495,10.0901,9.9006,9.7297,9.7892,9.6963,9.596,9.6629,9.5774,9.5143,9.6629,9.6443,9.6183,9.7,9.7669,9.7817,9.6929,9.6,9.4589,9.2249,8.9724,8.6939,8.3812,0.0,8.3106,8.2437,8.4592,8.6524,8.7452,8.9236,8.931,8.6895,8.8716,8.8244,8.4417,8.727,8.8498,8.729,8.847,8.981,9.1191,9.1864,9.2127,9.2091,9.2091,9.1352,8.9975,9.0073,8.935,8.8021,8.8021,8.7889,8.7762,8.7958,8.7927,8.7762,8.7958,8.8021,8.8021,8.8021,8.8001,8.7947,12.3203,12.4015,12.4712,12.3706,12.2894,12.27,12.3203,12.27,12.2004,12.1114,12.0882,12.0108,11.8406,11.8097,11.7594,11.6704,11.5897,11.499,11.361,11.4306,11.4696,11.4508,11.391,11.3795,11.4298,11.4913,11.4887,11.3989,11.4912,11.489,11.4005,11.3099,11.2714,11.2599,11.0791,10.9098,10.7598,10.6521,10.4713,10.2478,10.1217,10.0706,10.0492,9.9328,9.9415,10.0307,10.1793,10.2424,10.2721,10.4319,10.4802,10.4802,10.469,10.3687,10.2498,10.2387,10.1124,9.9601,9.9043,9.8226,9.7557,9.7669,9.752,9.7557,9.8486,9.8635,9.8746,9.9563,9.9303,9.8637,9.7607,9.6164,9.457,9.2829,8.9901,8.6999,8.4555,0.0,8.4146,8.4035,8.6821,8.931,9.0796,9.0053,9.0127,9.1725,8.905,8.8207,9.0053,8.9591,8.9535,9.0207,8.9975,9.0301,9.1191,9.1969,9.2268,9.2091,9.2091,9.1245,8.9733,8.9767,8.8985,8.7595,8.7595,8.7563,8.7563,8.7563,8.7563,8.7563,8.7563,8.7595,8.7595,8.7595,8.8043,8.8528,12.3706,12.3899,12.4015,12.359,12.2816,12.2391,12.2816,12.2507,12.2004,12.1114,12.0611,11.9799,11.8484,11.7519,11.6786,11.64,11.592,11.5302,11.4606,11.449,11.4201,11.37,11.3816,11.4105,11.4892,11.5212,11.4895,11.3984,11.3907,11.3483,11.2599,11.2214,11.2099,11.2022,11.0791,10.929,10.7598,10.679,10.4991,10.2692,10.1394,10.07,10.0217,9.9419,9.979,10.098,10.2575,10.3836,10.4577,10.5393,10.5804,10.5805,10.5322,10.4393,10.339,10.339,10.1904,10.0195,9.9861,9.9489,9.9081,9.8635,9.856,9.8635,9.9006,9.9118,9.9305,9.9978,9.9496,9.8608,9.7614,9.6098,9.4399,9.2772,8.944,0.0,0.0,8.5318,8.5244,8.6577,8.8836,9.0761,9.1946,9.1491,9.1375,9.2017,9.0341,8.9716,9.0624,9.0469,9.0516,9.0876,9.1393,9.1835,9.2203,9.2571,9.2719,9.2647,9.2647,9.1616,8.9735,9.0584,8.9986,8.8236,8.8642,8.8538,8.8029,8.8129,8.7837,8.7439,8.7981,8.7903,8.7608,8.8494,8.9018,8.9285,12.3899,12.3706,12.3512,12.3512,12.27,12.212,12.2507,12.2197,12.181,12.1114,12.0379,11.9606,11.8484,11.7077,11.6209,11.6016,11.59,11.5897,11.5897,11.499,11.4219,11.3583,11.4198,11.4792,11.5302,11.5385,11.5109,11.4286,11.3593,11.2808,11.1791,11.1598,11.1406,11.1214,11.0291,10.8902,10.7181,10.672,10.4898,10.2385,10.1605,10.0797,10.0098,9.9736,10.0276,10.1611,10.3017,10.4498,10.5794,10.6019,10.632,10.6509,10.5879,10.521,10.4505,10.4319,10.2796,10.1087,10.0715,10.0604,10.0418,9.9824,9.9786,10.0009,10.0195,10.0195,10.0419,10.0796,10.0204,9.9205,9.7802,9.6289,9.4665,9.2637,0.0,0.0,0.0,8.6763,8.6906,8.8756,9.0637,9.2077,9.289,9.3102,9.2843,9.2077,9.203,9.1623,9.079,9.1193,9.1491,9.1465,9.2537,9.3088,9.3088,9.3088,9.3015,9.2794,9.3015,9.2096,9.0254,9.1689,9.1208,8.9246,8.9651,8.9325,8.8412,8.833,8.7888,8.7344,8.829,8.825,8.7807,8.9319,8.988,8.9996,12.1617,12.2507,12.3512,12.3512,12.2197,12.1617,12.3203,12.212,12.1114,12.0998,12.0882,12.0302,11.86,11.8198,11.7793,11.702,11.6727,11.6603,11.6603,11.5687,11.5203,11.5195,11.5077,11.5118,11.5094,11.5706,11.5706,11.5018,11.5018,11.4103,11.2599,11.1791,11.1098,11.0291,10.9406,10.7807,10.5706,10.6408,10.4507,10.1112,10.1988,10.1694,10.0802,10.0975,10.1499,10.2197,10.3122,10.4009,10.4935,10.5794,10.6575,10.732,10.74,10.6919,10.6102,10.5322,10.4505,10.339,10.1793,10.1421,10.1421,10.131,10.1904,10.261,10.3501,10.3613,10.3576,10.3501,10.2722,10.1314,9.8612,9.7431,9.5811,9.2644,0.0,0.0,8.7763,8.8683,8.9606,8.979,9.1932,9.3741,9.4552,9.4626,9.4626,9.4552,9.385,9.3336,9.3049,9.2563,9.2526,9.3122,9.3125,9.3088,9.3088,9.3088,9.2684,9.1913,9.2721,9.2574,9.1693,9.2574,9.2097,9.0444,8.9747,8.8975,8.8168,8.7433,8.7103,8.7068,8.7911,8.8204,8.8241,8.9122,8.993,9.0519,12.1888,12.2313,12.3087,12.4093,12.26,12.1601,12.2796,12.1701,12.0415,11.9707,11.9596,11.8908,11.6904,11.6712,11.6517,11.5974,11.6428,11.6782,11.732,11.7584,11.7007,11.5396,11.5701,11.5801,11.5801,11.5505,11.5212,11.4992,11.4416,11.3596,11.2414,11.2213,11.1216,10.9514,10.928,10.7888,10.5692,10.5502,10.3994,10.183,10.097,10.0591,10.0303,10.0278,10.1015,10.2004,10.2888,10.3994,10.5103,10.5036,10.5595,10.6307,10.5905,10.5201,10.4276,10.3687,10.3613,10.3687,10.302,10.2908,10.3093,10.3093,10.3316,10.3613,10.391,10.4393,10.4727,10.4312,10.3199,10.1791,10.048,9.8748,9.7131,9.5918,0.0,9.2316,9.2426,9.1653,9.1433,9.2535,9.305,9.3602,9.4412,9.3674,9.3305,9.3713,9.3085,9.2606,9.239,9.2683,9.3419,9.4632,9.4631,9.4593,9.4593,9.4079,9.3932,9.4116,9.3418,9.2648,9.184,9.2721,9.2207,9.0629,9.0812,9.0152,8.894,8.861,8.7912,8.7142,8.8463,8.894,8.9124,9.0408,9.1069,9.1326,12.2197,12.2507,12.301,12.4209,12.2878,12.2024,12.2485,12.1424,11.9998,11.87,11.8676,11.8013,11.6108,11.6187,11.6321,11.6218,11.6897,11.7677,11.8484,11.8908,11.8215,11.6215,11.6217,11.63,11.63,11.5581,11.5303,11.5303,11.4421,11.3615,11.2695,11.2329,11.1004,10.9097,10.8602,10.7219,10.5105,10.4311,10.3118,10.1621,10.0595,10.0373,10.0574,10.0386,10.1191,10.2503,10.2503,10.3794,10.5302,10.45,10.51,10.5995,10.5521,10.4782,10.4009,10.3274,10.3683,10.4275,10.4275,10.4389,10.4614,10.4614,10.48,10.4985,10.4987,10.5284,10.5282,10.4791,10.3492,10.2192,10.1436,9.9808,9.8411,9.764,9.5658,9.4446,9.5034,9.3896,9.3382,9.4556,9.441,9.4446,9.4997,9.4117,9.375,9.4189,9.3309,9.25,9.184,9.2868,9.3969,9.5107,9.5621,9.5768,9.5511,9.4703,9.4446,9.474,9.3639,9.2794,9.2244,9.3088,9.2721,9.14,9.14,9.0665,8.9345,8.8831,8.8281,8.7876,8.8942,8.9711,9.0298,9.14,9.1803,9.1767,12.212,12.2894,12.3512,12.3512,12.2972,12.2615,12.2601,12.1398,11.9795,11.8218,11.8497,11.8092,11.6401,11.7271,11.8095,11.799,11.8706,11.9408,12.0216,11.9485,11.8715,11.7792,11.6793,11.63,11.63,11.6195,11.6108,11.6108,11.5303,11.4497,11.3615,11.189,11.0293,10.8891,10.7316,10.5491,10.3598,10.281,10.1592,10.0382,10.1018,10.1573,10.2085,10.1928,10.2684,10.3696,10.2081,10.3109,10.5023,10.4493,10.5384,10.6714,10.6881,10.6408,10.5595,10.4782,10.5189,10.578,10.578,10.578,10.578,10.578,10.6371,10.7005,10.7203,10.6686,10.5908,10.5093,10.4125,10.2784,10.1004,10.0514,9.9512,9.7126,9.6722,9.6171,9.4556,9.4997,9.5511,9.5511,9.6208,9.6685,9.6685,9.6685,9.6685,9.6685,9.518,9.3565,9.1913,9.3382,9.4299,9.4299,9.5878,9.6318,9.5511,9.4703,9.3896,9.3125,9.3088,9.3088,9.3125,9.3932,9.3822,9.3015,9.1326,9.0152,8.9272,8.7692,8.7986,8.9382,8.9382,9.0408,9.1803,9.1803,9.1803,9.1693,12.1501,12.2507,12.3706,12.4286,12.3815,12.3379,12.3403,12.161,11.9701,11.7908,11.7183,11.6215,11.4295,11.5423,11.6197,11.6089,11.7892,11.9408,12.0216,11.9485,11.8715,11.7792,11.6793,11.63,11.63,11.6195,11.6108,11.6108,11.5204,11.4298,11.3392,11.2396,11.0306,10.7402,10.7604,10.5894,10.3007,10.32,10.2313,10.0907,10.0794,10.1193,10.1928,10.1731,10.2195,10.2999,10.2522,10.3182,10.41,10.3411,10.4182,10.5395,10.4301,10.3827,10.361,10.3509,10.451,10.5616,10.5576,10.5981,10.6501,10.6589,10.6371,10.6226,10.6192,10.6569,10.6608,10.5478,10.5223,10.4774,10.3897,10.2819,10.1604,10.0283,9.9108,9.8007,9.6979,9.6539,9.6355,9.6355,9.6061,9.6098,9.6649,9.518,9.441,9.496,9.3492,9.2574,9.2721,9.3712,9.4556,9.5144,9.6171,9.6318,9.5511,9.4703,9.4189,9.3932,9.2758,9.2501,9.3088,9.2721,9.2391,9.217,9.1657,9.0996,9.0225,8.9748,8.9821,9.0262,9.0262,9.1144,9.2462,9.1987,9.2097,9.2316,12.1501,12.2584,12.3803,12.4576,12.4403,12.4097,12.3701,12.2008,11.9869,11.7381,11.6215,11.5076,11.3488,11.4694,11.5702,11.5995,11.8205,11.9596,11.939,11.9176,11.8715,11.7792,11.6916,11.6217,11.5909,11.5609,11.5396,11.5281,11.412,11.3506,11.3607,11.2615,11.0907,10.8591,10.8503,10.6877,10.439,10.3721,10.3127,10.2424,10.1782,10.2178,10.3209,10.2676,10.2889,10.3586,10.2925,10.3219,10.3806,10.2999,10.3774,10.5106,10.4077,10.4003,10.4228,10.4018,10.4902,10.5887,10.5887,10.6218,10.6627,10.6714,10.6387,10.6022,10.5734,10.5927,10.593,10.5288,10.4882,10.4695,10.4706,10.3591,10.2412,10.1604,10.0393,9.9292,9.8484,9.797,9.753,9.7199,9.6759,9.6539,9.6685,9.5364,9.4446,9.4299,9.3345,9.2721,9.2574,9.3675,9.452,9.5034,9.6098,9.6171,9.5034,9.452,9.4153,9.3822,9.2464,9.206,9.2574,9.2024,9.162,9.1326,9.1326,9.0886,9.0152,9.0152,9.0519,9.1033,9.063,9.1437,9.2643,9.1509,9.1362,9.1469,12.2294,12.3184,12.388,12.4593,12.4996,12.4789,12.3804,12.2516,12.0394,11.7097,11.5688,11.4717,11.3797,11.4983,11.6098,11.6814,11.9001,11.9701,11.8087,11.8587,11.8608,11.7608,11.6801,11.6093,11.5291,11.4629,11.4191,11.4094,11.2503,11.2513,11.3917,11.2716,11.188,11.1308,10.9721,10.818,10.6814,10.4595,10.4005,10.4411,10.3509,10.4092,10.5417,10.4403,10.4394,10.4798,10.3293,10.3293,10.3806,10.3109,10.4007,10.5384,10.5384,10.6014,10.653,10.5679,10.5923,10.6418,10.6376,10.6376,10.6376,10.6376,10.6376,10.6198,10.5527,10.4905,10.4393,10.4519,10.3884,10.3506,10.4276,10.3489,10.2595,10.1788,10.0907,10.0099,9.9402,9.9181,9.8851,9.819,9.797,9.7603,9.6869,9.6685,9.5951,9.441,9.4226,9.3529,9.1987,9.3345,9.4226,9.4299,9.5731,9.5768,9.4299,9.4226,9.3786,9.2978,9.217,9.1803,9.1803,9.1803,9.14,9.0702,9.0702,9.0298,8.9638,8.9638,9.0519,9.184,9.074,9.1289,9.2458,9.0627,8.9931,8.9675,12.3996,12.4787,12.5404,12.5493,12.5989,12.5889,12.4403,12.3308,12.1718,11.8982,11.6793,11.5189,11.4398,11.4609,11.5216,11.5987,11.8306,11.9008,11.7299,11.7927,11.7576,11.611,11.5804,11.5585,11.5291,11.4629,11.4283,11.4306,11.3118,11.301,11.3821,11.2797,11.1704,11.0483,11.0077,10.852,10.6072,10.6685,10.5907,10.4283,10.4522,10.4876,10.517,10.4908,10.4614,10.41,10.3806,10.3806,10.399,10.443,10.4632,10.4574,10.4574,10.5211,10.5921,10.5613,10.6006,10.6585,10.6381,10.6376,10.6376,10.6376,10.6376,10.5972,10.4623,10.5188,10.5785,10.4301,10.5008,10.5932,10.5914,10.4692,10.3586,10.3403,10.1604,10.0503,10.0907,9.9879,9.9292,9.9732,9.8668,9.7823,9.764,9.6502,9.5364,9.4373,9.3712,9.3198,9.2831,9.3161,9.3639,9.4263,9.463,9.463,9.4299,9.3675,9.2941,9.206,9.1877,9.1803,9.1803,9.1803,9.1693,9.1546,9.1546,9.1436,9.1289,9.1289,9.1877,9.2684,9.1107,9.0996,9.1428,8.9861,8.9092,8.872,12.3913,12.4587,12.5278,12.5594,12.5989,12.5805,12.4411,12.3502,12.2077,11.9494,11.7186,11.5592,11.5216,11.4904,11.5088,11.5877,11.7777,11.8099,11.6099,11.6902,11.681,11.5097,11.5012,11.4783,11.4393,11.3984,11.3603,11.3184,11.268,11.2585,11.2907,11.2607,11.2095,11.1306,11.0797,10.9578,10.7814,10.7804,10.6985,10.5809,10.5684,10.5715,10.5715,10.5715,10.4981,10.399,10.432,10.421,10.399,10.4798,10.5036,10.502,10.5395,10.5884,10.6408,10.6213,10.6387,10.6705,10.6497,10.6376,10.6376,10.6376,10.6376,10.6082,10.4798,10.5578,10.6323,10.5316,10.5505,10.5988,10.6308,10.4687,10.3293,10.3293,10.1898,10.098,10.1384,10.109,10.0723,10.0319,9.9548,9.8594,9.7419,9.6575,9.5731,9.4923,9.4116,9.3492,9.3125,9.3088,9.3455,9.4263,9.4666,9.4703,9.4299,9.3859,9.3051,9.1803,9.1803,9.1583,9.1253,9.162,9.1363,9.0702,9.1473,9.1583,9.1253,9.1657,9.206,9.2354,9.0997,9.0557,9.0477,8.8836,8.7812,8.7185,12.3787,12.4382,12.5093,12.5713,12.569,12.5181,12.4125,12.3293,12.2024,11.96,11.7507,11.6208,11.6176,11.5582,11.5501,11.6318,11.7595,11.7381,11.5207,11.6182,11.6091,11.4616,11.4389,11.4086,11.3687,11.3406,11.3007,11.219,11.2198,11.2187,11.2302,11.259,11.2616,11.247,11.1484,11.0623,10.9679,10.8395,10.7697,10.7477,10.6785,10.6492,10.6607,10.6497,10.5505,10.4329,10.5096,10.4912,10.4394,10.5091,10.5514,10.5867,10.67,10.7002,10.7002,10.7002,10.6914,10.671,10.6497,10.6376,10.6376,10.6376,10.6376,10.6192,10.5495,10.5789,10.6082,10.5789,10.5422,10.5311,10.5899,10.4284,10.2889,10.2705,10.2008,10.1494,10.1677,10.2301,10.2191,10.0907,10.0319,9.9218,9.6906,9.6685,9.6428,9.5768,9.4813,9.4006,9.3345,9.3015,9.3308,9.4263,9.4813,9.4811,9.4257,9.4001,9.3083,9.1542,9.1582,9.129,9.0849,9.151,9.1069,8.9895,9.1216,9.151,9.1069,9.1767,9.2097,9.2097,9.085,9.019,8.9784,8.7773,8.6568,8.5909,12.6182,12.6391,12.6498,12.6496,12.5895,12.4894,12.3293,12.2985,12.2216,12.0408,11.8881,11.8021,11.8021,11.6819,11.6393,11.721,11.7404,11.7115,11.611,11.6107,11.5684,11.4818,11.3991,11.3894,11.4383,11.3814,11.3396,11.31,11.29,11.3093,11.3593,11.2906,11.2512,11.2507,11.161,11.0398,10.8909,10.8688,10.8211,10.752,10.688,10.711,10.7589,10.7095,10.6206,10.538,10.619,10.6286,10.6082,10.6192,10.6397,10.6604,10.6921,10.7081,10.72,10.7116,10.6998,10.6914,10.6502,10.6376,10.6376,10.6376,10.6376,10.6376,10.6302,10.5715,10.4908,10.3513,10.421,10.4908,10.432,10.399,10.3513,10.2815,10.2008,10.1677,10.2412,10.2595,10.2595,10.2412,10.0503,9.8594,9.6869,9.6685,9.6649,9.6539,9.5144,9.4226,9.4153,9.2758,9.2684,9.4226,9.3749,9.3629,9.4042,9.274,9.1501,9.0416,9.0561,9.0984,9.1657,9.173,9.1693,9.1473,9.1693,9.217,9.2758,9.2868,9.3345,9.3749,9.1437,9.0374,8.9784,8.7077,8.6019,8.5909,12.6005,12.639,12.6712,12.6703,12.5986,12.4986,12.3793,12.3216,12.2408,12.1177,12.0216,11.9496,11.9496,11.8606,11.8201,11.8465,11.8167,11.7792,11.7413,11.6593,11.5693,11.4825,11.4085,11.3599,11.3406,11.3477,11.3392,11.3185,11.3226,11.2718,11.1875,11.19,11.1893,11.1694,11.0889,11.0083,10.9386,10.8505,10.7881,10.752,10.6921,10.6894,10.723,10.7102,10.6398,10.5495,10.5698,10.6093,10.6376,10.6376,10.6507,10.6714,10.6881,10.7121,10.7314,10.7116,10.6998,10.6918,10.6502,10.6376,10.6376,10.6376,10.6376,10.6192,10.5201,10.5091,10.5018,10.4798,10.4908,10.4908,10.399,10.3182,10.2595,10.2705,10.2008,10.1788,10.2595,10.2705,10.2412,10.1494,10.0026,9.8484,9.6869,9.6685,9.6502,9.6061,9.496,9.4079,9.3639,9.2941,9.3051,9.4263,9.441,9.455,9.4859,9.3728,9.2694,9.1789,9.1419,9.0952,9.0439,9.14,9.1546,9.1143,9.1583,9.2281,9.3088,9.3088,9.3565,9.4042,9.1583,8.9532,8.7851,8.6423,8.5909,8.5909]}]]